<?xml version="1.0" encoding="UTF-8" standalone="no" ?>
<gpx xmlns="http://www.topografix.com/GPX/1/1" xmlns:xsi="http://www.w3.org/2001/XMLSchema-instance" xsi:schemaLocation="http://www.topografix.com/GPX/1/1 http://www.topografix.com/GPX/1/1/gpx.xsd" version="1.1" creator="VisuGPX - https://www.visugpx.com">
  <metadata>
    <name>cogolin01</name>
    <desc><![CDATA[trace-cogolin01]]></desc>
  </metadata>
  <trk>
    <name><![CDATA[ACTIVE LOG-F-MNT]]></name>
    <trkseg>
      <trkpt lat="43.25118" lon="6.52875">
        <ele>24.210268</ele>
        <time>2008-10-05T08:00:50Z</time>
      </trkpt>
      <trkpt lat="43.25116" lon="6.52878">
        <ele>24.118603</ele>
        <time>2008-10-05T08:08:54Z</time>
      </trkpt>
      <trkpt lat="43.25114" lon="6.52875">
        <ele>24.019493</ele>
        <time>2008-10-05T08:14:11Z</time>
      </trkpt>
      <trkpt lat="43.25116" lon="6.52878">
        <ele>24.118603</ele>
        <time>2008-10-05T08:15:06Z</time>
      </trkpt>
      <trkpt lat="43.25116" lon="6.52878">
        <ele>24.118603</ele>
        <time>2008-10-05T08:17:18Z</time>
      </trkpt>
      <trkpt lat="43.25118" lon="6.52878">
        <ele>24.213989</ele>
        <time>2008-10-05T08:18:06Z</time>
      </trkpt>
      <trkpt lat="43.25122" lon="6.52878">
        <ele>24.404766</ele>
        <time>2008-10-05T08:18:12Z</time>
      </trkpt>
      <trkpt lat="43.2512" lon="6.52875">
        <ele>24.305656</ele>
        <time>2008-10-05T08:19:27Z</time>
      </trkpt>
      <trkpt lat="43.25122" lon="6.52875">
        <ele>24.401043</ele>
        <time>2008-10-05T08:21:23Z</time>
      </trkpt>
      <trkpt lat="43.25122" lon="6.52878">
        <ele>24.404766</ele>
        <time>2008-10-05T08:22:55Z</time>
      </trkpt>
      <trkpt lat="43.25122" lon="6.52875">
        <ele>24.401043</ele>
        <time>2008-10-05T08:25:24Z</time>
      </trkpt>
      <trkpt lat="43.25124" lon="6.52871">
        <ele>24.488987</ele>
        <time>2008-10-05T08:26:10Z</time>
      </trkpt>
      <trkpt lat="43.25124" lon="6.52871">
        <ele>24.488987</ele>
        <time>2008-10-05T08:26:12Z</time>
      </trkpt>
      <trkpt lat="43.25126" lon="6.52858">
        <ele>24.562044</ele>
        <time>2008-10-05T08:26:16Z</time>
      </trkpt>
      <trkpt lat="43.25124" lon="6.52845">
        <ele>24.444326</ele>
        <time>2008-10-05T08:26:20Z</time>
      </trkpt>
      <trkpt lat="43.25116" lon="6.52807">
        <ele>24.599449</ele>
        <time>2008-10-05T08:26:29Z</time>
      </trkpt>
      <trkpt lat="43.25109" lon="6.5279">
        <ele>24.712746</ele>
        <time>2008-10-05T08:26:33Z</time>
      </trkpt>
      <trkpt lat="43.25026" lon="6.52714">
        <ele>25.249493</ele>
        <time>2008-10-05T08:27:00Z</time>
      </trkpt>
      <trkpt lat="43.25008" lon="6.52734">
        <ele>26.009792</ele>
        <time>2008-10-05T08:27:06Z</time>
      </trkpt>
      <trkpt lat="43.25006" lon="6.52738">
        <ele>26.069441</ele>
        <time>2008-10-05T08:27:07Z</time>
      </trkpt>
      <trkpt lat="43.25" lon="6.52751">
        <ele>26.248386</ele>
        <time>2008-10-05T08:27:10Z</time>
      </trkpt>
      <trkpt lat="43.24993" lon="6.52785">
        <ele>25.878796</ele>
        <time>2008-10-05T08:27:18Z</time>
      </trkpt>
      <trkpt lat="43.24987" lon="6.52805">
        <ele>25.633568</ele>
        <time>2008-10-05T08:27:23Z</time>
      </trkpt>
      <trkpt lat="43.24974" lon="6.52828">
        <ele>25.837467</ele>
        <time>2008-10-05T08:27:29Z</time>
      </trkpt>
      <trkpt lat="43.24903" lon="6.52903">
        <ele>28.402002</ele>
        <time>2008-10-05T08:27:51Z</time>
      </trkpt>
      <trkpt lat="43.24897" lon="6.52912">
        <ele>28.495064</ele>
        <time>2008-10-05T08:27:53Z</time>
      </trkpt>
      <trkpt lat="43.24875" lon="6.52981">
        <ele>25.644291</ele>
        <time>2008-10-05T08:28:03Z</time>
      </trkpt>
      <trkpt lat="43.24807" lon="6.53047">
        <ele>24.86865</ele>
        <time>2008-10-05T08:28:20Z</time>
      </trkpt>
      <trkpt lat="43.24768" lon="6.53077">
        <ele>26.378897</ele>
        <time>2008-10-05T08:28:29Z</time>
      </trkpt>
      <trkpt lat="43.24768" lon="6.53096">
        <ele>26.161177</ele>
        <time>2008-10-05T08:28:32Z</time>
      </trkpt>
      <trkpt lat="43.24768" lon="6.53107">
        <ele>26.035677</ele>
        <time>2008-10-05T08:28:34Z</time>
      </trkpt>
      <trkpt lat="43.24759" lon="6.53107">
        <ele>26.736511</ele>
        <time>2008-10-05T08:28:37Z</time>
      </trkpt>
      <trkpt lat="43.24755" lon="6.53103">
        <ele>27.11908</ele>
        <time>2008-10-05T08:28:39Z</time>
      </trkpt>
      <trkpt lat="43.24721" lon="6.53066">
        <ele>29.657715</ele>
        <time>2008-10-05T08:28:51Z</time>
      </trkpt>
      <trkpt lat="43.24639" lon="6.53006">
        <ele>30.959848</ele>
        <time>2008-10-05T08:29:15Z</time>
      </trkpt>
      <trkpt lat="43.24624" lon="6.52998">
        <ele>30.398874</ele>
        <time>2008-10-05T08:29:18Z</time>
      </trkpt>
      <trkpt lat="43.24603" lon="6.52983">
        <ele>29.771744</ele>
        <time>2008-10-05T08:29:23Z</time>
      </trkpt>
      <trkpt lat="43.24564" lon="6.52903">
        <ele>30.783813</ele>
        <time>2008-10-05T08:29:41Z</time>
      </trkpt>
      <trkpt lat="43.24553" lon="6.52884">
        <ele>31.176556</ele>
        <time>2008-10-05T08:29:46Z</time>
      </trkpt>
      <trkpt lat="43.24547" lon="6.52871">
        <ele>31.472729</ele>
        <time>2008-10-05T08:29:49Z</time>
      </trkpt>
      <trkpt lat="43.24528" lon="6.5283">
        <ele>33.082291</ele>
        <time>2008-10-05T08:30:00Z</time>
      </trkpt>
      <trkpt lat="43.24506" lon="6.52783">
        <ele>36.162022</ele>
        <time>2008-10-05T08:30:14Z</time>
      </trkpt>
      <trkpt lat="43.24498" lon="6.5276">
        <ele>37.682568</ele>
        <time>2008-10-05T08:30:21Z</time>
      </trkpt>
      <trkpt lat="43.24487" lon="6.5273">
        <ele>39.708935</ele>
        <time>2008-10-05T08:30:31Z</time>
      </trkpt>
      <trkpt lat="43.24483" lon="6.52714">
        <ele>41.251186</ele>
        <time>2008-10-05T08:30:36Z</time>
      </trkpt>
      <trkpt lat="43.24481" lon="6.52706">
        <ele>42.127842</ele>
        <time>2008-10-05T08:30:39Z</time>
      </trkpt>
      <trkpt lat="43.24472" lon="6.52663">
        <ele>46.403042</ele>
        <time>2008-10-05T08:30:52Z</time>
      </trkpt>
      <trkpt lat="43.24461" lon="6.52611">
        <ele>50.989582</ele>
        <time>2008-10-05T08:31:08Z</time>
      </trkpt>
      <trkpt lat="43.24442" lon="6.52562">
        <ele>54.547478</ele>
        <time>2008-10-05T08:31:25Z</time>
      </trkpt>
      <trkpt lat="43.24427" lon="6.52519">
        <ele>56.704029</ele>
        <time>2008-10-05T08:31:41Z</time>
      </trkpt>
      <trkpt lat="43.24423" lon="6.525">
        <ele>57.71463</ele>
        <time>2008-10-05T08:31:48Z</time>
      </trkpt>
      <trkpt lat="43.24401" lon="6.52433">
        <ele>60.622082</ele>
        <time>2008-10-05T08:32:12Z</time>
      </trkpt>
      <trkpt lat="43.24388" lon="6.52393">
        <ele>62.063484</ele>
        <time>2008-10-05T08:32:27Z</time>
      </trkpt>
      <trkpt lat="43.24386" lon="6.52378">
        <ele>62.776859</ele>
        <time>2008-10-05T08:32:32Z</time>
      </trkpt>
      <trkpt lat="43.2439" lon="6.52363">
        <ele>63.839497</ele>
        <time>2008-10-05T08:32:37Z</time>
      </trkpt>
      <trkpt lat="43.24397" lon="6.5235">
        <ele>64.731255</ele>
        <time>2008-10-05T08:32:42Z</time>
      </trkpt>
      <trkpt lat="43.24399" lon="6.52337">
        <ele>65.35865</ele>
        <time>2008-10-05T08:32:47Z</time>
      </trkpt>
      <trkpt lat="43.24401" lon="6.5232">
        <ele>66.134315</ele>
        <time>2008-10-05T08:32:53Z</time>
      </trkpt>
      <trkpt lat="43.24393" lon="6.52251">
        <ele>68.205208</ele>
        <time>2008-10-05T08:33:11Z</time>
      </trkpt>
      <trkpt lat="43.24382" lon="6.52182">
        <ele>69.604263</ele>
        <time>2008-10-05T08:33:30Z</time>
      </trkpt>
      <trkpt lat="43.2438" lon="6.52167">
        <ele>69.701675</ele>
        <time>2008-10-05T08:33:35Z</time>
      </trkpt>
      <trkpt lat="43.24345" lon="6.52116">
        <ele>70.469505</ele>
        <time>2008-10-05T08:33:50Z</time>
      </trkpt>
      <trkpt lat="43.24343" lon="6.52112">
        <ele>70.552795</ele>
        <time>2008-10-05T08:33:51Z</time>
      </trkpt>
      <trkpt lat="43.24307" lon="6.52019">
        <ele>70.703735</ele>
        <time>2008-10-05T08:34:11Z</time>
      </trkpt>
      <trkpt lat="43.24281" lon="6.5197">
        <ele>72.259766</ele>
        <time>2008-10-05T08:34:24Z</time>
      </trkpt>
      <trkpt lat="43.24275" lon="6.51968">
        <ele>72.749077</ele>
        <time>2008-10-05T08:34:26Z</time>
      </trkpt>
      <trkpt lat="43.24212" lon="6.51953">
        <ele>77.612831</ele>
        <time>2008-10-05T08:34:43Z</time>
      </trkpt>
      <trkpt lat="43.24169" lon="6.51938">
        <ele>81.166161</ele>
        <time>2008-10-05T08:35:00Z</time>
      </trkpt>
      <trkpt lat="43.24159" lon="6.51931">
        <ele>82.107246</ele>
        <time>2008-10-05T08:35:05Z</time>
      </trkpt>
      <trkpt lat="43.2415" lon="6.51918">
        <ele>82.750885</ele>
        <time>2008-10-05T08:35:12Z</time>
      </trkpt>
      <trkpt lat="43.2415" lon="6.51903">
        <ele>83</ele>
        <time>2008-10-05T08:35:18Z</time>
      </trkpt>
      <trkpt lat="43.24163" lon="6.5186">
        <ele>82.995735</ele>
        <time>2008-10-05T08:35:30Z</time>
      </trkpt>
      <trkpt lat="43.24176" lon="6.51835">
        <ele>83.107086</ele>
        <time>2008-10-05T08:35:36Z</time>
      </trkpt>
      <trkpt lat="43.24189" lon="6.51811">
        <ele>83.660095</ele>
        <time>2008-10-05T08:35:41Z</time>
      </trkpt>
      <trkpt lat="43.24189" lon="6.51794">
        <ele>84.381729</ele>
        <time>2008-10-05T08:35:45Z</time>
      </trkpt>
      <trkpt lat="43.24187" lon="6.51777">
        <ele>85.46846</ele>
        <time>2008-10-05T08:35:48Z</time>
      </trkpt>
      <trkpt lat="43.2418" lon="6.51762">
        <ele>86.401222</ele>
        <time>2008-10-05T08:35:52Z</time>
      </trkpt>
      <trkpt lat="43.24178" lon="6.51738">
        <ele>87.723282</ele>
        <time>2008-10-05T08:35:59Z</time>
      </trkpt>
      <trkpt lat="43.24178" lon="6.51712">
        <ele>89.352112</ele>
        <time>2008-10-05T08:36:08Z</time>
      </trkpt>
      <trkpt lat="43.24176" lon="6.51702">
        <ele>89.99276</ele>
        <time>2008-10-05T08:36:11Z</time>
      </trkpt>
      <trkpt lat="43.24161" lon="6.51665">
        <ele>92.146049</ele>
        <time>2008-10-05T08:36:23Z</time>
      </trkpt>
      <trkpt lat="43.24131" lon="6.51627">
        <ele>96.327438</ele>
        <time>2008-10-05T08:36:37Z</time>
      </trkpt>
      <trkpt lat="43.24101" lon="6.51586">
        <ele>101.759186</ele>
        <time>2008-10-05T08:36:54Z</time>
      </trkpt>
      <trkpt lat="43.24099" lon="6.51584">
        <ele>102.099716</ele>
        <time>2008-10-05T08:36:55Z</time>
      </trkpt>
      <trkpt lat="43.24062" lon="6.51567">
        <ele>104.053825</ele>
        <time>2008-10-05T08:37:13Z</time>
      </trkpt>
      <trkpt lat="43.24023" lon="6.51558">
        <ele>102.542938</ele>
        <time>2008-10-05T08:37:33Z</time>
      </trkpt>
      <trkpt lat="43.24002" lon="6.51532">
        <ele>102.660393</ele>
        <time>2008-10-05T08:37:53Z</time>
      </trkpt>
      <trkpt lat="43.23996" lon="6.51521">
        <ele>102.337547</ele>
        <time>2008-10-05T08:37:59Z</time>
      </trkpt>
      <trkpt lat="43.23993" lon="6.51511">
        <ele>102.127632</ele>
        <time>2008-10-05T08:38:05Z</time>
      </trkpt>
      <trkpt lat="43.24" lon="6.51509">
        <ele>103.53997</ele>
        <time>2008-10-05T08:38:08Z</time>
      </trkpt>
      <trkpt lat="43.24004" lon="6.51509">
        <ele>104.105171</ele>
        <time>2008-10-05T08:38:11Z</time>
      </trkpt>
      <trkpt lat="43.24011" lon="6.51509">
        <ele>104.956604</ele>
        <time>2008-10-05T08:38:15Z</time>
      </trkpt>
      <trkpt lat="43.24015" lon="6.51511">
        <ele>105.404274</ele>
        <time>2008-10-05T08:38:17Z</time>
      </trkpt>
      <trkpt lat="43.24023" lon="6.51515">
        <ele>106.264854</ele>
        <time>2008-10-05T08:38:23Z</time>
      </trkpt>
      <trkpt lat="43.24032" lon="6.51515">
        <ele>107.378693</ele>
        <time>2008-10-05T08:38:29Z</time>
      </trkpt>
      <trkpt lat="43.24036" lon="6.51509">
        <ele>108.405899</ele>
        <time>2008-10-05T08:38:35Z</time>
      </trkpt>
      <trkpt lat="43.24043" lon="6.51483">
        <ele>111.235199</ele>
        <time>2008-10-05T08:38:47Z</time>
      </trkpt>
      <trkpt lat="43.2406" lon="6.51446">
        <ele>114.390068</ele>
        <time>2008-10-05T08:39:03Z</time>
      </trkpt>
      <trkpt lat="43.24079" lon="6.51416">
        <ele>117.488632</ele>
        <time>2008-10-05T08:39:17Z</time>
      </trkpt>
      <trkpt lat="43.24077" lon="6.51399">
        <ele>116.832695</ele>
        <time>2008-10-05T08:39:21Z</time>
      </trkpt>
      <trkpt lat="43.24079" lon="6.51397">
        <ele>117.029968</ele>
        <time>2008-10-05T08:39:22Z</time>
      </trkpt>
      <trkpt lat="43.2409" lon="6.51382">
        <ele>117.759872</ele>
        <time>2008-10-05T08:39:27Z</time>
      </trkpt>
      <trkpt lat="43.24092" lon="6.51378">
        <ele>117.777771</ele>
        <time>2008-10-05T08:39:28Z</time>
      </trkpt>
      <trkpt lat="43.24101" lon="6.51367">
        <ele>117.298012</ele>
        <time>2008-10-05T08:39:31Z</time>
      </trkpt>
      <trkpt lat="43.24103" lon="6.51363">
        <ele>117.093445</ele>
        <time>2008-10-05T08:39:32Z</time>
      </trkpt>
      <trkpt lat="43.24096" lon="6.51341">
        <ele>116.609596</ele>
        <time>2008-10-05T08:39:37Z</time>
      </trkpt>
      <trkpt lat="43.2409" lon="6.51324">
        <ele>116.426872</ele>
        <time>2008-10-05T08:39:41Z</time>
      </trkpt>
      <trkpt lat="43.24075" lon="6.51247">
        <ele>119.050125</ele>
        <time>2008-10-05T08:39:59Z</time>
      </trkpt>
      <trkpt lat="43.24062" lon="6.51195">
        <ele>124.472336</ele>
        <time>2008-10-05T08:40:15Z</time>
      </trkpt>
      <trkpt lat="43.24058" lon="6.51172">
        <ele>126.98465</ele>
        <time>2008-10-05T08:40:23Z</time>
      </trkpt>
      <trkpt lat="43.24056" lon="6.51155">
        <ele>129.089142</ele>
        <time>2008-10-05T08:40:29Z</time>
      </trkpt>
      <trkpt lat="43.24058" lon="6.51135">
        <ele>130.65918</ele>
        <time>2008-10-05T08:40:35Z</time>
      </trkpt>
      <trkpt lat="43.24077" lon="6.51071">
        <ele>131.786819</ele>
        <time>2008-10-05T08:40:55Z</time>
      </trkpt>
      <trkpt lat="43.24101" lon="6.50981">
        <ele>130.557877</ele>
        <time>2008-10-05T08:41:19Z</time>
      </trkpt>
      <trkpt lat="43.24101" lon="6.50972">
        <ele>130.367859</ele>
        <time>2008-10-05T08:41:21Z</time>
      </trkpt>
      <trkpt lat="43.24096" lon="6.50938">
        <ele>130.762604</ele>
        <time>2008-10-05T08:41:31Z</time>
      </trkpt>
      <trkpt lat="43.24092" lon="6.50925">
        <ele>131.63237</ele>
        <time>2008-10-05T08:41:35Z</time>
      </trkpt>
      <trkpt lat="43.2406" lon="6.50854">
        <ele>134.722855</ele>
        <time>2008-10-05T08:41:58Z</time>
      </trkpt>
      <trkpt lat="43.24049" lon="6.50828">
        <ele>136.488922</ele>
        <time>2008-10-05T08:42:08Z</time>
      </trkpt>
      <trkpt lat="43.24039" lon="6.50781">
        <ele>137.100952</ele>
        <time>2008-10-05T08:42:26Z</time>
      </trkpt>
      <trkpt lat="43.24039" lon="6.5077">
        <ele>136.523941</ele>
        <time>2008-10-05T08:42:29Z</time>
      </trkpt>
      <trkpt lat="43.24041" lon="6.50758">
        <ele>135.201355</ele>
        <time>2008-10-05T08:42:34Z</time>
      </trkpt>
      <trkpt lat="43.24039" lon="6.50732">
        <ele>134.435699</ele>
        <time>2008-10-05T08:42:44Z</time>
      </trkpt>
      <trkpt lat="43.24036" lon="6.50725">
        <ele>134.70076</ele>
        <time>2008-10-05T08:42:46Z</time>
      </trkpt>
      <trkpt lat="43.24039" lon="6.50704">
        <ele>132.82933</ele>
        <time>2008-10-05T08:42:55Z</time>
      </trkpt>
      <trkpt lat="43.24019" lon="6.50605">
        <ele>133.571228</ele>
        <time>2008-10-05T08:43:30Z</time>
      </trkpt>
      <trkpt lat="43.24015" lon="6.5059">
        <ele>133.221207</ele>
        <time>2008-10-05T08:43:34Z</time>
      </trkpt>
      <trkpt lat="43.24013" lon="6.50577">
        <ele>132.324631</ele>
        <time>2008-10-05T08:43:38Z</time>
      </trkpt>
      <trkpt lat="43.23998" lon="6.50571">
        <ele>136.071213</ele>
        <time>2008-10-05T08:43:43Z</time>
      </trkpt>
      <trkpt lat="43.23991" lon="6.50564">
        <ele>137.078354</ele>
        <time>2008-10-05T08:43:55Z</time>
      </trkpt>
      <trkpt lat="43.23983" lon="6.50564">
        <ele>139.306168</ele>
        <time>2008-10-05T08:44:27Z</time>
      </trkpt>
      <trkpt lat="43.23963" lon="6.50552">
        <ele>141.519272</ele>
        <time>2008-10-05T08:47:07Z</time>
      </trkpt>
      <trkpt lat="43.23959" lon="6.50549">
        <ele>142.063141</ele>
        <time>2008-10-05T08:47:10Z</time>
      </trkpt>
      <trkpt lat="43.2394" lon="6.50549">
        <ele>145.868195</ele>
        <time>2008-10-05T08:47:20Z</time>
      </trkpt>
      <trkpt lat="43.23895" lon="6.50541">
        <ele>147.85199</ele>
        <time>2008-10-05T08:47:36Z</time>
      </trkpt>
      <trkpt lat="43.23873" lon="6.50541">
        <ele>150.188675</ele>
        <time>2008-10-05T08:47:57Z</time>
      </trkpt>
      <trkpt lat="43.23867" lon="6.50534">
        <ele>149.182846</ele>
        <time>2008-10-05T08:48:10Z</time>
      </trkpt>
      <trkpt lat="43.23867" lon="6.50532">
        <ele>148.664398</ele>
        <time>2008-10-05T08:48:12Z</time>
      </trkpt>
      <trkpt lat="43.23858" lon="6.50524">
        <ele>147.673096</ele>
        <time>2008-10-05T08:48:22Z</time>
      </trkpt>
      <trkpt lat="43.23856" lon="6.50522">
        <ele>147.457306</ele>
        <time>2008-10-05T08:48:24Z</time>
      </trkpt>
      <trkpt lat="43.23858" lon="6.50511">
        <ele>144.744843</ele>
        <time>2008-10-05T08:48:28Z</time>
      </trkpt>
      <trkpt lat="43.23858" lon="6.50509">
        <ele>144.258606</ele>
        <time>2008-10-05T08:48:29Z</time>
      </trkpt>
      <trkpt lat="43.23856" lon="6.50502">
        <ele>143.136261</ele>
        <time>2008-10-05T08:48:32Z</time>
      </trkpt>
      <trkpt lat="43.23854" lon="6.50496">
        <ele>142.042953</ele>
        <time>2008-10-05T08:48:34Z</time>
      </trkpt>
      <trkpt lat="43.23852" lon="6.50487">
        <ele>140.501312</ele>
        <time>2008-10-05T08:48:39Z</time>
      </trkpt>
      <trkpt lat="43.2385" lon="6.50485">
        <ele>140.384964</ele>
        <time>2008-10-05T08:48:41Z</time>
      </trkpt>
      <trkpt lat="43.23848" lon="6.50474">
        <ele>138.428223</ele>
        <time>2008-10-05T08:48:47Z</time>
      </trkpt>
      <trkpt lat="43.23843" lon="6.50464">
        <ele>136.769073</ele>
        <time>2008-10-05T08:48:53Z</time>
      </trkpt>
      <trkpt lat="43.23841" lon="6.5044">
        <ele>132.085648</ele>
        <time>2008-10-05T08:49:04Z</time>
      </trkpt>
      <trkpt lat="43.23837" lon="6.50425">
        <ele>130.07756</ele>
        <time>2008-10-05T08:49:11Z</time>
      </trkpt>
      <trkpt lat="43.23837" lon="6.50419">
        <ele>128.778564</ele>
        <time>2008-10-05T08:49:13Z</time>
      </trkpt>
      <trkpt lat="43.23839" lon="6.50414">
        <ele>127.272743</ele>
        <time>2008-10-05T08:49:16Z</time>
      </trkpt>
      <trkpt lat="43.23841" lon="6.50399">
        <ele>124.122078</ele>
        <time>2008-10-05T08:49:23Z</time>
      </trkpt>
      <trkpt lat="43.23841" lon="6.50393">
        <ele>123.088638</ele>
        <time>2008-10-05T08:49:25Z</time>
      </trkpt>
      <trkpt lat="43.23841" lon="6.50384">
        <ele>121.712532</ele>
        <time>2008-10-05T08:49:28Z</time>
      </trkpt>
      <trkpt lat="43.23843" lon="6.50371">
        <ele>118.973511</ele>
        <time>2008-10-05T08:49:31Z</time>
      </trkpt>
      <trkpt lat="43.23843" lon="6.50369">
        <ele>118.628922</ele>
        <time>2008-10-05T08:49:32Z</time>
      </trkpt>
      <trkpt lat="43.23841" lon="6.50354">
        <ele>116.912384</ele>
        <time>2008-10-05T08:49:39Z</time>
      </trkpt>
      <trkpt lat="43.23841" lon="6.5035">
        <ele>116.263794</ele>
        <time>2008-10-05T08:49:41Z</time>
      </trkpt>
      <trkpt lat="43.23835" lon="6.50339">
        <ele>116.916908</ele>
        <time>2008-10-05T08:49:47Z</time>
      </trkpt>
      <trkpt lat="43.23833" lon="6.50333">
        <ele>116.715614</ele>
        <time>2008-10-05T08:49:50Z</time>
      </trkpt>
      <trkpt lat="43.23828" lon="6.50328">
        <ele>117.417587</ele>
        <time>2008-10-05T08:49:52Z</time>
      </trkpt>
      <trkpt lat="43.23822" lon="6.50316">
        <ele>117.448959</ele>
        <time>2008-10-05T08:49:58Z</time>
      </trkpt>
      <trkpt lat="43.23783" lon="6.50251">
        <ele>119.277977</ele>
        <time>2008-10-05T08:50:23Z</time>
      </trkpt>
      <trkpt lat="43.23764" lon="6.50247">
        <ele>123.338577</ele>
        <time>2008-10-05T08:50:28Z</time>
      </trkpt>
      <trkpt lat="43.2376" lon="6.50247">
        <ele>124.322731</ele>
        <time>2008-10-05T08:50:29Z</time>
      </trkpt>
      <trkpt lat="43.2374" lon="6.50245">
        <ele>128.288605</ele>
        <time>2008-10-05T08:50:34Z</time>
      </trkpt>
      <trkpt lat="43.23732" lon="6.5024">
        <ele>129.200897</ele>
        <time>2008-10-05T08:50:36Z</time>
      </trkpt>
      <trkpt lat="43.23719" lon="6.50236">
        <ele>129.529556</ele>
        <time>2008-10-05T08:50:40Z</time>
      </trkpt>
      <trkpt lat="43.2368" lon="6.5023">
        <ele>131.30307</ele>
        <time>2008-10-05T08:50:53Z</time>
      </trkpt>
      <trkpt lat="43.23672" lon="6.50225">
        <ele>130.341568</ele>
        <time>2008-10-05T08:50:57Z</time>
      </trkpt>
      <trkpt lat="43.23667" lon="6.50221">
        <ele>129.223587</ele>
        <time>2008-10-05T08:50:59Z</time>
      </trkpt>
      <trkpt lat="43.23659" lon="6.50215">
        <ele>127.664856</ele>
        <time>2008-10-05T08:51:03Z</time>
      </trkpt>
      <trkpt lat="43.23654" lon="6.5021">
        <ele>126.769745</ele>
        <time>2008-10-05T08:51:05Z</time>
      </trkpt>
      <trkpt lat="43.23648" lon="6.502">
        <ele>124.409912</ele>
        <time>2008-10-05T08:51:12Z</time>
      </trkpt>
      <trkpt lat="43.23633" lon="6.50185">
        <ele>122.026436</ele>
        <time>2008-10-05T08:51:25Z</time>
      </trkpt>
      <trkpt lat="43.23631" lon="6.5018">
        <ele>121.289284</ele>
        <time>2008-10-05T08:51:27Z</time>
      </trkpt>
      <trkpt lat="43.23629" lon="6.50178">
        <ele>121.049179</ele>
        <time>2008-10-05T08:51:29Z</time>
      </trkpt>
      <trkpt lat="43.23629" lon="6.50167">
        <ele>118.707253</ele>
        <time>2008-10-05T08:51:34Z</time>
      </trkpt>
      <trkpt lat="43.23629" lon="6.50163">
        <ele>117.774086</ele>
        <time>2008-10-05T08:51:36Z</time>
      </trkpt>
      <trkpt lat="43.23629" lon="6.50159">
        <ele>116.842995</ele>
        <time>2008-10-05T08:51:38Z</time>
      </trkpt>
      <trkpt lat="43.23631" lon="6.50155">
        <ele>115.604515</ele>
        <time>2008-10-05T08:51:41Z</time>
      </trkpt>
      <trkpt lat="43.23633" lon="6.50152">
        <ele>114.817101</ele>
        <time>2008-10-05T08:51:42Z</time>
      </trkpt>
      <trkpt lat="43.23637" lon="6.50142">
        <ele>112.528107</ele>
        <time>2008-10-05T08:51:48Z</time>
      </trkpt>
      <trkpt lat="43.23637" lon="6.5014">
        <ele>112.215279</ele>
        <time>2008-10-05T08:51:50Z</time>
      </trkpt>
      <trkpt lat="43.23659" lon="6.50073">
        <ele>101.350449</ele>
        <time>2008-10-05T08:52:16Z</time>
      </trkpt>
      <trkpt lat="43.23663" lon="6.50062">
        <ele>100.388557</ele>
        <time>2008-10-05T08:52:19Z</time>
      </trkpt>
      <trkpt lat="43.23667" lon="6.50052">
        <ele>99.303017</ele>
        <time>2008-10-05T08:52:22Z</time>
      </trkpt>
      <trkpt lat="43.23678" lon="6.50041">
        <ele>97.150124</ele>
        <time>2008-10-05T08:52:25Z</time>
      </trkpt>
      <trkpt lat="43.23684" lon="6.50037">
        <ele>95.861252</ele>
        <time>2008-10-05T08:52:27Z</time>
      </trkpt>
      <trkpt lat="43.23695" lon="6.50028">
        <ele>93.821487</ele>
        <time>2008-10-05T08:52:30Z</time>
      </trkpt>
      <trkpt lat="43.23699" lon="6.50007">
        <ele>92.873734</ele>
        <time>2008-10-05T08:52:34Z</time>
      </trkpt>
      <trkpt lat="43.23699" lon="6.5">
        <ele>92.640396</ele>
        <time>2008-10-05T08:52:35Z</time>
      </trkpt>
      <trkpt lat="43.23706" lon="6.49964">
        <ele>90.785301</ele>
        <time>2008-10-05T08:52:42Z</time>
      </trkpt>
      <trkpt lat="43.23708" lon="6.49938">
        <ele>90.035622</ele>
        <time>2008-10-05T08:52:48Z</time>
      </trkpt>
      <trkpt lat="43.23708" lon="6.49916">
        <ele>89.651772</ele>
        <time>2008-10-05T08:52:53Z</time>
      </trkpt>
      <trkpt lat="43.23704" lon="6.49886">
        <ele>90.433235</ele>
        <time>2008-10-05T08:53:00Z</time>
      </trkpt>
      <trkpt lat="43.23706" lon="6.49843">
        <ele>90.500038</ele>
        <time>2008-10-05T08:53:12Z</time>
      </trkpt>
      <trkpt lat="43.23697" lon="6.49843">
        <ele>91.438362</ele>
        <time>2008-10-05T08:53:15Z</time>
      </trkpt>
      <trkpt lat="43.23695" lon="6.49843">
        <ele>91.673546</ele>
        <time>2008-10-05T08:53:20Z</time>
      </trkpt>
      <trkpt lat="43.23669" lon="6.49854">
        <ele>94.590775</ele>
        <time>2008-10-05T08:53:36Z</time>
      </trkpt>
      <trkpt lat="43.23657" lon="6.49861">
        <ele>96.148094</ele>
        <time>2008-10-05T08:53:42Z</time>
      </trkpt>
      <trkpt lat="43.23642" lon="6.49863">
        <ele>97.742699</ele>
        <time>2008-10-05T08:53:48Z</time>
      </trkpt>
      <trkpt lat="43.23609" lon="6.49865">
        <ele>101.278053</ele>
        <time>2008-10-05T08:54:04Z</time>
      </trkpt>
      <trkpt lat="43.23594" lon="6.49871">
        <ele>103.620216</ele>
        <time>2008-10-05T08:54:12Z</time>
      </trkpt>
      <trkpt lat="43.23588" lon="6.49876">
        <ele>104.76445</ele>
        <time>2008-10-05T08:54:17Z</time>
      </trkpt>
      <trkpt lat="43.23577" lon="6.49901">
        <ele>108.0093</ele>
        <time>2008-10-05T08:54:29Z</time>
      </trkpt>
      <trkpt lat="43.23564" lon="6.49923">
        <ele>112.060211</ele>
        <time>2008-10-05T08:54:41Z</time>
      </trkpt>
      <trkpt lat="43.23554" lon="6.49936">
        <ele>114.907822</ele>
        <time>2008-10-05T08:54:49Z</time>
      </trkpt>
      <trkpt lat="43.23551" lon="6.49938">
        <ele>115.443863</ele>
        <time>2008-10-05T08:54:52Z</time>
      </trkpt>
      <trkpt lat="43.23539" lon="6.49946">
        <ele>118.30204</ele>
        <time>2008-10-05T08:55:06Z</time>
      </trkpt>
      <trkpt lat="43.23539" lon="6.49949">
        <ele>118.517151</ele>
        <time>2008-10-05T08:55:08Z</time>
      </trkpt>
      <trkpt lat="43.23534" lon="6.49951">
        <ele>119.419449</ele>
        <time>2008-10-05T08:55:13Z</time>
      </trkpt>
      <trkpt lat="43.23532" lon="6.49951">
        <ele>119.763474</ele>
        <time>2008-10-05T08:55:18Z</time>
      </trkpt>
      <trkpt lat="43.23528" lon="6.49944">
        <ele>119.782043</ele>
        <time>2008-10-05T08:55:25Z</time>
      </trkpt>
      <trkpt lat="43.23528" lon="6.4994">
        <ele>119.334602</ele>
        <time>2008-10-05T08:55:28Z</time>
      </trkpt>
      <trkpt lat="43.23526" lon="6.49931">
        <ele>118.76799</ele>
        <time>2008-10-05T08:55:32Z</time>
      </trkpt>
      <trkpt lat="43.23524" lon="6.49919">
        <ele>117.72963</ele>
        <time>2008-10-05T08:55:35Z</time>
      </trkpt>
      <trkpt lat="43.23521" lon="6.49891">
        <ele>115.344864</ele>
        <time>2008-10-05T08:55:41Z</time>
      </trkpt>
      <trkpt lat="43.23513" lon="6.49863">
        <ele>114.754234</ele>
        <time>2008-10-05T08:55:48Z</time>
      </trkpt>
      <trkpt lat="43.23506" lon="6.49848">
        <ele>114.410828</ele>
        <time>2008-10-05T08:55:53Z</time>
      </trkpt>
      <trkpt lat="43.23498" lon="6.49846">
        <ele>115.169655</ele>
        <time>2008-10-05T08:55:56Z</time>
      </trkpt>
      <trkpt lat="43.23489" lon="6.49846">
        <ele>116.10569</ele>
        <time>2008-10-05T08:55:59Z</time>
      </trkpt>
      <trkpt lat="43.23483" lon="6.49846">
        <ele>116.815308</ele>
        <time>2008-10-05T08:56:01Z</time>
      </trkpt>
      <trkpt lat="43.23453" lon="6.49843">
        <ele>117.06797</ele>
        <time>2008-10-05T08:56:12Z</time>
      </trkpt>
      <trkpt lat="43.23444" lon="6.49848">
        <ele>117.536484</ele>
        <time>2008-10-05T08:56:15Z</time>
      </trkpt>
      <trkpt lat="43.23421" lon="6.49856">
        <ele>118.123589</ele>
        <time>2008-10-05T08:56:24Z</time>
      </trkpt>
      <trkpt lat="43.23345" lon="6.49852">
        <ele>120.866692</ele>
        <time>2008-10-05T08:56:52Z</time>
      </trkpt>
      <trkpt lat="43.23343" lon="6.49852">
        <ele>121.120483</ele>
        <time>2008-10-05T08:56:53Z</time>
      </trkpt>
      <trkpt lat="43.23324" lon="6.49839">
        <ele>123.696877</ele>
        <time>2008-10-05T08:57:00Z</time>
      </trkpt>
      <trkpt lat="43.23313" lon="6.49831">
        <ele>125.013031</ele>
        <time>2008-10-05T08:57:05Z</time>
      </trkpt>
      <trkpt lat="43.233" lon="6.49818">
        <ele>126.20153</ele>
        <time>2008-10-05T08:57:12Z</time>
      </trkpt>
      <trkpt lat="43.23298" lon="6.4982">
        <ele>126.90786</ele>
        <time>2008-10-05T08:57:18Z</time>
      </trkpt>
      <trkpt lat="43.23296" lon="6.4982">
        <ele>127.301422</ele>
        <time>2008-10-05T08:57:19Z</time>
      </trkpt>
      <trkpt lat="43.23296" lon="6.4982">
        <ele>127.301422</ele>
        <time>2008-10-05T08:57:22Z</time>
      </trkpt>
      <trkpt lat="43.23296" lon="6.49822">
        <ele>127.56929</ele>
        <time>2008-10-05T08:57:23Z</time>
      </trkpt>
      <trkpt lat="43.23296" lon="6.49824">
        <ele>127.836891</ele>
        <time>2008-10-05T08:57:25Z</time>
      </trkpt>
      <trkpt lat="43.23298" lon="6.49831">
        <ele>128.2146</ele>
        <time>2008-10-05T08:57:29Z</time>
      </trkpt>
      <trkpt lat="43.23296" lon="6.49839">
        <ele>129.702911</ele>
        <time>2008-10-05T08:57:36Z</time>
      </trkpt>
      <trkpt lat="43.23292" lon="6.49848">
        <ele>131.561646</ele>
        <time>2008-10-05T08:57:41Z</time>
      </trkpt>
      <trkpt lat="43.23283" lon="6.49856">
        <ele>134.299759</ele>
        <time>2008-10-05T08:57:48Z</time>
      </trkpt>
      <trkpt lat="43.23277" lon="6.49858">
        <ele>135.839478</ele>
        <time>2008-10-05T08:57:54Z</time>
      </trkpt>
      <trkpt lat="43.2327" lon="6.49856">
        <ele>136.79686</ele>
        <time>2008-10-05T08:58:05Z</time>
      </trkpt>
      <trkpt lat="43.23253" lon="6.4985">
        <ele>139.162277</ele>
        <time>2008-10-05T08:58:13Z</time>
      </trkpt>
      <trkpt lat="43.23234" lon="6.49846">
        <ele>139.823914</ele>
        <time>2008-10-05T08:58:26Z</time>
      </trkpt>
      <trkpt lat="43.23227" lon="6.49848">
        <ele>140.53096</ele>
        <time>2008-10-05T08:58:30Z</time>
      </trkpt>
      <trkpt lat="43.23221" lon="6.4985">
        <ele>141.238022</ele>
        <time>2008-10-05T08:58:36Z</time>
      </trkpt>
      <trkpt lat="43.23217" lon="6.49852">
        <ele>141.824402</ele>
        <time>2008-10-05T08:59:03Z</time>
      </trkpt>
      <trkpt lat="43.23221" lon="6.49856">
        <ele>142.273163</ele>
        <time>2008-10-05T08:59:18Z</time>
      </trkpt>
      <trkpt lat="43.23225" lon="6.49858">
        <ele>142.376877</ele>
        <time>2008-10-05T08:59:24Z</time>
      </trkpt>
      <trkpt lat="43.23236" lon="6.49869">
        <ele>143.498779</ele>
        <time>2008-10-05T08:59:36Z</time>
      </trkpt>
      <trkpt lat="43.23257" lon="6.49893">
        <ele>144.325546</ele>
        <time>2008-10-05T08:59:51Z</time>
      </trkpt>
      <trkpt lat="43.23264" lon="6.49904">
        <ele>144.196991</ele>
        <time>2008-10-05T08:59:56Z</time>
      </trkpt>
      <trkpt lat="43.2327" lon="6.49914">
        <ele>144.017624</ele>
        <time>2008-10-05T09:00:02Z</time>
      </trkpt>
      <trkpt lat="43.23281" lon="6.49951">
        <ele>145.599609</ele>
        <time>2008-10-05T09:00:18Z</time>
      </trkpt>
      <trkpt lat="43.23287" lon="6.49972">
        <ele>146.371979</ele>
        <time>2008-10-05T09:00:29Z</time>
      </trkpt>
      <trkpt lat="43.2329" lon="6.49985">
        <ele>147.231125</ele>
        <time>2008-10-05T09:00:35Z</time>
      </trkpt>
      <trkpt lat="43.23292" lon="6.49996">
        <ele>147.916733</ele>
        <time>2008-10-05T09:00:41Z</time>
      </trkpt>
      <trkpt lat="43.23294" lon="6.5">
        <ele>147.975159</ele>
        <time>2008-10-05T09:00:44Z</time>
      </trkpt>
      <trkpt lat="43.23294" lon="6.50004">
        <ele>148.457397</ele>
        <time>2008-10-05T09:00:47Z</time>
      </trkpt>
      <trkpt lat="43.23292" lon="6.50013">
        <ele>149.937836</ele>
        <time>2008-10-05T09:00:53Z</time>
      </trkpt>
      <trkpt lat="43.23285" lon="6.50028">
        <ele>153.033951</ele>
        <time>2008-10-05T09:01:04Z</time>
      </trkpt>
      <trkpt lat="43.23285" lon="6.5003">
        <ele>153.287735</ele>
        <time>2008-10-05T09:01:05Z</time>
      </trkpt>
      <trkpt lat="43.23279" lon="6.50037">
        <ele>155.302841</ele>
        <time>2008-10-05T09:01:10Z</time>
      </trkpt>
      <trkpt lat="43.23277" lon="6.50039">
        <ele>155.953964</ele>
        <time>2008-10-05T09:01:13Z</time>
      </trkpt>
      <trkpt lat="43.2327" lon="6.50043">
        <ele>157.623932</ele>
        <time>2008-10-05T09:01:18Z</time>
      </trkpt>
      <trkpt lat="43.23255" lon="6.50047">
        <ele>160.767822</ele>
        <time>2008-10-05T09:01:30Z</time>
      </trkpt>
      <trkpt lat="43.23249" lon="6.50052">
        <ele>162.259933</ele>
        <time>2008-10-05T09:01:36Z</time>
      </trkpt>
      <trkpt lat="43.23232" lon="6.50073">
        <ele>165.107529</ele>
        <time>2008-10-05T09:01:53Z</time>
      </trkpt>
      <trkpt lat="43.23227" lon="6.50084">
        <ele>165.385696</ele>
        <time>2008-10-05T09:02:00Z</time>
      </trkpt>
      <trkpt lat="43.23225" lon="6.50092">
        <ele>165.451889</ele>
        <time>2008-10-05T09:02:05Z</time>
      </trkpt>
      <trkpt lat="43.23219" lon="6.50099">
        <ele>165.88176</ele>
        <time>2008-10-05T09:02:11Z</time>
      </trkpt>
      <trkpt lat="43.23212" lon="6.50099">
        <ele>166.404953</ele>
        <time>2008-10-05T09:02:27Z</time>
      </trkpt>
      <trkpt lat="43.2321" lon="6.50112">
        <ele>166.250671</ele>
        <time>2008-10-05T09:06:53Z</time>
      </trkpt>
      <trkpt lat="43.23184" lon="6.50101">
        <ele>167.764404</ele>
        <time>2008-10-05T09:07:54Z</time>
      </trkpt>
      <trkpt lat="43.23152" lon="6.50086">
        <ele>168.490814</ele>
        <time>2008-10-05T09:08:05Z</time>
      </trkpt>
      <trkpt lat="43.23101" lon="6.50077">
        <ele>164.943085</ele>
        <time>2008-10-05T09:08:09Z</time>
      </trkpt>
      <trkpt lat="43.23092" lon="6.50073">
        <ele>164.230789</ele>
        <time>2008-10-05T09:08:11Z</time>
      </trkpt>
      <trkpt lat="43.23054" lon="6.50067">
        <ele>160.94223</ele>
        <time>2008-10-05T09:08:16Z</time>
      </trkpt>
      <trkpt lat="43.23032" lon="6.50084">
        <ele>157.876404</ele>
        <time>2008-10-05T09:08:20Z</time>
      </trkpt>
      <trkpt lat="43.23019" lon="6.50088">
        <ele>156.406799</ele>
        <time>2008-10-05T09:08:22Z</time>
      </trkpt>
      <trkpt lat="43.23006" lon="6.5009">
        <ele>156.005295</ele>
        <time>2008-10-05T09:08:24Z</time>
      </trkpt>
      <trkpt lat="43.22998" lon="6.5009">
        <ele>155.980713</ele>
        <time>2008-10-05T09:08:26Z</time>
      </trkpt>
      <trkpt lat="43.22994" lon="6.50073">
        <ele>156.493546</ele>
        <time>2008-10-05T09:08:30Z</time>
      </trkpt>
      <trkpt lat="43.22994" lon="6.50064">
        <ele>156.740829</ele>
        <time>2008-10-05T09:08:32Z</time>
      </trkpt>
      <trkpt lat="43.22991" lon="6.50052">
        <ele>156.975052</ele>
        <time>2008-10-05T09:08:34Z</time>
      </trkpt>
      <trkpt lat="43.22989" lon="6.50039">
        <ele>156.744888</ele>
        <time>2008-10-05T09:08:36Z</time>
      </trkpt>
      <trkpt lat="43.22978" lon="6.50011">
        <ele>154.194366</ele>
        <time>2008-10-05T09:08:40Z</time>
      </trkpt>
      <trkpt lat="43.22948" lon="6.49929">
        <ele>143.358719</ele>
        <time>2008-10-05T09:08:51Z</time>
      </trkpt>
      <trkpt lat="43.22942" lon="6.49908">
        <ele>140.871704</ele>
        <time>2008-10-05T09:08:54Z</time>
      </trkpt>
      <trkpt lat="43.22931" lon="6.4988">
        <ele>138.023727</ele>
        <time>2008-10-05T09:08:58Z</time>
      </trkpt>
      <trkpt lat="43.22923" lon="6.49856">
        <ele>135.351501</ele>
        <time>2008-10-05T09:09:01Z</time>
      </trkpt>
      <trkpt lat="43.22918" lon="6.49848">
        <ele>134.089584</ele>
        <time>2008-10-05T09:09:02Z</time>
      </trkpt>
      <trkpt lat="43.22908" lon="6.49816">
        <ele>130.803513</ele>
        <time>2008-10-05T09:09:06Z</time>
      </trkpt>
      <trkpt lat="43.22899" lon="6.49805">
        <ele>130.221191</ele>
        <time>2008-10-05T09:09:09Z</time>
      </trkpt>
      <trkpt lat="43.22891" lon="6.49805">
        <ele>130.163757</ele>
        <time>2008-10-05T09:09:11Z</time>
      </trkpt>
      <trkpt lat="43.22884" lon="6.49807">
        <ele>129.947311</ele>
        <time>2008-10-05T09:09:13Z</time>
      </trkpt>
      <trkpt lat="43.22878" lon="6.49811">
        <ele>129.62706</ele>
        <time>2008-10-05T09:09:15Z</time>
      </trkpt>
      <trkpt lat="43.22865" lon="6.49811">
        <ele>128.957047</ele>
        <time>2008-10-05T09:09:18Z</time>
      </trkpt>
      <trkpt lat="43.22852" lon="6.49811">
        <ele>128.234955</ele>
        <time>2008-10-05T09:09:20Z</time>
      </trkpt>
      <trkpt lat="43.22835" lon="6.49807">
        <ele>128.139938</ele>
        <time>2008-10-05T09:09:23Z</time>
      </trkpt>
      <trkpt lat="43.2283" lon="6.49805">
        <ele>128.329132</ele>
        <time>2008-10-05T09:09:24Z</time>
      </trkpt>
      <trkpt lat="43.22822" lon="6.49801">
        <ele>128.829315</ele>
        <time>2008-10-05T09:09:26Z</time>
      </trkpt>
      <trkpt lat="43.22809" lon="6.49794">
        <ele>129.884079</ele>
        <time>2008-10-05T09:09:29Z</time>
      </trkpt>
      <trkpt lat="43.22807" lon="6.49783">
        <ele>131.875763</ele>
        <time>2008-10-05T09:09:32Z</time>
      </trkpt>
      <trkpt lat="43.22805" lon="6.49781">
        <ele>132.038269</ele>
        <time>2008-10-05T09:09:33Z</time>
      </trkpt>
      <trkpt lat="43.22796" lon="6.49766">
        <ele>132.347992</ele>
        <time>2008-10-05T09:09:38Z</time>
      </trkpt>
      <trkpt lat="43.22788" lon="6.49751">
        <ele>133.614655</ele>
        <time>2008-10-05T09:09:43Z</time>
      </trkpt>
      <trkpt lat="43.22781" lon="6.49743">
        <ele>134.897888</ele>
        <time>2008-10-05T09:09:47Z</time>
      </trkpt>
      <trkpt lat="43.2277" lon="6.49736">
        <ele>136.6091</ele>
        <time>2008-10-05T09:09:53Z</time>
      </trkpt>
      <trkpt lat="43.2276" lon="6.4973">
        <ele>138.402512</ele>
        <time>2008-10-05T09:09:59Z</time>
      </trkpt>
      <trkpt lat="43.22755" lon="6.49728">
        <ele>137.957581</ele>
        <time>2008-10-05T09:10:01Z</time>
      </trkpt>
      <trkpt lat="43.22747" lon="6.49721">
        <ele>137.620407</ele>
        <time>2008-10-05T09:10:05Z</time>
      </trkpt>
      <trkpt lat="43.22727" lon="6.49691">
        <ele>137.783066</ele>
        <time>2008-10-05T09:10:17Z</time>
      </trkpt>
      <trkpt lat="43.2271" lon="6.49635">
        <ele>141.97876</ele>
        <time>2008-10-05T09:10:36Z</time>
      </trkpt>
      <trkpt lat="43.22708" lon="6.49631">
        <ele>141.877838</ele>
        <time>2008-10-05T09:10:38Z</time>
      </trkpt>
      <trkpt lat="43.22702" lon="6.4962">
        <ele>141.79126</ele>
        <time>2008-10-05T09:10:42Z</time>
      </trkpt>
      <trkpt lat="43.22691" lon="6.4959">
        <ele>144.043686</ele>
        <time>2008-10-05T09:10:53Z</time>
      </trkpt>
      <trkpt lat="43.22691" lon="6.49586">
        <ele>144.515396</ele>
        <time>2008-10-05T09:10:56Z</time>
      </trkpt>
      <trkpt lat="43.22691" lon="6.49584">
        <ele>144.752609</ele>
        <time>2008-10-05T09:10:59Z</time>
      </trkpt>
      <trkpt lat="43.22693" lon="6.4958">
        <ele>145.185684</ele>
        <time>2008-10-05T09:11:05Z</time>
      </trkpt>
      <trkpt lat="43.2268" lon="6.49549">
        <ele>149.678513</ele>
        <time>2008-10-05T09:11:18Z</time>
      </trkpt>
      <trkpt lat="43.22676" lon="6.49539">
        <ele>150.849808</ele>
        <time>2008-10-05T09:11:23Z</time>
      </trkpt>
      <trkpt lat="43.22676" lon="6.49522">
        <ele>153.273041</ele>
        <time>2008-10-05T09:11:30Z</time>
      </trkpt>
      <trkpt lat="43.22676" lon="6.49496">
        <ele>156.940033</ele>
        <time>2008-10-05T09:11:42Z</time>
      </trkpt>
      <trkpt lat="43.22676" lon="6.49483">
        <ele>158.794403</ele>
        <time>2008-10-05T09:11:48Z</time>
      </trkpt>
      <trkpt lat="43.22678" lon="6.49472">
        <ele>160.720734</ele>
        <time>2008-10-05T09:11:53Z</time>
      </trkpt>
      <trkpt lat="43.22676" lon="6.49462">
        <ele>161.43692</ele>
        <time>2008-10-05T09:11:59Z</time>
      </trkpt>
      <trkpt lat="43.2267" lon="6.49423">
        <ele>162.858429</ele>
        <time>2008-10-05T09:12:15Z</time>
      </trkpt>
      <trkpt lat="43.2267" lon="6.49416">
        <ele>163.275864</ele>
        <time>2008-10-05T09:12:17Z</time>
      </trkpt>
      <trkpt lat="43.22672" lon="6.49391">
        <ele>163.62532</ele>
        <time>2008-10-05T09:12:23Z</time>
      </trkpt>
      <trkpt lat="43.22672" lon="6.49378">
        <ele>163.068466</ele>
        <time>2008-10-05T09:12:26Z</time>
      </trkpt>
      <trkpt lat="43.22685" lon="6.49313">
        <ele>161.929947</ele>
        <time>2008-10-05T09:12:41Z</time>
      </trkpt>
      <trkpt lat="43.22697" lon="6.49256">
        <ele>164.9655</ele>
        <time>2008-10-05T09:12:56Z</time>
      </trkpt>
      <trkpt lat="43.22702" lon="6.49232">
        <ele>168.902725</ele>
        <time>2008-10-05T09:13:03Z</time>
      </trkpt>
      <trkpt lat="43.22704" lon="6.49223">
        <ele>170.439056</ele>
        <time>2008-10-05T09:13:06Z</time>
      </trkpt>
      <trkpt lat="43.22717" lon="6.49198">
        <ele>175.26178</ele>
        <time>2008-10-05T09:13:27Z</time>
      </trkpt>
      <trkpt lat="43.22719" lon="6.49198">
        <ele>175.341873</ele>
        <time>2008-10-05T09:13:30Z</time>
      </trkpt>
      <trkpt lat="43.22717" lon="6.49193">
        <ele>175.947449</ele>
        <time>2008-10-05T09:13:36Z</time>
      </trkpt>
      <trkpt lat="43.22719" lon="6.49191">
        <ele>176.360809</ele>
        <time>2008-10-05T09:13:38Z</time>
      </trkpt>
      <trkpt lat="43.22719" lon="6.49191">
        <ele>176.360809</ele>
        <time>2008-10-05T09:13:41Z</time>
      </trkpt>
      <trkpt lat="43.22719" lon="6.49191">
        <ele>176.360809</ele>
        <time>2008-10-05T09:13:42Z</time>
      </trkpt>
      <trkpt lat="43.22717" lon="6.49178">
        <ele>178.355408</ele>
        <time>2008-10-05T09:14:00Z</time>
      </trkpt>
      <trkpt lat="43.22717" lon="6.49174">
        <ele>179.045715</ele>
        <time>2008-10-05T09:14:06Z</time>
      </trkpt>
      <trkpt lat="43.22717" lon="6.49172">
        <ele>179.391251</ele>
        <time>2008-10-05T09:14:07Z</time>
      </trkpt>
      <trkpt lat="43.22712" lon="6.49159">
        <ele>181.307129</ele>
        <time>2008-10-05T09:14:24Z</time>
      </trkpt>
      <trkpt lat="43.22712" lon="6.49155">
        <ele>181.816711</ele>
        <time>2008-10-05T09:14:30Z</time>
      </trkpt>
      <trkpt lat="43.22712" lon="6.4915">
        <ele>182.328369</ele>
        <time>2008-10-05T09:14:36Z</time>
      </trkpt>
      <trkpt lat="43.22712" lon="6.49146">
        <ele>182.842087</ele>
        <time>2008-10-05T09:14:42Z</time>
      </trkpt>
      <trkpt lat="43.22712" lon="6.4914">
        <ele>183.616516</ele>
        <time>2008-10-05T09:14:48Z</time>
      </trkpt>
      <trkpt lat="43.2271" lon="6.49135">
        <ele>184.197556</ele>
        <time>2008-10-05T09:14:54Z</time>
      </trkpt>
      <trkpt lat="43.2271" lon="6.49129">
        <ele>184.999619</ele>
        <time>2008-10-05T09:15:00Z</time>
      </trkpt>
      <trkpt lat="43.22708" lon="6.49118">
        <ele>186.460983</ele>
        <time>2008-10-05T09:15:12Z</time>
      </trkpt>
      <trkpt lat="43.22708" lon="6.49112">
        <ele>187.295303</ele>
        <time>2008-10-05T09:15:18Z</time>
      </trkpt>
      <trkpt lat="43.22706" lon="6.49112">
        <ele>187.428558</ele>
        <time>2008-10-05T09:15:24Z</time>
      </trkpt>
      <trkpt lat="43.22691" lon="6.4909">
        <ele>189.636002</ele>
        <time>2008-10-05T09:15:45Z</time>
      </trkpt>
      <trkpt lat="43.22687" lon="6.49088">
        <ele>188.90567</ele>
        <time>2008-10-05T09:15:47Z</time>
      </trkpt>
      <trkpt lat="43.22672" lon="6.49069">
        <ele>188.744095</ele>
        <time>2008-10-05T09:16:00Z</time>
      </trkpt>
      <trkpt lat="43.22665" lon="6.4906">
        <ele>189.369186</ele>
        <time>2008-10-05T09:16:06Z</time>
      </trkpt>
      <trkpt lat="43.22659" lon="6.49052">
        <ele>190.391342</ele>
        <time>2008-10-05T09:16:12Z</time>
      </trkpt>
      <trkpt lat="43.22633" lon="6.49017">
        <ele>191.783371</ele>
        <time>2008-10-05T09:16:34Z</time>
      </trkpt>
      <trkpt lat="43.22631" lon="6.49011">
        <ele>192.681412</ele>
        <time>2008-10-05T09:16:36Z</time>
      </trkpt>
      <trkpt lat="43.22622" lon="6.49">
        <ele>193.65567</ele>
        <time>2008-10-05T09:16:42Z</time>
      </trkpt>
      <trkpt lat="43.22607" lon="6.48964">
        <ele>200.829315</ele>
        <time>2008-10-05T09:16:58Z</time>
      </trkpt>
      <trkpt lat="43.22605" lon="6.48957">
        <ele>200.974472</ele>
        <time>2008-10-05T09:17:00Z</time>
      </trkpt>
      <trkpt lat="43.22601" lon="6.48944">
        <ele>201.558273</ele>
        <time>2008-10-05T09:17:06Z</time>
      </trkpt>
      <trkpt lat="43.22569" lon="6.48884">
        <ele>205.995712</ele>
        <time>2008-10-05T09:17:32Z</time>
      </trkpt>
      <trkpt lat="43.22534" lon="6.48835">
        <ele>209.659424</ele>
        <time>2008-10-05T09:17:58Z</time>
      </trkpt>
      <trkpt lat="43.22509" lon="6.48798">
        <ele>218.337921</ele>
        <time>2008-10-05T09:18:23Z</time>
      </trkpt>
      <trkpt lat="43.22506" lon="6.48798">
        <ele>218.749542</ele>
        <time>2008-10-05T09:18:25Z</time>
      </trkpt>
      <trkpt lat="43.22504" lon="6.48798">
        <ele>219.161163</ele>
        <time>2008-10-05T09:18:29Z</time>
      </trkpt>
      <trkpt lat="43.22502" lon="6.48801">
        <ele>219.312027</ele>
        <time>2008-10-05T09:18:30Z</time>
      </trkpt>
      <trkpt lat="43.225" lon="6.48805">
        <ele>219.202148</ele>
        <time>2008-10-05T09:18:35Z</time>
      </trkpt>
      <trkpt lat="43.22487" lon="6.48811">
        <ele>220.889618</ele>
        <time>2008-10-05T09:18:54Z</time>
      </trkpt>
      <trkpt lat="43.22483" lon="6.48813">
        <ele>221.452103</ele>
        <time>2008-10-05T09:19:00Z</time>
      </trkpt>
      <trkpt lat="43.22481" lon="6.48809">
        <ele>222.330551</ele>
        <time>2008-10-05T09:19:03Z</time>
      </trkpt>
      <trkpt lat="43.22483" lon="6.48807">
        <ele>222.234344</ele>
        <time>2008-10-05T09:19:06Z</time>
      </trkpt>
      <trkpt lat="43.22485" lon="6.48801">
        <ele>222.60498</ele>
        <time>2008-10-05T09:19:11Z</time>
      </trkpt>
      <trkpt lat="43.22491" lon="6.48794">
        <ele>222.152359</ele>
        <time>2008-10-05T09:19:18Z</time>
      </trkpt>
      <trkpt lat="43.22494" lon="6.48775">
        <ele>224.061066</ele>
        <time>2008-10-05T09:19:42Z</time>
      </trkpt>
      <trkpt lat="43.22494" lon="6.48775">
        <ele>224.061066</ele>
        <time>2008-10-05T09:19:44Z</time>
      </trkpt>
      <trkpt lat="43.22491" lon="6.48773">
        <ele>224.715073</ele>
        <time>2008-10-05T09:19:46Z</time>
      </trkpt>
      <trkpt lat="43.22494" lon="6.48768">
        <ele>224.748123</ele>
        <time>2008-10-05T09:19:50Z</time>
      </trkpt>
      <trkpt lat="43.22491" lon="6.48762">
        <ele>225.898514</ele>
        <time>2008-10-05T09:19:55Z</time>
      </trkpt>
      <trkpt lat="43.22491" lon="6.48758">
        <ele>226.375488</ele>
        <time>2008-10-05T09:19:59Z</time>
      </trkpt>
      <trkpt lat="43.22489" lon="6.48751">
        <ele>227.585709</ele>
        <time>2008-10-05T09:20:05Z</time>
      </trkpt>
      <trkpt lat="43.22476" lon="6.48747">
        <ele>230.414688</ele>
        <time>2008-10-05T09:20:23Z</time>
      </trkpt>
      <trkpt lat="43.22464" lon="6.48745">
        <ele>232.565033</ele>
        <time>2008-10-05T09:20:37Z</time>
      </trkpt>
      <trkpt lat="43.22461" lon="6.48743">
        <ele>233.169388</ele>
        <time>2008-10-05T09:20:40Z</time>
      </trkpt>
      <trkpt lat="43.22446" lon="6.48732">
        <ele>236.944611</ele>
        <time>2008-10-05T09:20:59Z</time>
      </trkpt>
      <trkpt lat="43.2244" lon="6.48726">
        <ele>238.907318</ele>
        <time>2008-10-05T09:21:10Z</time>
      </trkpt>
      <trkpt lat="43.22425" lon="6.48713">
        <ele>241.350021</ele>
        <time>2008-10-05T09:21:28Z</time>
      </trkpt>
      <trkpt lat="43.22423" lon="6.4871">
        <ele>241.718842</ele>
        <time>2008-10-05T09:21:30Z</time>
      </trkpt>
      <trkpt lat="43.22421" lon="6.48708">
        <ele>242.017975</ele>
        <time>2008-10-05T09:21:33Z</time>
      </trkpt>
      <trkpt lat="43.22418" lon="6.48706">
        <ele>242.296005</ele>
        <time>2008-10-05T09:21:35Z</time>
      </trkpt>
      <trkpt lat="43.22414" lon="6.48706">
        <ele>242.463974</ele>
        <time>2008-10-05T09:21:54Z</time>
      </trkpt>
      <trkpt lat="43.22408" lon="6.487">
        <ele>243.325821</ele>
        <time>2008-10-05T09:22:05Z</time>
      </trkpt>
      <trkpt lat="43.22399" lon="6.48685">
        <ele>245.15416</ele>
        <time>2008-10-05T09:22:18Z</time>
      </trkpt>
      <trkpt lat="43.22371" lon="6.48657">
        <ele>249.095581</ele>
        <time>2008-10-05T09:22:33Z</time>
      </trkpt>
      <trkpt lat="43.22363" lon="6.48644">
        <ele>249.797836</ele>
        <time>2008-10-05T09:22:41Z</time>
      </trkpt>
      <trkpt lat="43.22354" lon="6.48631">
        <ele>250.995682</ele>
        <time>2008-10-05T09:22:48Z</time>
      </trkpt>
      <trkpt lat="43.22296" lon="6.48571">
        <ele>257.062408</ele>
        <time>2008-10-05T09:22:59Z</time>
      </trkpt>
      <trkpt lat="43.22281" lon="6.48571">
        <ele>257.541962</ele>
        <time>2008-10-05T09:23:06Z</time>
      </trkpt>
      <trkpt lat="43.22279" lon="6.48571">
        <ele>257.614319</ele>
        <time>2008-10-05T09:23:12Z</time>
      </trkpt>
      <trkpt lat="43.22279" lon="6.48571">
        <ele>257.614319</ele>
        <time>2008-10-05T09:23:16Z</time>
      </trkpt>
      <trkpt lat="43.22279" lon="6.48571">
        <ele>257.614319</ele>
        <time>2008-10-05T09:23:18Z</time>
      </trkpt>
      <trkpt lat="43.22277" lon="6.48567">
        <ele>257.829987</ele>
        <time>2008-10-05T09:23:23Z</time>
      </trkpt>
      <trkpt lat="43.22277" lon="6.48565">
        <ele>257.900391</ele>
        <time>2008-10-05T09:23:24Z</time>
      </trkpt>
      <trkpt lat="43.22277" lon="6.48558">
        <ele>258.10849</ele>
        <time>2008-10-05T09:23:27Z</time>
      </trkpt>
      <trkpt lat="43.22279" lon="6.48537">
        <ele>258.801636</ele>
        <time>2008-10-05T09:23:35Z</time>
      </trkpt>
      <trkpt lat="43.22273" lon="6.48496">
        <ele>260.376099</ele>
        <time>2008-10-05T09:23:51Z</time>
      </trkpt>
      <trkpt lat="43.2227" lon="6.48481">
        <ele>261.221497</ele>
        <time>2008-10-05T09:23:57Z</time>
      </trkpt>
      <trkpt lat="43.2226" lon="6.48432">
        <ele>265.436981</ele>
        <time>2008-10-05T09:24:19Z</time>
      </trkpt>
      <trkpt lat="43.22255" lon="6.48395">
        <ele>268.267365</ele>
        <time>2008-10-05T09:24:37Z</time>
      </trkpt>
      <trkpt lat="43.22249" lon="6.48376">
        <ele>269.243896</ele>
        <time>2008-10-05T09:24:47Z</time>
      </trkpt>
      <trkpt lat="43.22245" lon="6.48371">
        <ele>269.339325</ele>
        <time>2008-10-05T09:24:51Z</time>
      </trkpt>
      <trkpt lat="43.22238" lon="6.48367">
        <ele>269.349091</ele>
        <time>2008-10-05T09:24:54Z</time>
      </trkpt>
      <trkpt lat="43.22212" lon="6.48331">
        <ele>270.884033</ele>
        <time>2008-10-05T09:25:18Z</time>
      </trkpt>
      <trkpt lat="43.22204" lon="6.48314">
        <ele>271.336761</ele>
        <time>2008-10-05T09:25:27Z</time>
      </trkpt>
      <trkpt lat="43.22208" lon="6.48307">
        <ele>271.587402</ele>
        <time>2008-10-05T09:25:32Z</time>
      </trkpt>
      <trkpt lat="43.22215" lon="6.48292">
        <ele>272.22821</ele>
        <time>2008-10-05T09:25:39Z</time>
      </trkpt>
      <trkpt lat="43.22217" lon="6.48286">
        <ele>272.523438</ele>
        <time>2008-10-05T09:25:41Z</time>
      </trkpt>
      <trkpt lat="43.22217" lon="6.48245">
        <ele>274.208649</ele>
        <time>2008-10-05T09:25:58Z</time>
      </trkpt>
      <trkpt lat="43.22217" lon="6.48243">
        <ele>274.309601</ele>
        <time>2008-10-05T09:25:59Z</time>
      </trkpt>
      <trkpt lat="43.22223" lon="6.48234">
        <ele>275.022278</ele>
        <time>2008-10-05T09:26:06Z</time>
      </trkpt>
      <trkpt lat="43.22227" lon="6.4823">
        <ele>275.430084</ele>
        <time>2008-10-05T09:26:09Z</time>
      </trkpt>
      <trkpt lat="43.22268" lon="6.4817">
        <ele>278.658356</ele>
        <time>2008-10-05T09:26:35Z</time>
      </trkpt>
      <trkpt lat="43.22281" lon="6.48153">
        <ele>278.911133</ele>
        <time>2008-10-05T09:26:41Z</time>
      </trkpt>
      <trkpt lat="43.22292" lon="6.4815">
        <ele>278.941437</ele>
        <time>2008-10-05T09:26:44Z</time>
      </trkpt>
      <trkpt lat="43.223" lon="6.4815">
        <ele>278.951508</ele>
        <time>2008-10-05T09:26:46Z</time>
      </trkpt>
      <trkpt lat="43.22309" lon="6.48146">
        <ele>279.031311</ele>
        <time>2008-10-05T09:26:49Z</time>
      </trkpt>
      <trkpt lat="43.22322" lon="6.48153">
        <ele>278.941772</ele>
        <time>2008-10-05T09:26:55Z</time>
      </trkpt>
      <trkpt lat="43.22326" lon="6.48161">
        <ele>278.807312</ele>
        <time>2008-10-05T09:26:57Z</time>
      </trkpt>
      <trkpt lat="43.2233" lon="6.48172">
        <ele>278.604706</ele>
        <time>2008-10-05T09:27:00Z</time>
      </trkpt>
      <trkpt lat="43.22348" lon="6.48243">
        <ele>276.479919</ele>
        <time>2008-10-05T09:27:19Z</time>
      </trkpt>
      <trkpt lat="43.22393" lon="6.4817">
        <ele>278.371368</ele>
        <time>2008-10-05T09:27:25Z</time>
      </trkpt>
      <trkpt lat="43.22399" lon="6.48168">
        <ele>278.446381</ele>
        <time>2008-10-05T09:27:27Z</time>
      </trkpt>
      <trkpt lat="43.22408" lon="6.48159">
        <ele>278.82608</ele>
        <time>2008-10-05T09:27:30Z</time>
      </trkpt>
      <trkpt lat="43.22418" lon="6.48153">
        <ele>279.13269</ele>
        <time>2008-10-05T09:27:34Z</time>
      </trkpt>
      <trkpt lat="43.22438" lon="6.48127">
        <ele>279.833496</ele>
        <time>2008-10-05T09:27:44Z</time>
      </trkpt>
      <trkpt lat="43.22442" lon="6.4812">
        <ele>279.970154</ele>
        <time>2008-10-05T09:27:47Z</time>
      </trkpt>
      <trkpt lat="43.22446" lon="6.48116">
        <ele>280.000916</ele>
        <time>2008-10-05T09:27:49Z</time>
      </trkpt>
      <trkpt lat="43.22451" lon="6.48114">
        <ele>279.934937</ele>
        <time>2008-10-05T09:27:51Z</time>
      </trkpt>
      <trkpt lat="43.22468" lon="6.48125">
        <ele>278.807343</ele>
        <time>2008-10-05T09:27:55Z</time>
      </trkpt>
      <trkpt lat="43.22479" lon="6.48129">
        <ele>277.973907</ele>
        <time>2008-10-05T09:27:58Z</time>
      </trkpt>
      <trkpt lat="43.22487" lon="6.48129">
        <ele>277.407349</ele>
        <time>2008-10-05T09:28:01Z</time>
      </trkpt>
      <trkpt lat="43.22494" lon="6.48144">
        <ele>276.788055</ele>
        <time>2008-10-05T09:28:05Z</time>
      </trkpt>
      <trkpt lat="43.22502" lon="6.48159">
        <ele>276.217102</ele>
        <time>2008-10-05T09:28:09Z</time>
      </trkpt>
      <trkpt lat="43.22511" lon="6.48172">
        <ele>276.060822</ele>
        <time>2008-10-05T09:28:13Z</time>
      </trkpt>
      <trkpt lat="43.22513" lon="6.48183">
        <ele>276.037994</ele>
        <time>2008-10-05T09:28:16Z</time>
      </trkpt>
      <trkpt lat="43.22515" lon="6.48187">
        <ele>276.103973</ele>
        <time>2008-10-05T09:28:17Z</time>
      </trkpt>
      <trkpt lat="43.22521" lon="6.48219">
        <ele>276.190826</ele>
        <time>2008-10-05T09:28:24Z</time>
      </trkpt>
      <trkpt lat="43.22526" lon="6.48241">
        <ele>275.350037</ele>
        <time>2008-10-05T09:28:29Z</time>
      </trkpt>
      <trkpt lat="43.2253" lon="6.48286">
        <ele>272.603241</ele>
        <time>2008-10-05T09:28:40Z</time>
      </trkpt>
      <trkpt lat="43.2253" lon="6.48296">
        <ele>271.988892</ele>
        <time>2008-10-05T09:28:43Z</time>
      </trkpt>
      <trkpt lat="43.22532" lon="6.48316">
        <ele>271.084534</ele>
        <time>2008-10-05T09:28:48Z</time>
      </trkpt>
      <trkpt lat="43.22534" lon="6.4838">
        <ele>266.773376</ele>
        <time>2008-10-05T09:29:02Z</time>
      </trkpt>
      <trkpt lat="43.22534" lon="6.48391">
        <ele>265.900696</ele>
        <time>2008-10-05T09:29:04Z</time>
      </trkpt>
      <trkpt lat="43.22534" lon="6.4841">
        <ele>264.337952</ele>
        <time>2008-10-05T09:29:08Z</time>
      </trkpt>
      <trkpt lat="43.22528" lon="6.48432">
        <ele>262.966888</ele>
        <time>2008-10-05T09:29:12Z</time>
      </trkpt>
      <trkpt lat="43.22502" lon="6.48507">
        <ele>259.068695</ele>
        <time>2008-10-05T09:29:27Z</time>
      </trkpt>
      <trkpt lat="43.22504" lon="6.48513">
        <ele>258.913544</ele>
        <time>2008-10-05T09:29:29Z</time>
      </trkpt>
      <trkpt lat="43.22509" lon="6.4852">
        <ele>258.810394</ele>
        <time>2008-10-05T09:29:31Z</time>
      </trkpt>
      <trkpt lat="43.22511" lon="6.48532">
        <ele>258.302246</ele>
        <time>2008-10-05T09:29:34Z</time>
      </trkpt>
      <trkpt lat="43.22515" lon="6.48541">
        <ele>256.985565</ele>
        <time>2008-10-05T09:29:37Z</time>
      </trkpt>
      <trkpt lat="43.22526" lon="6.48554">
        <ele>254.908188</ele>
        <time>2008-10-05T09:29:42Z</time>
      </trkpt>
      <trkpt lat="43.22545" lon="6.48565">
        <ele>251.69223</ele>
        <time>2008-10-05T09:29:49Z</time>
      </trkpt>
      <trkpt lat="43.2256" lon="6.48565">
        <ele>249.566772</ele>
        <time>2008-10-05T09:29:54Z</time>
      </trkpt>
      <trkpt lat="43.22592" lon="6.48554">
        <ele>246.993668</ele>
        <time>2008-10-05T09:30:04Z</time>
      </trkpt>
      <trkpt lat="43.22597" lon="6.48552">
        <ele>246.735672</ele>
        <time>2008-10-05T09:30:05Z</time>
      </trkpt>
      <trkpt lat="43.22601" lon="6.48552">
        <ele>246.052155</ele>
        <time>2008-10-05T09:30:06Z</time>
      </trkpt>
      <trkpt lat="43.2262" lon="6.48547">
        <ele>243.770813</ele>
        <time>2008-10-05T09:30:11Z</time>
      </trkpt>
      <trkpt lat="43.22648" lon="6.48537">
        <ele>237.872681</ele>
        <time>2008-10-05T09:30:18Z</time>
      </trkpt>
      <trkpt lat="43.22659" lon="6.48528">
        <ele>235.273193</ele>
        <time>2008-10-05T09:30:21Z</time>
      </trkpt>
      <trkpt lat="43.22665" lon="6.48522">
        <ele>233.782791</ele>
        <time>2008-10-05T09:30:23Z</time>
      </trkpt>
      <trkpt lat="43.2267" lon="6.48517">
        <ele>232.772034</ele>
        <time>2008-10-05T09:30:24Z</time>
      </trkpt>
      <trkpt lat="43.22693" lon="6.48496">
        <ele>227.58255</ele>
        <time>2008-10-05T09:30:30Z</time>
      </trkpt>
      <trkpt lat="43.22704" lon="6.48489">
        <ele>225.408249</ele>
        <time>2008-10-05T09:30:33Z</time>
      </trkpt>
      <trkpt lat="43.22723" lon="6.48477">
        <ele>222.256363</ele>
        <time>2008-10-05T09:30:38Z</time>
      </trkpt>
      <trkpt lat="43.22732" lon="6.48472">
        <ele>220.788147</ele>
        <time>2008-10-05T09:30:40Z</time>
      </trkpt>
      <trkpt lat="43.22738" lon="6.4847">
        <ele>219.524628</ele>
        <time>2008-10-05T09:30:42Z</time>
      </trkpt>
      <trkpt lat="43.22742" lon="6.48479">
        <ele>217.359863</ele>
        <time>2008-10-05T09:30:48Z</time>
      </trkpt>
      <trkpt lat="43.22742" lon="6.48481">
        <ele>217.078293</ele>
        <time>2008-10-05T09:30:49Z</time>
      </trkpt>
      <trkpt lat="43.22742" lon="6.48485">
        <ele>216.515518</ele>
        <time>2008-10-05T09:30:52Z</time>
      </trkpt>
      <trkpt lat="43.22742" lon="6.48487">
        <ele>216.210526</ele>
        <time>2008-10-05T09:30:53Z</time>
      </trkpt>
      <trkpt lat="43.22753" lon="6.48494">
        <ele>212.339386</ele>
        <time>2008-10-05T09:30:58Z</time>
      </trkpt>
      <trkpt lat="43.22755" lon="6.48492">
        <ele>212.300613</ele>
        <time>2008-10-05T09:30:59Z</time>
      </trkpt>
      <trkpt lat="43.2276" lon="6.48492">
        <ele>211.290634</ele>
        <time>2008-10-05T09:31:02Z</time>
      </trkpt>
      <trkpt lat="43.22762" lon="6.48492">
        <ele>210.78746</ele>
        <time>2008-10-05T09:31:03Z</time>
      </trkpt>
      <trkpt lat="43.2277" lon="6.48485">
        <ele>209.788879</ele>
        <time>2008-10-05T09:31:08Z</time>
      </trkpt>
      <trkpt lat="43.22781" lon="6.48481">
        <ele>207.63829</ele>
        <time>2008-10-05T09:31:13Z</time>
      </trkpt>
      <trkpt lat="43.22788" lon="6.48479">
        <ele>206.324783</ele>
        <time>2008-10-05T09:31:16Z</time>
      </trkpt>
      <trkpt lat="43.22794" lon="6.48479">
        <ele>204.723969</ele>
        <time>2008-10-05T09:31:18Z</time>
      </trkpt>
      <trkpt lat="43.22803" lon="6.48479">
        <ele>202.596298</ele>
        <time>2008-10-05T09:31:22Z</time>
      </trkpt>
      <trkpt lat="43.22805" lon="6.48479">
        <ele>202.065567</ele>
        <time>2008-10-05T09:31:23Z</time>
      </trkpt>
      <trkpt lat="43.22807" lon="6.48479">
        <ele>201.535339</ele>
        <time>2008-10-05T09:31:24Z</time>
      </trkpt>
      <trkpt lat="43.22815" lon="6.48481">
        <ele>199.085037</ele>
        <time>2008-10-05T09:31:29Z</time>
      </trkpt>
      <trkpt lat="43.22824" lon="6.48474">
        <ele>197.866348</ele>
        <time>2008-10-05T09:31:35Z</time>
      </trkpt>
      <trkpt lat="43.22835" lon="6.48462">
        <ele>196.791763</ele>
        <time>2008-10-05T09:31:41Z</time>
      </trkpt>
      <trkpt lat="43.22848" lon="6.48436">
        <ele>196.319092</ele>
        <time>2008-10-05T09:31:48Z</time>
      </trkpt>
      <trkpt lat="43.22843" lon="6.48378">
        <ele>198.348312</ele>
        <time>2008-10-05T09:31:55Z</time>
      </trkpt>
      <trkpt lat="43.22845" lon="6.48369">
        <ele>197.599731</ele>
        <time>2008-10-05T09:31:56Z</time>
      </trkpt>
      <trkpt lat="43.22848" lon="6.48363">
        <ele>196.710693</ele>
        <time>2008-10-05T09:31:57Z</time>
      </trkpt>
      <trkpt lat="43.22854" lon="6.48346">
        <ele>194.083847</ele>
        <time>2008-10-05T09:32:00Z</time>
      </trkpt>
      <trkpt lat="43.22863" lon="6.48333">
        <ele>190.383453</ele>
        <time>2008-10-05T09:32:03Z</time>
      </trkpt>
      <trkpt lat="43.22871" lon="6.48322">
        <ele>185.736237</ele>
        <time>2008-10-05T09:32:06Z</time>
      </trkpt>
      <trkpt lat="43.22875" lon="6.48318">
        <ele>183.348358</ele>
        <time>2008-10-05T09:32:07Z</time>
      </trkpt>
      <trkpt lat="43.22882" lon="6.48303">
        <ele>180.806488</ele>
        <time>2008-10-05T09:32:10Z</time>
      </trkpt>
      <trkpt lat="43.22893" lon="6.48288">
        <ele>177.602203</ele>
        <time>2008-10-05T09:32:13Z</time>
      </trkpt>
      <trkpt lat="43.22897" lon="6.48286">
        <ele>175.996185</ele>
        <time>2008-10-05T09:32:14Z</time>
      </trkpt>
      <trkpt lat="43.22901" lon="6.48286">
        <ele>174.098663</ele>
        <time>2008-10-05T09:32:15Z</time>
      </trkpt>
      <trkpt lat="43.22908" lon="6.48288">
        <ele>171.050064</ele>
        <time>2008-10-05T09:32:17Z</time>
      </trkpt>
      <trkpt lat="43.22914" lon="6.4829">
        <ele>168.95105</ele>
        <time>2008-10-05T09:32:19Z</time>
      </trkpt>
      <trkpt lat="43.22921" lon="6.4829">
        <ele>167.241516</ele>
        <time>2008-10-05T09:32:21Z</time>
      </trkpt>
      <trkpt lat="43.22946" lon="6.48292">
        <ele>159.976639</ele>
        <time>2008-10-05T09:32:26Z</time>
      </trkpt>
      <trkpt lat="43.22968" lon="6.48294">
        <ele>156.256638</ele>
        <time>2008-10-05T09:32:30Z</time>
      </trkpt>
      <trkpt lat="43.22955" lon="6.48281">
        <ele>161.127121</ele>
        <time>2008-10-05T09:32:33Z</time>
      </trkpt>
      <trkpt lat="43.22948" lon="6.48275">
        <ele>163.926559</ele>
        <time>2008-10-05T09:32:35Z</time>
      </trkpt>
      <trkpt lat="43.22903" lon="6.48204">
        <ele>175.953339</ele>
        <time>2008-10-05T09:32:50Z</time>
      </trkpt>
      <trkpt lat="43.2285" lon="6.48142">
        <ele>184.174576</ele>
        <time>2008-10-05T09:33:08Z</time>
      </trkpt>
      <trkpt lat="43.22828" lon="6.48112">
        <ele>188.088577</ele>
        <time>2008-10-05T09:33:21Z</time>
      </trkpt>
      <trkpt lat="43.22807" lon="6.48075">
        <ele>192.625977</ele>
        <time>2008-10-05T09:33:36Z</time>
      </trkpt>
      <trkpt lat="43.228" lon="6.4806">
        <ele>194.285965</ele>
        <time>2008-10-05T09:33:41Z</time>
      </trkpt>
      <trkpt lat="43.22798" lon="6.48054">
        <ele>195.466476</ele>
        <time>2008-10-05T09:33:43Z</time>
      </trkpt>
      <trkpt lat="43.22798" lon="6.48043">
        <ele>195.667038</ele>
        <time>2008-10-05T09:33:47Z</time>
      </trkpt>
      <trkpt lat="43.22798" lon="6.48022">
        <ele>195.991119</ele>
        <time>2008-10-05T09:33:54Z</time>
      </trkpt>
      <trkpt lat="43.22798" lon="6.47996">
        <ele>195.823563</ele>
        <time>2008-10-05T09:34:05Z</time>
      </trkpt>
      <trkpt lat="43.22798" lon="6.47983">
        <ele>194.016479</ele>
        <time>2008-10-05T09:34:12Z</time>
      </trkpt>
      <trkpt lat="43.22796" lon="6.47972">
        <ele>193.082321</ele>
        <time>2008-10-05T09:34:17Z</time>
      </trkpt>
      <trkpt lat="43.22792" lon="6.47964">
        <ele>192.934784</ele>
        <time>2008-10-05T09:34:23Z</time>
      </trkpt>
      <trkpt lat="43.22783" lon="6.47947">
        <ele>192.062592</ele>
        <time>2008-10-05T09:34:35Z</time>
      </trkpt>
      <trkpt lat="43.2277" lon="6.47938">
        <ele>192.186768</ele>
        <time>2008-10-05T09:34:41Z</time>
      </trkpt>
      <trkpt lat="43.22764" lon="6.47936">
        <ele>192.591034</ele>
        <time>2008-10-05T09:34:42Z</time>
      </trkpt>
      <trkpt lat="43.22747" lon="6.47919">
        <ele>190.279892</ele>
        <time>2008-10-05T09:34:45Z</time>
      </trkpt>
      <trkpt lat="43.22742" lon="6.47912">
        <ele>189.069489</ele>
        <time>2008-10-05T09:34:46Z</time>
      </trkpt>
      <trkpt lat="43.22717" lon="6.47897">
        <ele>189.527908</ele>
        <time>2008-10-05T09:34:51Z</time>
      </trkpt>
      <trkpt lat="43.22691" lon="6.47884">
        <ele>191.958099</ele>
        <time>2008-10-05T09:34:56Z</time>
      </trkpt>
      <trkpt lat="43.2268" lon="6.47865">
        <ele>191.486038</ele>
        <time>2008-10-05T09:34:59Z</time>
      </trkpt>
      <trkpt lat="43.22678" lon="6.47861">
        <ele>191.382538</ele>
        <time>2008-10-05T09:35:00Z</time>
      </trkpt>
      <trkpt lat="43.22674" lon="6.47846">
        <ele>189.898041</ele>
        <time>2008-10-05T09:35:03Z</time>
      </trkpt>
      <trkpt lat="43.22624" lon="6.47777">
        <ele>189.339355</ele>
        <time>2008-10-05T09:35:27Z</time>
      </trkpt>
      <trkpt lat="43.22601" lon="6.47756">
        <ele>190.486435</ele>
        <time>2008-10-05T09:35:40Z</time>
      </trkpt>
      <trkpt lat="43.22597" lon="6.47753">
        <ele>191.324905</ele>
        <time>2008-10-05T09:35:42Z</time>
      </trkpt>
      <trkpt lat="43.22584" lon="6.47734">
        <ele>192.03476</ele>
        <time>2008-10-05T09:35:54Z</time>
      </trkpt>
      <trkpt lat="43.2256" lon="6.47717">
        <ele>199.315567</ele>
        <time>2008-10-05T09:36:11Z</time>
      </trkpt>
      <trkpt lat="43.22539" lon="6.47696">
        <ele>203.425354</ele>
        <time>2008-10-05T09:36:23Z</time>
      </trkpt>
      <trkpt lat="43.22526" lon="6.47646">
        <ele>205.704773</ele>
        <time>2008-10-05T09:36:42Z</time>
      </trkpt>
      <trkpt lat="43.22524" lon="6.47644">
        <ele>205.435562</ele>
        <time>2008-10-05T09:37:00Z</time>
      </trkpt>
      <trkpt lat="43.22534" lon="6.47657">
        <ele>204.76767</ele>
        <time>2008-10-05T09:37:40Z</time>
      </trkpt>
      <trkpt lat="43.2253" lon="6.47663">
        <ele>204.828903</ele>
        <time>2008-10-05T09:41:44Z</time>
      </trkpt>
      <trkpt lat="43.2253" lon="6.47666">
        <ele>204.724091</ele>
        <time>2008-10-05T09:44:34Z</time>
      </trkpt>
      <trkpt lat="43.2253" lon="6.47666">
        <ele>204.724091</ele>
        <time>2008-10-05T09:46:30Z</time>
      </trkpt>
      <trkpt lat="43.22519" lon="6.47663">
        <ele>204.553055</ele>
        <time>2008-10-05T09:46:38Z</time>
      </trkpt>
      <trkpt lat="43.22517" lon="6.47666">
        <ele>204.303452</ele>
        <time>2008-10-05T09:46:41Z</time>
      </trkpt>
      <trkpt lat="43.22513" lon="6.4767">
        <ele>203.865997</ele>
        <time>2008-10-05T09:46:46Z</time>
      </trkpt>
      <trkpt lat="43.22513" lon="6.47672">
        <ele>203.935745</ele>
        <time>2008-10-05T09:47:12Z</time>
      </trkpt>
      <trkpt lat="43.22513" lon="6.47683">
        <ele>204.511307</ele>
        <time>2008-10-05T09:47:17Z</time>
      </trkpt>
      <trkpt lat="43.22511" lon="6.47691">
        <ele>204.843857</ele>
        <time>2008-10-05T09:47:21Z</time>
      </trkpt>
      <trkpt lat="43.22504" lon="6.47708">
        <ele>205.583755</ele>
        <time>2008-10-05T09:47:29Z</time>
      </trkpt>
      <trkpt lat="43.22502" lon="6.47721">
        <ele>206.35791</ele>
        <time>2008-10-05T09:47:35Z</time>
      </trkpt>
      <trkpt lat="43.22502" lon="6.47723">
        <ele>206.495422</ele>
        <time>2008-10-05T09:47:36Z</time>
      </trkpt>
      <trkpt lat="43.22498" lon="6.47736">
        <ele>207.671097</ele>
        <time>2008-10-05T09:47:42Z</time>
      </trkpt>
      <trkpt lat="43.22496" lon="6.47747">
        <ele>209.044495</ele>
        <time>2008-10-05T09:47:47Z</time>
      </trkpt>
      <trkpt lat="43.22491" lon="6.47781">
        <ele>213.327942</ele>
        <time>2008-10-05T09:48:04Z</time>
      </trkpt>
      <trkpt lat="43.22489" lon="6.47784">
        <ele>213.535583</ele>
        <time>2008-10-05T09:48:05Z</time>
      </trkpt>
      <trkpt lat="43.22487" lon="6.47788">
        <ele>214.00087</ele>
        <time>2008-10-05T09:48:08Z</time>
      </trkpt>
      <trkpt lat="43.22481" lon="6.47805">
        <ele>218.141037</ele>
        <time>2008-10-05T09:48:17Z</time>
      </trkpt>
      <trkpt lat="43.22468" lon="6.47822">
        <ele>222.356873</ele>
        <time>2008-10-05T09:48:29Z</time>
      </trkpt>
      <trkpt lat="43.22459" lon="6.47844">
        <ele>228.263443</ele>
        <time>2008-10-05T09:48:42Z</time>
      </trkpt>
      <trkpt lat="43.22455" lon="6.47848">
        <ele>229.322296</ele>
        <time>2008-10-05T09:48:48Z</time>
      </trkpt>
      <trkpt lat="43.22448" lon="6.4785">
        <ele>229.587479</ele>
        <time>2008-10-05T09:48:54Z</time>
      </trkpt>
      <trkpt lat="43.22436" lon="6.47856">
        <ele>231.142731</ele>
        <time>2008-10-05T09:49:06Z</time>
      </trkpt>
      <trkpt lat="43.22429" lon="6.47859">
        <ele>231.598557</ele>
        <time>2008-10-05T09:49:24Z</time>
      </trkpt>
      <trkpt lat="43.22423" lon="6.47865">
        <ele>233.395676</ele>
        <time>2008-10-05T09:49:27Z</time>
      </trkpt>
      <trkpt lat="43.22416" lon="6.47867">
        <ele>233.523987</ele>
        <time>2008-10-05T09:49:31Z</time>
      </trkpt>
      <trkpt lat="43.22382" lon="6.47882">
        <ele>235.566437</ele>
        <time>2008-10-05T09:49:49Z</time>
      </trkpt>
      <trkpt lat="43.22373" lon="6.47887">
        <ele>236.273499</ele>
        <time>2008-10-05T09:49:53Z</time>
      </trkpt>
      <trkpt lat="43.22361" lon="6.47893">
        <ele>237.166077</ele>
        <time>2008-10-05T09:50:01Z</time>
      </trkpt>
      <trkpt lat="43.22356" lon="6.47895">
        <ele>237.418808</ele>
        <time>2008-10-05T09:50:04Z</time>
      </trkpt>
      <trkpt lat="43.22345" lon="6.47902">
        <ele>238.317795</ele>
        <time>2008-10-05T09:50:12Z</time>
      </trkpt>
      <trkpt lat="43.22339" lon="6.47904">
        <ele>238.205673</ele>
        <time>2008-10-05T09:50:17Z</time>
      </trkpt>
      <trkpt lat="43.22335" lon="6.47906">
        <ele>238.482986</ele>
        <time>2008-10-05T09:50:19Z</time>
      </trkpt>
      <trkpt lat="43.22292" lon="6.47927">
        <ele>240.790878</ele>
        <time>2008-10-05T09:50:43Z</time>
      </trkpt>
      <trkpt lat="43.22285" lon="6.47932">
        <ele>241.23645</ele>
        <time>2008-10-05T09:50:46Z</time>
      </trkpt>
      <trkpt lat="43.22279" lon="6.47934">
        <ele>240.930847</ele>
        <time>2008-10-05T09:50:49Z</time>
      </trkpt>
      <trkpt lat="43.22275" lon="6.47938">
        <ele>241.631516</ele>
        <time>2008-10-05T09:50:52Z</time>
      </trkpt>
      <trkpt lat="43.22273" lon="6.4794">
        <ele>241.971558</ele>
        <time>2008-10-05T09:50:53Z</time>
      </trkpt>
      <trkpt lat="43.2226" lon="6.47951">
        <ele>243.200882</ele>
        <time>2008-10-05T09:51:02Z</time>
      </trkpt>
      <trkpt lat="43.22251" lon="6.47953">
        <ele>242.377655</ele>
        <time>2008-10-05T09:51:05Z</time>
      </trkpt>
      <trkpt lat="43.22225" lon="6.47964">
        <ele>242.087738</ele>
        <time>2008-10-05T09:51:15Z</time>
      </trkpt>
      <trkpt lat="43.22215" lon="6.47968">
        <ele>242.016968</ele>
        <time>2008-10-05T09:51:19Z</time>
      </trkpt>
      <trkpt lat="43.22212" lon="6.4797">
        <ele>242.411728</ele>
        <time>2008-10-05T09:51:20Z</time>
      </trkpt>
      <trkpt lat="43.222" lon="6.47979">
        <ele>243.279327</ele>
        <time>2008-10-05T09:51:24Z</time>
      </trkpt>
      <trkpt lat="43.22131" lon="6.48013">
        <ele>235.999924</ele>
        <time>2008-10-05T09:51:50Z</time>
      </trkpt>
      <trkpt lat="43.22127" lon="6.4802">
        <ele>236.105408</ele>
        <time>2008-10-05T09:51:53Z</time>
      </trkpt>
      <trkpt lat="43.22112" lon="6.48047">
        <ele>237.162766</ele>
        <time>2008-10-05T09:52:06Z</time>
      </trkpt>
      <trkpt lat="43.22101" lon="6.48071">
        <ele>238.526825</ele>
        <time>2008-10-05T09:52:18Z</time>
      </trkpt>
      <trkpt lat="43.22101" lon="6.4808">
        <ele>239.935165</ele>
        <time>2008-10-05T09:52:21Z</time>
      </trkpt>
      <trkpt lat="43.22103" lon="6.48086">
        <ele>241.593079</ele>
        <time>2008-10-05T09:52:25Z</time>
      </trkpt>
      <trkpt lat="43.22109" lon="6.48103">
        <ele>246.76973</ele>
        <time>2008-10-05T09:52:50Z</time>
      </trkpt>
      <trkpt lat="43.22112" lon="6.48114">
        <ele>249.400131</ele>
        <time>2008-10-05T09:53:00Z</time>
      </trkpt>
      <trkpt lat="43.22112" lon="6.48125">
        <ele>251.17421</ele>
        <time>2008-10-05T09:53:06Z</time>
      </trkpt>
      <trkpt lat="43.22112" lon="6.48127">
        <ele>251.529404</ele>
        <time>2008-10-05T09:53:07Z</time>
      </trkpt>
      <trkpt lat="43.22116" lon="6.48133">
        <ele>254.360611</ele>
        <time>2008-10-05T09:53:12Z</time>
      </trkpt>
      <trkpt lat="43.22118" lon="6.48144">
        <ele>256.604706</ele>
        <time>2008-10-05T09:53:20Z</time>
      </trkpt>
      <trkpt lat="43.22118" lon="6.48148">
        <ele>257.122589</ele>
        <time>2008-10-05T09:53:23Z</time>
      </trkpt>
      <trkpt lat="43.22118" lon="6.4817">
        <ele>259.634979</ele>
        <time>2008-10-05T09:53:36Z</time>
      </trkpt>
      <trkpt lat="43.22118" lon="6.4818">
        <ele>260.843018</ele>
        <time>2008-10-05T09:53:42Z</time>
      </trkpt>
      <trkpt lat="43.22116" lon="6.48189">
        <ele>261.321442</ele>
        <time>2008-10-05T09:53:49Z</time>
      </trkpt>
      <trkpt lat="43.22114" lon="6.48191">
        <ele>261.124756</ele>
        <time>2008-10-05T09:53:51Z</time>
      </trkpt>
      <trkpt lat="43.22112" lon="6.48191">
        <ele>260.681274</ele>
        <time>2008-10-05T09:53:52Z</time>
      </trkpt>
      <trkpt lat="43.22112" lon="6.48191">
        <ele>260.681274</ele>
        <time>2008-10-05T09:53:53Z</time>
      </trkpt>
      <trkpt lat="43.22109" lon="6.48191">
        <ele>260.240204</ele>
        <time>2008-10-05T09:53:56Z</time>
      </trkpt>
      <trkpt lat="43.22107" lon="6.48191">
        <ele>259.801514</ele>
        <time>2008-10-05T09:53:57Z</time>
      </trkpt>
      <trkpt lat="43.22028" lon="6.48178">
        <ele>242.352798</ele>
        <time>2008-10-05T09:54:12Z</time>
      </trkpt>
      <trkpt lat="43.22032" lon="6.48187">
        <ele>244.774979</ele>
        <time>2008-10-05T09:54:13Z</time>
      </trkpt>
      <trkpt lat="43.22019" lon="6.48183">
        <ele>242.032776</ele>
        <time>2008-10-05T09:54:14Z</time>
      </trkpt>
      <trkpt lat="43.21991" lon="6.48185">
        <ele>237.306488</ele>
        <time>2008-10-05T09:54:24Z</time>
      </trkpt>
      <trkpt lat="43.21987" lon="6.48176">
        <ele>234.756256</ele>
        <time>2008-10-05T09:54:27Z</time>
      </trkpt>
      <trkpt lat="43.21985" lon="6.48172">
        <ele>233.512238</ele>
        <time>2008-10-05T09:54:29Z</time>
      </trkpt>
      <trkpt lat="43.21979" lon="6.48168">
        <ele>231.475189</ele>
        <time>2008-10-05T09:54:32Z</time>
      </trkpt>
      <trkpt lat="43.21979" lon="6.48165">
        <ele>231.081955</ele>
        <time>2008-10-05T09:54:33Z</time>
      </trkpt>
      <trkpt lat="43.21974" lon="6.48161">
        <ele>229.509872</ele>
        <time>2008-10-05T09:54:35Z</time>
      </trkpt>
      <trkpt lat="43.21966" lon="6.4815">
        <ele>226.085419</ele>
        <time>2008-10-05T09:54:40Z</time>
      </trkpt>
      <trkpt lat="43.21961" lon="6.48144">
        <ele>224.189011</ele>
        <time>2008-10-05T09:54:43Z</time>
      </trkpt>
      <trkpt lat="43.21968" lon="6.48144">
        <ele>225.397537</ele>
        <time>2008-10-05T09:54:45Z</time>
      </trkpt>
      <trkpt lat="43.2197" lon="6.48142">
        <ele>225.384537</ele>
        <time>2008-10-05T09:54:46Z</time>
      </trkpt>
      <trkpt lat="43.21968" lon="6.48135">
        <ele>223.943176</ele>
        <time>2008-10-05T09:54:48Z</time>
      </trkpt>
      <trkpt lat="43.21966" lon="6.48131">
        <ele>222.840103</ele>
        <time>2008-10-05T09:54:51Z</time>
      </trkpt>
      <trkpt lat="43.21961" lon="6.48129">
        <ele>221.739944</ele>
        <time>2008-10-05T09:54:53Z</time>
      </trkpt>
      <trkpt lat="43.21953" lon="6.48118">
        <ele>218.499588</ele>
        <time>2008-10-05T09:54:57Z</time>
      </trkpt>
      <trkpt lat="43.21946" lon="6.48114">
        <ele>216.74147</ele>
        <time>2008-10-05T09:54:59Z</time>
      </trkpt>
      <trkpt lat="43.21934" lon="6.4811">
        <ele>214.088104</ele>
        <time>2008-10-05T09:55:05Z</time>
      </trkpt>
      <trkpt lat="43.21931" lon="6.4811">
        <ele>213.763412</ele>
        <time>2008-10-05T09:55:06Z</time>
      </trkpt>
      <trkpt lat="43.21927" lon="6.48108">
        <ele>212.80896</ele>
        <time>2008-10-05T09:55:08Z</time>
      </trkpt>
      <trkpt lat="43.21923" lon="6.48105">
        <ele>211.788193</ele>
        <time>2008-10-05T09:55:11Z</time>
      </trkpt>
      <trkpt lat="43.21918" lon="6.48103">
        <ele>210.56131</ele>
        <time>2008-10-05T09:55:14Z</time>
      </trkpt>
      <trkpt lat="43.2191" lon="6.48097">
        <ele>207.895889</ele>
        <time>2008-10-05T09:55:18Z</time>
      </trkpt>
      <trkpt lat="43.21908" lon="6.48097">
        <ele>207.440872</ele>
        <time>2008-10-05T09:55:19Z</time>
      </trkpt>
      <trkpt lat="43.21903" lon="6.48093">
        <ele>206.031921</ele>
        <time>2008-10-05T09:55:22Z</time>
      </trkpt>
      <trkpt lat="43.21901" lon="6.4809">
        <ele>205.341888</ele>
        <time>2008-10-05T09:55:23Z</time>
      </trkpt>
      <trkpt lat="43.21891" lon="6.4808">
        <ele>202.035965</ele>
        <time>2008-10-05T09:55:29Z</time>
      </trkpt>
      <trkpt lat="43.21888" lon="6.48077">
        <ele>201.403641</ele>
        <time>2008-10-05T09:55:30Z</time>
      </trkpt>
      <trkpt lat="43.21876" lon="6.48065">
        <ele>197.716782</ele>
        <time>2008-10-05T09:55:36Z</time>
      </trkpt>
      <trkpt lat="43.21867" lon="6.48058">
        <ele>195.475876</ele>
        <time>2008-10-05T09:55:39Z</time>
      </trkpt>
      <trkpt lat="43.21856" lon="6.48056">
        <ele>193.198517</ele>
        <time>2008-10-05T09:55:43Z</time>
      </trkpt>
      <trkpt lat="43.21843" lon="6.48052">
        <ele>190.358337</ele>
        <time>2008-10-05T09:55:48Z</time>
      </trkpt>
      <trkpt lat="43.21837" lon="6.48045">
        <ele>188.640961</ele>
        <time>2008-10-05T09:55:52Z</time>
      </trkpt>
      <trkpt lat="43.21831" lon="6.48043">
        <ele>187.613068</ele>
        <time>2008-10-05T09:55:54Z</time>
      </trkpt>
      <trkpt lat="43.2182" lon="6.48035">
        <ele>185.885101</ele>
        <time>2008-10-05T09:55:57Z</time>
      </trkpt>
      <trkpt lat="43.21813" lon="6.4805">
        <ele>185.425262</ele>
        <time>2008-10-05T09:56:04Z</time>
      </trkpt>
      <trkpt lat="43.21813" lon="6.48054">
        <ele>185.569595</ele>
        <time>2008-10-05T09:56:05Z</time>
      </trkpt>
      <trkpt lat="43.21809" lon="6.48095">
        <ele>186.38974</ele>
        <time>2008-10-05T09:56:14Z</time>
      </trkpt>
      <trkpt lat="43.21809" lon="6.48101">
        <ele>186.63324</ele>
        <time>2008-10-05T09:56:15Z</time>
      </trkpt>
      <trkpt lat="43.21809" lon="6.48112">
        <ele>187.044189</ele>
        <time>2008-10-05T09:56:17Z</time>
      </trkpt>
      <trkpt lat="43.21783" lon="6.4811">
        <ele>182.986694</ele>
        <time>2008-10-05T09:56:23Z</time>
      </trkpt>
      <trkpt lat="43.21781" lon="6.48108">
        <ele>182.91832</ele>
        <time>2008-10-05T09:56:24Z</time>
      </trkpt>
      <trkpt lat="43.21738" lon="6.48086">
        <ele>180.72496</ele>
        <time>2008-10-05T09:56:35Z</time>
      </trkpt>
      <trkpt lat="43.21642" lon="6.48058">
        <ele>177.648758</ele>
        <time>2008-10-05T09:56:58Z</time>
      </trkpt>
      <trkpt lat="43.21633" lon="6.48056">
        <ele>176.744629</ele>
        <time>2008-10-05T09:57:00Z</time>
      </trkpt>
      <trkpt lat="43.21616" lon="6.48043">
        <ele>174.581863</ele>
        <time>2008-10-05T09:57:05Z</time>
      </trkpt>
      <trkpt lat="43.21616" lon="6.48026">
        <ele>172.735397</ele>
        <time>2008-10-05T09:57:08Z</time>
      </trkpt>
      <trkpt lat="43.21616" lon="6.4802">
        <ele>171.858215</ele>
        <time>2008-10-05T09:57:09Z</time>
      </trkpt>
      <trkpt lat="43.21605" lon="6.47996">
        <ele>168.01239</ele>
        <time>2008-10-05T09:57:13Z</time>
      </trkpt>
      <trkpt lat="43.21582" lon="6.4797">
        <ele>164.187851</ele>
        <time>2008-10-05T09:57:20Z</time>
      </trkpt>
      <trkpt lat="43.21577" lon="6.47957">
        <ele>162.106644</ele>
        <time>2008-10-05T09:57:22Z</time>
      </trkpt>
      <trkpt lat="43.21573" lon="6.47942">
        <ele>159.750061</ele>
        <time>2008-10-05T09:57:26Z</time>
      </trkpt>
      <trkpt lat="43.21569" lon="6.47938">
        <ele>158.60817</ele>
        <time>2008-10-05T09:57:28Z</time>
      </trkpt>
      <trkpt lat="43.21564" lon="6.47938">
        <ele>157.560196</ele>
        <time>2008-10-05T09:57:30Z</time>
      </trkpt>
      <trkpt lat="43.21558" lon="6.47938">
        <ele>155.986435</ele>
        <time>2008-10-05T09:57:33Z</time>
      </trkpt>
      <trkpt lat="43.21547" lon="6.47942">
        <ele>153.992996</ele>
        <time>2008-10-05T09:57:37Z</time>
      </trkpt>
      <trkpt lat="43.21532" lon="6.47951">
        <ele>151.504517</ele>
        <time>2008-10-05T09:57:42Z</time>
      </trkpt>
      <trkpt lat="43.21522" lon="6.47957">
        <ele>149.593552</ele>
        <time>2008-10-05T09:57:46Z</time>
      </trkpt>
      <trkpt lat="43.21513" lon="6.47964">
        <ele>148.096588</ele>
        <time>2008-10-05T09:57:49Z</time>
      </trkpt>
      <trkpt lat="43.21507" lon="6.47968">
        <ele>146.806549</ele>
        <time>2008-10-05T09:57:51Z</time>
      </trkpt>
      <trkpt lat="43.21498" lon="6.47974">
        <ele>144.258698</ele>
        <time>2008-10-05T09:57:54Z</time>
      </trkpt>
      <trkpt lat="43.21489" lon="6.47979">
        <ele>141.654785</ele>
        <time>2008-10-05T09:57:57Z</time>
      </trkpt>
      <trkpt lat="43.21474" lon="6.47987">
        <ele>137.175598</ele>
        <time>2008-10-05T09:58:02Z</time>
      </trkpt>
      <trkpt lat="43.2147" lon="6.4799">
        <ele>136.002396</ele>
        <time>2008-10-05T09:58:03Z</time>
      </trkpt>
      <trkpt lat="43.21461" lon="6.47994">
        <ele>133.521515</ele>
        <time>2008-10-05T09:58:06Z</time>
      </trkpt>
      <trkpt lat="43.21459" lon="6.47994">
        <ele>132.941666</ele>
        <time>2008-10-05T09:58:07Z</time>
      </trkpt>
      <trkpt lat="43.21449" lon="6.47996">
        <ele>129.834488</ele>
        <time>2008-10-05T09:58:11Z</time>
      </trkpt>
      <trkpt lat="43.2144" lon="6.47998">
        <ele>127.206657</ele>
        <time>2008-10-05T09:58:14Z</time>
      </trkpt>
      <trkpt lat="43.21431" lon="6.47998">
        <ele>124.706833</ele>
        <time>2008-10-05T09:58:17Z</time>
      </trkpt>
      <trkpt lat="43.21416" lon="6.47996">
        <ele>120.384422</ele>
        <time>2008-10-05T09:58:23Z</time>
      </trkpt>
      <trkpt lat="43.2141" lon="6.47994">
        <ele>118.733383</ele>
        <time>2008-10-05T09:58:25Z</time>
      </trkpt>
      <trkpt lat="43.21401" lon="6.4799">
        <ele>116.8181</ele>
        <time>2008-10-05T09:58:28Z</time>
      </trkpt>
      <trkpt lat="43.21399" lon="6.47985">
        <ele>116.897751</ele>
        <time>2008-10-05T09:58:29Z</time>
      </trkpt>
      <trkpt lat="43.21382" lon="6.47968">
        <ele>114.544777</ele>
        <time>2008-10-05T09:58:36Z</time>
      </trkpt>
      <trkpt lat="43.21376" lon="6.47957">
        <ele>114.256279</ele>
        <time>2008-10-05T09:58:38Z</time>
      </trkpt>
      <trkpt lat="43.21365" lon="6.4794">
        <ele>111.687347</ele>
        <time>2008-10-05T09:58:42Z</time>
      </trkpt>
      <trkpt lat="43.21352" lon="6.47934">
        <ele>108.566254</ele>
        <time>2008-10-05T09:58:47Z</time>
      </trkpt>
      <trkpt lat="43.21339" lon="6.47917">
        <ele>107.01403</ele>
        <time>2008-10-05T09:58:52Z</time>
      </trkpt>
      <trkpt lat="43.21335" lon="6.47914">
        <ele>106.109192</ele>
        <time>2008-10-05T09:58:53Z</time>
      </trkpt>
      <trkpt lat="43.21318" lon="6.47902">
        <ele>103.627983</ele>
        <time>2008-10-05T09:58:57Z</time>
      </trkpt>
      <trkpt lat="43.21309" lon="6.47893">
        <ele>103.159836</ele>
        <time>2008-10-05T09:59:00Z</time>
      </trkpt>
      <trkpt lat="43.21292" lon="6.47878">
        <ele>99.456535</ele>
        <time>2008-10-05T09:59:05Z</time>
      </trkpt>
      <trkpt lat="43.21285" lon="6.47865">
        <ele>98.889893</ele>
        <time>2008-10-05T09:59:07Z</time>
      </trkpt>
      <trkpt lat="43.21281" lon="6.47841">
        <ele>100.865517</ele>
        <time>2008-10-05T09:59:10Z</time>
      </trkpt>
      <trkpt lat="43.21275" lon="6.47818">
        <ele>101.22599</ele>
        <time>2008-10-05T09:59:13Z</time>
      </trkpt>
      <trkpt lat="43.21273" lon="6.47805">
        <ele>100.511314</ele>
        <time>2008-10-05T09:59:15Z</time>
      </trkpt>
      <trkpt lat="43.2127" lon="6.47792">
        <ele>100.039581</ele>
        <time>2008-10-05T09:59:17Z</time>
      </trkpt>
      <trkpt lat="43.21268" lon="6.47786">
        <ele>99.865089</ele>
        <time>2008-10-05T09:59:18Z</time>
      </trkpt>
      <trkpt lat="43.21268" lon="6.47779">
        <ele>99.810776</ele>
        <time>2008-10-05T09:59:19Z</time>
      </trkpt>
      <trkpt lat="43.2126" lon="6.47756">
        <ele>97.969444</ele>
        <time>2008-10-05T09:59:23Z</time>
      </trkpt>
      <trkpt lat="43.21255" lon="6.47749">
        <ele>96.21093</ele>
        <time>2008-10-05T09:59:24Z</time>
      </trkpt>
      <trkpt lat="43.21245" lon="6.47734">
        <ele>92.865089</ele>
        <time>2008-10-05T09:59:28Z</time>
      </trkpt>
      <trkpt lat="43.21223" lon="6.47702">
        <ele>90.053383</ele>
        <time>2008-10-05T09:59:35Z</time>
      </trkpt>
      <trkpt lat="43.21213" lon="6.477">
        <ele>88.853348</ele>
        <time>2008-10-05T09:59:38Z</time>
      </trkpt>
      <trkpt lat="43.21204" lon="6.47702">
        <ele>87.388008</ele>
        <time>2008-10-05T09:59:40Z</time>
      </trkpt>
      <trkpt lat="43.21198" lon="6.47704">
        <ele>86.206146</ele>
        <time>2008-10-05T09:59:42Z</time>
      </trkpt>
      <trkpt lat="43.21187" lon="6.47704">
        <ele>84.392929</ele>
        <time>2008-10-05T09:59:45Z</time>
      </trkpt>
      <trkpt lat="43.21182" lon="6.47702">
        <ele>83.832748</ele>
        <time>2008-10-05T09:59:46Z</time>
      </trkpt>
      <trkpt lat="43.21176" lon="6.47698">
        <ele>83.132477</ele>
        <time>2008-10-05T09:59:48Z</time>
      </trkpt>
      <trkpt lat="43.21165" lon="6.47696">
        <ele>81.058731</ele>
        <time>2008-10-05T09:59:51Z</time>
      </trkpt>
      <trkpt lat="43.21161" lon="6.47696">
        <ele>80.200142</ele>
        <time>2008-10-05T09:59:52Z</time>
      </trkpt>
      <trkpt lat="43.21148" lon="6.47696">
        <ele>77.59642</ele>
        <time>2008-10-05T09:59:56Z</time>
      </trkpt>
      <trkpt lat="43.2114" lon="6.47693">
        <ele>75.903793</ele>
        <time>2008-10-05T09:59:59Z</time>
      </trkpt>
      <trkpt lat="43.21137" lon="6.47693">
        <ele>75.473404</ele>
        <time>2008-10-05T10:00:00Z</time>
      </trkpt>
      <trkpt lat="43.21133" lon="6.47693">
        <ele>74.6119</ele>
        <time>2008-10-05T10:00:02Z</time>
      </trkpt>
      <trkpt lat="43.21131" lon="6.47693">
        <ele>74.180786</ele>
        <time>2008-10-05T10:00:03Z</time>
      </trkpt>
      <trkpt lat="43.2112" lon="6.47696">
        <ele>71.819717</ele>
        <time>2008-10-05T10:00:07Z</time>
      </trkpt>
      <trkpt lat="43.21107" lon="6.47698">
        <ele>68.96077</ele>
        <time>2008-10-05T10:00:11Z</time>
      </trkpt>
      <trkpt lat="43.21105" lon="6.477">
        <ele>68.323631</ele>
        <time>2008-10-05T10:00:12Z</time>
      </trkpt>
      <trkpt lat="43.21092" lon="6.47708">
        <ele>64.886368</ele>
        <time>2008-10-05T10:00:17Z</time>
      </trkpt>
      <trkpt lat="43.21088" lon="6.47715">
        <ele>63.419315</ele>
        <time>2008-10-05T10:00:19Z</time>
      </trkpt>
      <trkpt lat="43.21084" lon="6.47719">
        <ele>62.161114</ele>
        <time>2008-10-05T10:00:22Z</time>
      </trkpt>
      <trkpt lat="43.21079" lon="6.47721">
        <ele>61.267998</ele>
        <time>2008-10-05T10:00:24Z</time>
      </trkpt>
      <trkpt lat="43.21077" lon="6.47723">
        <ele>60.733925</ele>
        <time>2008-10-05T10:00:25Z</time>
      </trkpt>
      <trkpt lat="43.21071" lon="6.47726">
        <ele>59.526569</ele>
        <time>2008-10-05T10:00:27Z</time>
      </trkpt>
      <trkpt lat="43.21058" lon="6.47719">
        <ele>57.966545</ele>
        <time>2008-10-05T10:00:30Z</time>
      </trkpt>
      <trkpt lat="43.21037" lon="6.47711">
        <ele>55.053059</ele>
        <time>2008-10-05T10:00:37Z</time>
      </trkpt>
      <trkpt lat="43.2103" lon="6.47706">
        <ele>54.317055</ele>
        <time>2008-10-05T10:00:39Z</time>
      </trkpt>
      <trkpt lat="43.21024" lon="6.47702">
        <ele>53.562786</ele>
        <time>2008-10-05T10:00:41Z</time>
      </trkpt>
      <trkpt lat="43.21004" lon="6.47687">
        <ele>51.289234</ele>
        <time>2008-10-05T10:00:47Z</time>
      </trkpt>
      <trkpt lat="43.20996" lon="6.47683">
        <ele>50.060062</ele>
        <time>2008-10-05T10:00:50Z</time>
      </trkpt>
      <trkpt lat="43.20983" lon="6.47676">
        <ele>48.715145</ele>
        <time>2008-10-05T10:00:54Z</time>
      </trkpt>
      <trkpt lat="43.20951" lon="6.47642">
        <ele>46.155121</ele>
        <time>2008-10-05T10:01:05Z</time>
      </trkpt>
      <trkpt lat="43.20869" lon="6.47515">
        <ele>43.769733</ele>
        <time>2008-10-05T10:01:36Z</time>
      </trkpt>
      <trkpt lat="43.20867" lon="6.47511">
        <ele>43.651787</ele>
        <time>2008-10-05T10:01:37Z</time>
      </trkpt>
      <trkpt lat="43.20843" lon="6.47502">
        <ele>41.752773</ele>
        <time>2008-10-05T10:01:42Z</time>
      </trkpt>
      <trkpt lat="43.20841" lon="6.47496">
        <ele>41.593636</ele>
        <time>2008-10-05T10:01:43Z</time>
      </trkpt>
      <trkpt lat="43.20824" lon="6.47468">
        <ele>40.64957</ele>
        <time>2008-10-05T10:01:48Z</time>
      </trkpt>
      <trkpt lat="43.20822" lon="6.47464">
        <ele>40.682003</ele>
        <time>2008-10-05T10:01:50Z</time>
      </trkpt>
      <trkpt lat="43.2082" lon="6.47462">
        <ele>40.653194</ele>
        <time>2008-10-05T10:01:53Z</time>
      </trkpt>
      <trkpt lat="43.20798" lon="6.47406">
        <ele>40.659302</ele>
        <time>2008-10-05T10:02:08Z</time>
      </trkpt>
      <trkpt lat="43.20732" lon="6.47256">
        <ele>37.409958</ele>
        <time>2008-10-05T10:02:37Z</time>
      </trkpt>
      <trkpt lat="43.20713" lon="6.47202">
        <ele>37.51149</ele>
        <time>2008-10-05T10:02:46Z</time>
      </trkpt>
      <trkpt lat="43.20695" lon="6.47146">
        <ele>37.212593</ele>
        <time>2008-10-05T10:02:56Z</time>
      </trkpt>
      <trkpt lat="43.20687" lon="6.4712">
        <ele>36.952934</ele>
        <time>2008-10-05T10:03:00Z</time>
      </trkpt>
      <trkpt lat="43.20683" lon="6.47103">
        <ele>36.803673</ele>
        <time>2008-10-05T10:03:03Z</time>
      </trkpt>
      <trkpt lat="43.20674" lon="6.47082">
        <ele>36.096752</ele>
        <time>2008-10-05T10:03:07Z</time>
      </trkpt>
      <trkpt lat="43.2067" lon="6.47065">
        <ele>35.820415</ele>
        <time>2008-10-05T10:03:11Z</time>
      </trkpt>
      <trkpt lat="43.20683" lon="6.4705">
        <ele>37.446362</ele>
        <time>2008-10-05T10:03:15Z</time>
      </trkpt>
      <trkpt lat="43.20687" lon="6.47041">
        <ele>37.877457</ele>
        <time>2008-10-05T10:03:17Z</time>
      </trkpt>
      <trkpt lat="43.20702" lon="6.46994">
        <ele>38.625225</ele>
        <time>2008-10-05T10:03:26Z</time>
      </trkpt>
      <trkpt lat="43.20713" lon="6.46992">
        <ele>39.780746</ele>
        <time>2008-10-05T10:03:30Z</time>
      </trkpt>
      <trkpt lat="43.20717" lon="6.46992">
        <ele>40.35376</ele>
        <time>2008-10-05T10:03:31Z</time>
      </trkpt>
      <trkpt lat="43.20734" lon="6.46996">
        <ele>42.769909</ele>
        <time>2008-10-05T10:03:36Z</time>
      </trkpt>
      <trkpt lat="43.20747" lon="6.46964">
        <ele>42.989704</ele>
        <time>2008-10-05T10:03:44Z</time>
      </trkpt>
      <trkpt lat="43.20749" lon="6.4696">
        <ele>43.014133</ele>
        <time>2008-10-05T10:03:45Z</time>
      </trkpt>
      <trkpt lat="43.20751" lon="6.46951">
        <ele>42.806908</ele>
        <time>2008-10-05T10:03:47Z</time>
      </trkpt>
      <trkpt lat="43.20766" lon="6.46923">
        <ele>43.150658</ele>
        <time>2008-10-05T10:03:53Z</time>
      </trkpt>
      <trkpt lat="43.20775" lon="6.4693">
        <ele>44.633293</ele>
        <time>2008-10-05T10:03:56Z</time>
      </trkpt>
      <trkpt lat="43.20781" lon="6.46932">
        <ele>45.599098</ele>
        <time>2008-10-05T10:03:59Z</time>
      </trkpt>
      <trkpt lat="43.2079" lon="6.46938">
        <ele>47.13797</ele>
        <time>2008-10-05T10:04:03Z</time>
      </trkpt>
      <trkpt lat="43.20794" lon="6.46942">
        <ele>47.994804</ele>
        <time>2008-10-05T10:04:06Z</time>
      </trkpt>
      <trkpt lat="43.20803" lon="6.46947">
        <ele>49.457989</ele>
        <time>2008-10-05T10:04:11Z</time>
      </trkpt>
      <trkpt lat="43.20813" lon="6.46947">
        <ele>50.941525</ele>
        <time>2008-10-05T10:04:17Z</time>
      </trkpt>
      <trkpt lat="43.2082" lon="6.46938">
        <ele>51.093212</ele>
        <time>2008-10-05T10:04:20Z</time>
      </trkpt>
      <trkpt lat="43.20831" lon="6.46908">
        <ele>50.013149</ele>
        <time>2008-10-05T10:04:28Z</time>
      </trkpt>
      <trkpt lat="43.20841" lon="6.46863">
        <ele>47.649548</ele>
        <time>2008-10-05T10:04:41Z</time>
      </trkpt>
      <trkpt lat="43.20848" lon="6.46857">
        <ele>47.899456</ele>
        <time>2008-10-05T10:04:43Z</time>
      </trkpt>
      <trkpt lat="43.20852" lon="6.46852">
        <ele>48.208797</ele>
        <time>2008-10-05T10:04:45Z</time>
      </trkpt>
      <trkpt lat="43.20882" lon="6.4682">
        <ele>49.813457</ele>
        <time>2008-10-05T10:04:57Z</time>
      </trkpt>
      <trkpt lat="43.20897" lon="6.46809">
        <ele>50.878811</ele>
        <time>2008-10-05T10:05:03Z</time>
      </trkpt>
      <trkpt lat="43.20906" lon="6.46805">
        <ele>51.748848</ele>
        <time>2008-10-05T10:05:06Z</time>
      </trkpt>
      <trkpt lat="43.20921" lon="6.46792">
        <ele>52.682854</ele>
        <time>2008-10-05T10:05:12Z</time>
      </trkpt>
      <trkpt lat="43.20931" lon="6.46779">
        <ele>52.893177</ele>
        <time>2008-10-05T10:05:17Z</time>
      </trkpt>
      <trkpt lat="43.2094" lon="6.4676">
        <ele>52.065609</ele>
        <time>2008-10-05T10:05:23Z</time>
      </trkpt>
      <trkpt lat="43.20946" lon="6.46749">
        <ele>50.835445</ele>
        <time>2008-10-05T10:05:27Z</time>
      </trkpt>
      <trkpt lat="43.20953" lon="6.46745">
        <ele>50.21701</ele>
        <time>2008-10-05T10:05:29Z</time>
      </trkpt>
      <trkpt lat="43.20972" lon="6.46736">
        <ele>48.919933</ele>
        <time>2008-10-05T10:05:35Z</time>
      </trkpt>
      <trkpt lat="43.20983" lon="6.46745">
        <ele>49.936031</ele>
        <time>2008-10-05T10:05:38Z</time>
      </trkpt>
      <trkpt lat="43.20985" lon="6.46747">
        <ele>50.195072</ele>
        <time>2008-10-05T10:05:39Z</time>
      </trkpt>
      <trkpt lat="43.20996" lon="6.46769">
        <ele>51.417522</ele>
        <time>2008-10-05T10:05:44Z</time>
      </trkpt>
      <trkpt lat="43.21015" lon="6.46846">
        <ele>56.042255</ele>
        <time>2008-10-05T10:05:59Z</time>
      </trkpt>
      <trkpt lat="43.21022" lon="6.46925">
        <ele>61.682632</ele>
        <time>2008-10-05T10:06:15Z</time>
      </trkpt>
      <trkpt lat="43.21028" lon="6.46964">
        <ele>63.415142</ele>
        <time>2008-10-05T10:06:24Z</time>
      </trkpt>
      <trkpt lat="43.21028" lon="6.46987">
        <ele>65.462891</ele>
        <time>2008-10-05T10:06:30Z</time>
      </trkpt>
      <trkpt lat="43.21024" lon="6.47">
        <ele>67.637413</ele>
        <time>2008-10-05T10:06:35Z</time>
      </trkpt>
      <trkpt lat="43.21019" lon="6.47011">
        <ele>69.632622</ele>
        <time>2008-10-05T10:06:40Z</time>
      </trkpt>
      <trkpt lat="43.21017" lon="6.47013">
        <ele>70.339241</ele>
        <time>2008-10-05T10:06:41Z</time>
      </trkpt>
      <trkpt lat="43.21019" lon="6.4703">
        <ele>71.639099</ele>
        <time>2008-10-05T10:06:47Z</time>
      </trkpt>
      <trkpt lat="43.21024" lon="6.47056">
        <ele>73.301796</ele>
        <time>2008-10-05T10:06:57Z</time>
      </trkpt>
      <trkpt lat="43.21028" lon="6.47071">
        <ele>73.785439</ele>
        <time>2008-10-05T10:07:03Z</time>
      </trkpt>
      <trkpt lat="43.2103" lon="6.4708">
        <ele>73.912964</ele>
        <time>2008-10-05T10:07:06Z</time>
      </trkpt>
      <trkpt lat="43.21032" lon="6.47086">
        <ele>73.876472</ele>
        <time>2008-10-05T10:07:09Z</time>
      </trkpt>
      <trkpt lat="43.21047" lon="6.4711">
        <ele>72.13578</ele>
        <time>2008-10-05T10:07:19Z</time>
      </trkpt>
      <trkpt lat="43.21047" lon="6.4712">
        <ele>73.028992</ele>
        <time>2008-10-05T10:07:23Z</time>
      </trkpt>
      <trkpt lat="43.21047" lon="6.47135">
        <ele>74.302002</ele>
        <time>2008-10-05T10:07:28Z</time>
      </trkpt>
      <trkpt lat="43.21043" lon="6.47142">
        <ele>75.892967</ele>
        <time>2008-10-05T10:07:31Z</time>
      </trkpt>
      <trkpt lat="43.21041" lon="6.47146">
        <ele>76.758301</ele>
        <time>2008-10-05T10:07:33Z</time>
      </trkpt>
      <trkpt lat="43.21037" lon="6.47157">
        <ele>78.600586</ele>
        <time>2008-10-05T10:07:37Z</time>
      </trkpt>
      <trkpt lat="43.21034" lon="6.4717">
        <ele>80.118607</ele>
        <time>2008-10-05T10:07:41Z</time>
      </trkpt>
      <trkpt lat="43.21056" lon="6.47208">
        <ele>80.474838</ele>
        <time>2008-10-05T10:07:57Z</time>
      </trkpt>
      <trkpt lat="43.21075" lon="6.47238">
        <ele>80.995476</ele>
        <time>2008-10-05T10:08:12Z</time>
      </trkpt>
      <trkpt lat="43.21079" lon="6.47249">
        <ele>81.737404</ele>
        <time>2008-10-05T10:08:17Z</time>
      </trkpt>
      <trkpt lat="43.21088" lon="6.47284">
        <ele>83.218224</ele>
        <time>2008-10-05T10:08:30Z</time>
      </trkpt>
      <trkpt lat="43.21097" lon="6.47288">
        <ele>82.949852</ele>
        <time>2008-10-05T10:08:34Z</time>
      </trkpt>
      <trkpt lat="43.2111" lon="6.47294">
        <ele>82.016388</ele>
        <time>2008-10-05T10:08:41Z</time>
      </trkpt>
      <trkpt lat="43.21118" lon="6.47303">
        <ele>81.61438</ele>
        <time>2008-10-05T10:08:47Z</time>
      </trkpt>
      <trkpt lat="43.21131" lon="6.47339">
        <ele>82.505089</ele>
        <time>2008-10-05T10:09:00Z</time>
      </trkpt>
      <trkpt lat="43.21131" lon="6.4735">
        <ele>82.762291</ele>
        <time>2008-10-05T10:09:03Z</time>
      </trkpt>
      <trkpt lat="43.21144" lon="6.47402">
        <ele>83.209442</ele>
        <time>2008-10-05T10:09:17Z</time>
      </trkpt>
      <trkpt lat="43.2117" lon="6.47449">
        <ele>82.324501</ele>
        <time>2008-10-05T10:09:30Z</time>
      </trkpt>
      <trkpt lat="43.21208" lon="6.47578">
        <ele>82.670593</ele>
        <time>2008-10-05T10:09:49Z</time>
      </trkpt>
      <trkpt lat="43.21238" lon="6.47696">
        <ele>89.83493</ele>
        <time>2008-10-05T10:10:05Z</time>
      </trkpt>
      <trkpt lat="43.21264" lon="6.47711">
        <ele>91.992355</ele>
        <time>2008-10-05T10:10:09Z</time>
      </trkpt>
      <trkpt lat="43.21303" lon="6.47741">
        <ele>92.306602</ele>
        <time>2008-10-05T10:10:17Z</time>
      </trkpt>
      <trkpt lat="43.21354" lon="6.47792">
        <ele>97.604813</ele>
        <time>2008-10-05T10:10:30Z</time>
      </trkpt>
      <trkpt lat="43.21408" lon="6.47839">
        <ele>101.203278</ele>
        <time>2008-10-05T10:10:50Z</time>
      </trkpt>
      <trkpt lat="43.21427" lon="6.47859">
        <ele>105.091751</ele>
        <time>2008-10-05T10:10:59Z</time>
      </trkpt>
      <trkpt lat="43.21442" lon="6.47865">
        <ele>107.012932</ele>
        <time>2008-10-05T10:11:05Z</time>
      </trkpt>
      <trkpt lat="43.21444" lon="6.47844">
        <ele>99.631981</ele>
        <time>2008-10-05T10:11:11Z</time>
      </trkpt>
      <trkpt lat="43.21438" lon="6.4776">
        <ele>99.02388</ele>
        <time>2008-10-05T10:11:28Z</time>
      </trkpt>
      <trkpt lat="43.21416" lon="6.47681">
        <ele>100.000198</ele>
        <time>2008-10-05T10:11:49Z</time>
      </trkpt>
      <trkpt lat="43.21408" lon="6.47642">
        <ele>100.69426</ele>
        <time>2008-10-05T10:12:00Z</time>
      </trkpt>
      <trkpt lat="43.21408" lon="6.47625">
        <ele>99.622871</ele>
        <time>2008-10-05T10:12:05Z</time>
      </trkpt>
      <trkpt lat="43.21421" lon="6.47614">
        <ele>101.227394</ele>
        <time>2008-10-05T10:12:11Z</time>
      </trkpt>
      <trkpt lat="43.21425" lon="6.47612">
        <ele>101.805428</ele>
        <time>2008-10-05T10:12:13Z</time>
      </trkpt>
      <trkpt lat="43.21434" lon="6.4761">
        <ele>103.083504</ele>
        <time>2008-10-05T10:12:16Z</time>
      </trkpt>
      <trkpt lat="43.2144" lon="6.4761">
        <ele>104.161789</ele>
        <time>2008-10-05T10:12:19Z</time>
      </trkpt>
      <trkpt lat="43.21446" lon="6.4761">
        <ele>105.233597</ele>
        <time>2008-10-05T10:12:22Z</time>
      </trkpt>
      <trkpt lat="43.21498" lon="6.47627">
        <ele>112.680038</ele>
        <time>2008-10-05T10:12:47Z</time>
      </trkpt>
      <trkpt lat="43.21528" lon="6.47633">
        <ele>116.356285</ele>
        <time>2008-10-05T10:13:00Z</time>
      </trkpt>
      <trkpt lat="43.21554" lon="6.47629">
        <ele>116.952721</ele>
        <time>2008-10-05T10:13:12Z</time>
      </trkpt>
      <trkpt lat="43.21569" lon="6.47629">
        <ele>117.827553</ele>
        <time>2008-10-05T10:13:18Z</time>
      </trkpt>
      <trkpt lat="43.21579" lon="6.47631">
        <ele>119.007385</ele>
        <time>2008-10-05T10:13:24Z</time>
      </trkpt>
      <trkpt lat="43.21592" lon="6.47638">
        <ele>119.763412</ele>
        <time>2008-10-05T10:13:30Z</time>
      </trkpt>
      <trkpt lat="43.21614" lon="6.47663">
        <ele>124.062889</ele>
        <time>2008-10-05T10:13:43Z</time>
      </trkpt>
      <trkpt lat="43.2165" lon="6.47702">
        <ele>129.383774</ele>
        <time>2008-10-05T10:14:04Z</time>
      </trkpt>
      <trkpt lat="43.21652" lon="6.47704">
        <ele>129.619675</ele>
        <time>2008-10-05T10:14:05Z</time>
      </trkpt>
      <trkpt lat="43.21678" lon="6.4773">
        <ele>133.364944</ele>
        <time>2008-10-05T10:14:20Z</time>
      </trkpt>
      <trkpt lat="43.21693" lon="6.47745">
        <ele>136.266754</ele>
        <time>2008-10-05T10:14:30Z</time>
      </trkpt>
      <trkpt lat="43.21704" lon="6.47751">
        <ele>137.215027</ele>
        <time>2008-10-05T10:14:35Z</time>
      </trkpt>
      <trkpt lat="43.21712" lon="6.47743">
        <ele>134.021591</ele>
        <time>2008-10-05T10:14:40Z</time>
      </trkpt>
      <trkpt lat="43.21717" lon="6.47738">
        <ele>133.108307</ele>
        <time>2008-10-05T10:14:42Z</time>
      </trkpt>
      <trkpt lat="43.21723" lon="6.4773">
        <ele>131.860168</ele>
        <time>2008-10-05T10:14:46Z</time>
      </trkpt>
      <trkpt lat="43.2173" lon="6.47721">
        <ele>130.829208</ele>
        <time>2008-10-05T10:14:50Z</time>
      </trkpt>
      <trkpt lat="43.21736" lon="6.47719">
        <ele>131.182556</ele>
        <time>2008-10-05T10:14:53Z</time>
      </trkpt>
      <trkpt lat="43.21762" lon="6.47713">
        <ele>132.918106</ele>
        <time>2008-10-05T10:15:05Z</time>
      </trkpt>
      <trkpt lat="43.21773" lon="6.47715">
        <ele>133.808701</ele>
        <time>2008-10-05T10:15:11Z</time>
      </trkpt>
      <trkpt lat="43.21788" lon="6.47723">
        <ele>136.232483</ele>
        <time>2008-10-05T10:15:18Z</time>
      </trkpt>
      <trkpt lat="43.21826" lon="6.4776">
        <ele>143.100204</ele>
        <time>2008-10-05T10:15:41Z</time>
      </trkpt>
      <trkpt lat="43.21835" lon="6.47768">
        <ele>144.142426</ele>
        <time>2008-10-05T10:15:47Z</time>
      </trkpt>
      <trkpt lat="43.21843" lon="6.47777">
        <ele>145.030701</ele>
        <time>2008-10-05T10:15:53Z</time>
      </trkpt>
      <trkpt lat="43.21854" lon="6.4779">
        <ele>146.198578</ele>
        <time>2008-10-05T10:16:00Z</time>
      </trkpt>
      <trkpt lat="43.21861" lon="6.47811">
        <ele>149.702133</ele>
        <time>2008-10-05T10:16:09Z</time>
      </trkpt>
      <trkpt lat="43.21865" lon="6.47816">
        <ele>150.016235</ele>
        <time>2008-10-05T10:16:11Z</time>
      </trkpt>
      <trkpt lat="43.21891" lon="6.47841">
        <ele>152.454666</ele>
        <time>2008-10-05T10:16:28Z</time>
      </trkpt>
      <trkpt lat="43.21903" lon="6.47852">
        <ele>153.569046</ele>
        <time>2008-10-05T10:16:36Z</time>
      </trkpt>
      <trkpt lat="43.21923" lon="6.47863">
        <ele>154.061127</ele>
        <time>2008-10-05T10:16:48Z</time>
      </trkpt>
      <trkpt lat="43.21934" lon="6.47871">
        <ele>155.057419</ele>
        <time>2008-10-05T10:16:54Z</time>
      </trkpt>
      <trkpt lat="43.21942" lon="6.47882">
        <ele>156.94812</ele>
        <time>2008-10-05T10:17:00Z</time>
      </trkpt>
      <trkpt lat="43.21953" lon="6.47906">
        <ele>162.739151</ele>
        <time>2008-10-05T10:17:11Z</time>
      </trkpt>
      <trkpt lat="43.21966" lon="6.47919">
        <ele>165.331406</ele>
        <time>2008-10-05T10:17:18Z</time>
      </trkpt>
      <trkpt lat="43.21974" lon="6.47921">
        <ele>165.122223</ele>
        <time>2008-10-05T10:17:22Z</time>
      </trkpt>
      <trkpt lat="43.21979" lon="6.47921">
        <ele>165.323685</ele>
        <time>2008-10-05T10:17:25Z</time>
      </trkpt>
      <trkpt lat="43.21987" lon="6.47921">
        <ele>166.709625</ele>
        <time>2008-10-05T10:17:29Z</time>
      </trkpt>
      <trkpt lat="43.22013" lon="6.47902">
        <ele>164.724838</ele>
        <time>2008-10-05T10:17:44Z</time>
      </trkpt>
      <trkpt lat="43.22019" lon="6.47895">
        <ele>163.777679</ele>
        <time>2008-10-05T10:17:48Z</time>
      </trkpt>
      <trkpt lat="43.22043" lon="6.4788">
        <ele>166.538559</ele>
        <time>2008-10-05T10:18:00Z</time>
      </trkpt>
      <trkpt lat="43.22092" lon="6.47841">
        <ele>171.928146</ele>
        <time>2008-10-05T10:18:25Z</time>
      </trkpt>
      <trkpt lat="43.22101" lon="6.47833">
        <ele>171.938126</ele>
        <time>2008-10-05T10:18:30Z</time>
      </trkpt>
      <trkpt lat="43.2214" lon="6.47803">
        <ele>175.559799</ele>
        <time>2008-10-05T10:18:49Z</time>
      </trkpt>
      <trkpt lat="43.22174" lon="6.47777">
        <ele>175.173889</ele>
        <time>2008-10-05T10:19:08Z</time>
      </trkpt>
      <trkpt lat="43.2218" lon="6.47775">
        <ele>175.442978</ele>
        <time>2008-10-05T10:19:11Z</time>
      </trkpt>
      <trkpt lat="43.22191" lon="6.47771">
        <ele>175.58699</ele>
        <time>2008-10-05T10:19:17Z</time>
      </trkpt>
      <trkpt lat="43.22215" lon="6.47766">
        <ele>177.918259</ele>
        <time>2008-10-05T10:19:29Z</time>
      </trkpt>
      <trkpt lat="43.22232" lon="6.4776">
        <ele>178.721786</ele>
        <time>2008-10-05T10:19:38Z</time>
      </trkpt>
      <trkpt lat="43.2224" lon="6.47758">
        <ele>179.311401</ele>
        <time>2008-10-05T10:19:42Z</time>
      </trkpt>
      <trkpt lat="43.22253" lon="6.47756">
        <ele>180.424561</ele>
        <time>2008-10-05T10:19:48Z</time>
      </trkpt>
      <trkpt lat="43.2226" lon="6.47756">
        <ele>181.414505</ele>
        <time>2008-10-05T10:19:51Z</time>
      </trkpt>
      <trkpt lat="43.22262" lon="6.47756">
        <ele>181.742569</ele>
        <time>2008-10-05T10:19:52Z</time>
      </trkpt>
      <trkpt lat="43.22309" lon="6.47758">
        <ele>188.229767</ele>
        <time>2008-10-05T10:20:14Z</time>
      </trkpt>
      <trkpt lat="43.22337" lon="6.47762">
        <ele>190.805267</ele>
        <time>2008-10-05T10:20:27Z</time>
      </trkpt>
      <trkpt lat="43.22382" lon="6.47766">
        <ele>193.884842</ele>
        <time>2008-10-05T10:20:47Z</time>
      </trkpt>
      <trkpt lat="43.22442" lon="6.47764">
        <ele>202.852097</ele>
        <time>2008-10-05T10:21:15Z</time>
      </trkpt>
      <trkpt lat="43.22446" lon="6.47762">
        <ele>203.389404</ele>
        <time>2008-10-05T10:21:17Z</time>
      </trkpt>
      <trkpt lat="43.22457" lon="6.4776">
        <ele>205.523819</ele>
        <time>2008-10-05T10:21:22Z</time>
      </trkpt>
      <trkpt lat="43.22457" lon="6.47758">
        <ele>205.149048</ele>
        <time>2008-10-05T10:21:23Z</time>
      </trkpt>
      <trkpt lat="43.22466" lon="6.47749">
        <ele>205.956558</ele>
        <time>2008-10-05T10:21:29Z</time>
      </trkpt>
      <trkpt lat="43.22472" lon="6.47736">
        <ele>205.909592</ele>
        <time>2008-10-05T10:21:35Z</time>
      </trkpt>
      <trkpt lat="43.22476" lon="6.47721">
        <ele>205.43576</ele>
        <time>2008-10-05T10:21:42Z</time>
      </trkpt>
      <trkpt lat="43.22485" lon="6.47693">
        <ele>203.692505</ele>
        <time>2008-10-05T10:21:53Z</time>
      </trkpt>
      <trkpt lat="43.22494" lon="6.47683">
        <ele>203.238968</ele>
        <time>2008-10-05T10:21:59Z</time>
      </trkpt>
      <trkpt lat="43.22513" lon="6.47668">
        <ele>203.868332</ele>
        <time>2008-10-05T10:22:11Z</time>
      </trkpt>
      <trkpt lat="43.22517" lon="6.47663">
        <ele>204.324158</ele>
        <time>2008-10-05T10:22:14Z</time>
      </trkpt>
      <trkpt lat="43.22524" lon="6.47661">
        <ele>205.064941</ele>
        <time>2008-10-05T10:22:17Z</time>
      </trkpt>
      <trkpt lat="43.22524" lon="6.47659">
        <ele>205.113968</ele>
        <time>2008-10-05T10:22:18Z</time>
      </trkpt>
      <trkpt lat="43.22534" lon="6.47655">
        <ele>204.894928</ele>
        <time>2008-10-05T10:22:23Z</time>
      </trkpt>
      <trkpt lat="43.22588" lon="6.47627">
        <ele>206.085342</ele>
        <time>2008-10-05T10:22:47Z</time>
      </trkpt>
      <trkpt lat="43.22607" lon="6.47623">
        <ele>206.471909</ele>
        <time>2008-10-05T10:22:54Z</time>
      </trkpt>
      <trkpt lat="43.2262" lon="6.47623">
        <ele>205.944901</ele>
        <time>2008-10-05T10:22:59Z</time>
      </trkpt>
      <trkpt lat="43.22635" lon="6.47616">
        <ele>205.8797</ele>
        <time>2008-10-05T10:23:05Z</time>
      </trkpt>
      <trkpt lat="43.22639" lon="6.47599">
        <ele>207.396957</ele>
        <time>2008-10-05T10:23:10Z</time>
      </trkpt>
      <trkpt lat="43.22644" lon="6.47571">
        <ele>210.095306</ele>
        <time>2008-10-05T10:23:17Z</time>
      </trkpt>
      <trkpt lat="43.22657" lon="6.47526">
        <ele>211.771942</ele>
        <time>2008-10-05T10:23:30Z</time>
      </trkpt>
      <trkpt lat="43.22657" lon="6.47507">
        <ele>213.159897</ele>
        <time>2008-10-05T10:23:35Z</time>
      </trkpt>
      <trkpt lat="43.2265" lon="6.4746">
        <ele>217.423004</ele>
        <time>2008-10-05T10:23:47Z</time>
      </trkpt>
      <trkpt lat="43.22654" lon="6.4741">
        <ele>220.255737</ele>
        <time>2008-10-05T10:23:59Z</time>
      </trkpt>
      <trkpt lat="43.22663" lon="6.4738">
        <ele>221.124313</ele>
        <time>2008-10-05T10:24:06Z</time>
      </trkpt>
      <trkpt lat="43.22678" lon="6.47324">
        <ele>222.459045</ele>
        <time>2008-10-05T10:24:20Z</time>
      </trkpt>
      <trkpt lat="43.22691" lon="6.47264">
        <ele>223.688965</ele>
        <time>2008-10-05T10:24:35Z</time>
      </trkpt>
      <trkpt lat="43.22691" lon="6.47223">
        <ele>227.621628</ele>
        <time>2008-10-05T10:24:45Z</time>
      </trkpt>
      <trkpt lat="43.22689" lon="6.47208">
        <ele>229.947403</ele>
        <time>2008-10-05T10:24:49Z</time>
      </trkpt>
      <trkpt lat="43.22691" lon="6.472">
        <ele>229.695404</ele>
        <time>2008-10-05T10:24:51Z</time>
      </trkpt>
      <trkpt lat="43.22693" lon="6.47187">
        <ele>229.520981</ele>
        <time>2008-10-05T10:24:54Z</time>
      </trkpt>
      <trkpt lat="43.2271" lon="6.47135">
        <ele>226.52211</ele>
        <time>2008-10-05T10:25:05Z</time>
      </trkpt>
      <trkpt lat="43.22794" lon="6.47067">
        <ele>223.193054</ele>
        <time>2008-10-05T10:25:21Z</time>
      </trkpt>
      <trkpt lat="43.22873" lon="6.47007">
        <ele>220.080887</ele>
        <time>2008-10-05T10:25:35Z</time>
      </trkpt>
      <trkpt lat="43.22897" lon="6.47007">
        <ele>219.085175</ele>
        <time>2008-10-05T10:25:38Z</time>
      </trkpt>
      <trkpt lat="43.22927" lon="6.46998">
        <ele>217.704346</ele>
        <time>2008-10-05T10:25:42Z</time>
      </trkpt>
      <trkpt lat="43.22948" lon="6.46985">
        <ele>217.082489</ele>
        <time>2008-10-05T10:25:45Z</time>
      </trkpt>
      <trkpt lat="43.23015" lon="6.4694">
        <ele>214.672501</ele>
        <time>2008-10-05T10:25:54Z</time>
      </trkpt>
      <trkpt lat="43.2309" lon="6.46863">
        <ele>210.48468</ele>
        <time>2008-10-05T10:26:06Z</time>
      </trkpt>
      <trkpt lat="43.23101" lon="6.46857">
        <ele>210.128387</ele>
        <time>2008-10-05T10:26:10Z</time>
      </trkpt>
      <trkpt lat="43.23101" lon="6.46861">
        <ele>209.654984</ele>
        <time>2008-10-05T10:26:11Z</time>
      </trkpt>
      <trkpt lat="43.23094" lon="6.46884">
        <ele>207.932144</ele>
        <time>2008-10-05T10:26:15Z</time>
      </trkpt>
      <trkpt lat="43.23094" lon="6.46889">
        <ele>207.498718</ele>
        <time>2008-10-05T10:26:16Z</time>
      </trkpt>
      <trkpt lat="43.23092" lon="6.46897">
        <ele>206.910767</ele>
        <time>2008-10-05T10:26:18Z</time>
      </trkpt>
      <trkpt lat="43.23107" lon="6.46902">
        <ele>203.79245</ele>
        <time>2008-10-05T10:26:22Z</time>
      </trkpt>
      <trkpt lat="43.23124" lon="6.46897">
        <ele>201.345261</ele>
        <time>2008-10-05T10:26:28Z</time>
      </trkpt>
      <trkpt lat="43.23127" lon="6.46897">
        <ele>200.975525</ele>
        <time>2008-10-05T10:26:29Z</time>
      </trkpt>
      <trkpt lat="43.23129" lon="6.46897">
        <ele>200.607239</ele>
        <time>2008-10-05T10:26:30Z</time>
      </trkpt>
      <trkpt lat="43.23137" lon="6.46899">
        <ele>198.728348</ele>
        <time>2008-10-05T10:26:34Z</time>
      </trkpt>
      <trkpt lat="43.23139" lon="6.46899">
        <ele>198.357285</ele>
        <time>2008-10-05T10:26:35Z</time>
      </trkpt>
      <trkpt lat="43.23148" lon="6.46906">
        <ele>197.263321</ele>
        <time>2008-10-05T10:26:39Z</time>
      </trkpt>
      <trkpt lat="43.23152" lon="6.46908">
        <ele>197.002274</ele>
        <time>2008-10-05T10:26:41Z</time>
      </trkpt>
      <trkpt lat="43.23163" lon="6.46917">
        <ele>195.724655</ele>
        <time>2008-10-05T10:26:47Z</time>
      </trkpt>
      <trkpt lat="43.23163" lon="6.46919">
        <ele>195.344986</ele>
        <time>2008-10-05T10:26:48Z</time>
      </trkpt>
      <trkpt lat="43.23172" lon="6.46932">
        <ele>193.652145</ele>
        <time>2008-10-05T10:26:55Z</time>
      </trkpt>
      <trkpt lat="43.2318" lon="6.4694">
        <ele>192.751678</ele>
        <time>2008-10-05T10:27:00Z</time>
      </trkpt>
      <trkpt lat="43.23178" lon="6.46949">
        <ele>191.372345</ele>
        <time>2008-10-05T10:27:03Z</time>
      </trkpt>
      <trkpt lat="43.2318" lon="6.46953">
        <ele>190.860092</ele>
        <time>2008-10-05T10:27:04Z</time>
      </trkpt>
      <trkpt lat="43.23144" lon="6.47">
        <ele>182.484497</ele>
        <time>2008-10-05T10:27:05Z</time>
      </trkpt>
      <trkpt lat="43.23154" lon="6.47005">
        <ele>182.589249</ele>
        <time>2008-10-05T10:27:07Z</time>
      </trkpt>
      <trkpt lat="43.23157" lon="6.47017">
        <ele>181.368118</ele>
        <time>2008-10-05T10:27:10Z</time>
      </trkpt>
      <trkpt lat="43.23157" lon="6.47028">
        <ele>180.257843</ele>
        <time>2008-10-05T10:27:16Z</time>
      </trkpt>
      <trkpt lat="43.23146" lon="6.47054">
        <ele>175.53952</ele>
        <time>2008-10-05T10:27:24Z</time>
      </trkpt>
      <trkpt lat="43.23142" lon="6.47065">
        <ele>172.722427</ele>
        <time>2008-10-05T10:27:27Z</time>
      </trkpt>
      <trkpt lat="43.23144" lon="6.47088">
        <ele>167.223343</ele>
        <time>2008-10-05T10:27:32Z</time>
      </trkpt>
      <trkpt lat="43.23144" lon="6.47093">
        <ele>166.207047</ele>
        <time>2008-10-05T10:27:33Z</time>
      </trkpt>
      <trkpt lat="43.23146" lon="6.47114">
        <ele>160.678772</ele>
        <time>2008-10-05T10:27:38Z</time>
      </trkpt>
      <trkpt lat="43.23152" lon="6.47138">
        <ele>155.772629</ele>
        <time>2008-10-05T10:27:43Z</time>
      </trkpt>
      <trkpt lat="43.23159" lon="6.47163">
        <ele>151.870789</ele>
        <time>2008-10-05T10:27:48Z</time>
      </trkpt>
      <trkpt lat="43.23163" lon="6.47174">
        <ele>152.084518</ele>
        <time>2008-10-05T10:27:50Z</time>
      </trkpt>
      <trkpt lat="43.23174" lon="6.47206">
        <ele>150.581482</ele>
        <time>2008-10-05T10:27:56Z</time>
      </trkpt>
      <trkpt lat="43.23174" lon="6.47211">
        <ele>149.83287</ele>
        <time>2008-10-05T10:27:57Z</time>
      </trkpt>
      <trkpt lat="43.23176" lon="6.47221">
        <ele>148.22908</ele>
        <time>2008-10-05T10:27:59Z</time>
      </trkpt>
      <trkpt lat="43.23169" lon="6.47234">
        <ele>145.689941</ele>
        <time>2008-10-05T10:28:02Z</time>
      </trkpt>
      <trkpt lat="43.23165" lon="6.47247">
        <ele>143.774811</ele>
        <time>2008-10-05T10:28:05Z</time>
      </trkpt>
      <trkpt lat="43.23159" lon="6.47256">
        <ele>141.682205</ele>
        <time>2008-10-05T10:28:08Z</time>
      </trkpt>
      <trkpt lat="43.2315" lon="6.47277">
        <ele>138.163986</ele>
        <time>2008-10-05T10:28:14Z</time>
      </trkpt>
      <trkpt lat="43.23148" lon="6.47281">
        <ele>137.362442</ele>
        <time>2008-10-05T10:28:15Z</time>
      </trkpt>
      <trkpt lat="43.23142" lon="6.47294">
        <ele>134.426224</ele>
        <time>2008-10-05T10:28:18Z</time>
      </trkpt>
      <trkpt lat="43.23135" lon="6.47314">
        <ele>130.327286</ele>
        <time>2008-10-05T10:28:23Z</time>
      </trkpt>
      <trkpt lat="43.23129" lon="6.47337">
        <ele>125.5672</ele>
        <time>2008-10-05T10:28:29Z</time>
      </trkpt>
      <trkpt lat="43.23135" lon="6.47376">
        <ele>120.806145</ele>
        <time>2008-10-05T10:28:35Z</time>
      </trkpt>
      <trkpt lat="43.23139" lon="6.47397">
        <ele>117.401878</ele>
        <time>2008-10-05T10:28:39Z</time>
      </trkpt>
      <trkpt lat="43.23146" lon="6.47402">
        <ele>117.213295</ele>
        <time>2008-10-05T10:28:41Z</time>
      </trkpt>
      <trkpt lat="43.23154" lon="6.47402">
        <ele>118.111458</ele>
        <time>2008-10-05T10:28:43Z</time>
      </trkpt>
      <trkpt lat="43.23167" lon="6.47404">
        <ele>118.576447</ele>
        <time>2008-10-05T10:28:47Z</time>
      </trkpt>
      <trkpt lat="43.23189" lon="6.47397">
        <ele>117.953529</ele>
        <time>2008-10-05T10:28:53Z</time>
      </trkpt>
      <trkpt lat="43.23204" lon="6.47393">
        <ele>117.457092</ele>
        <time>2008-10-05T10:28:57Z</time>
      </trkpt>
      <trkpt lat="43.23236" lon="6.47378">
        <ele>115.629448</ele>
        <time>2008-10-05T10:29:05Z</time>
      </trkpt>
      <trkpt lat="43.2324" lon="6.47376">
        <ele>114.976036</ele>
        <time>2008-10-05T10:29:08Z</time>
      </trkpt>
      <trkpt lat="43.2324" lon="6.47376">
        <ele>114.976036</ele>
        <time>2008-10-05T10:29:09Z</time>
      </trkpt>
      <trkpt lat="43.23245" lon="6.47374">
        <ele>114.218102</ele>
        <time>2008-10-05T10:29:13Z</time>
      </trkpt>
      <trkpt lat="43.23249" lon="6.47372">
        <ele>113.355644</ele>
        <time>2008-10-05T10:29:15Z</time>
      </trkpt>
      <trkpt lat="43.23257" lon="6.47384">
        <ele>110.833344</ele>
        <time>2008-10-05T10:29:19Z</time>
      </trkpt>
      <trkpt lat="43.2326" lon="6.47408">
        <ele>110.569885</ele>
        <time>2008-10-05T10:29:24Z</time>
      </trkpt>
      <trkpt lat="43.2326" lon="6.47412">
        <ele>110.420364</ele>
        <time>2008-10-05T10:29:25Z</time>
      </trkpt>
      <trkpt lat="43.2326" lon="6.47417">
        <ele>110.271881</ele>
        <time>2008-10-05T10:29:26Z</time>
      </trkpt>
      <trkpt lat="43.23255" lon="6.47425">
        <ele>109.531998</ele>
        <time>2008-10-05T10:29:29Z</time>
      </trkpt>
      <trkpt lat="43.23249" lon="6.47434">
        <ele>109.751862</ele>
        <time>2008-10-05T10:29:32Z</time>
      </trkpt>
      <trkpt lat="43.23236" lon="6.47449">
        <ele>109.252769</ele>
        <time>2008-10-05T10:29:38Z</time>
      </trkpt>
      <trkpt lat="43.23234" lon="6.47451">
        <ele>109.039124</ele>
        <time>2008-10-05T10:29:39Z</time>
      </trkpt>
      <trkpt lat="43.23193" lon="6.47513">
        <ele>107.91301</ele>
        <time>2008-10-05T10:30:03Z</time>
      </trkpt>
      <trkpt lat="43.23191" lon="6.47517">
        <ele>108.016571</ele>
        <time>2008-10-05T10:30:05Z</time>
      </trkpt>
      <trkpt lat="43.23204" lon="6.47507">
        <ele>108.783195</ele>
        <time>2008-10-05T10:30:13Z</time>
      </trkpt>
      <trkpt lat="43.2321" lon="6.475">
        <ele>108.654167</ele>
        <time>2008-10-05T10:30:18Z</time>
      </trkpt>
      <trkpt lat="43.23217" lon="6.47498">
        <ele>109.261124</ele>
        <time>2008-10-05T10:30:23Z</time>
      </trkpt>
      <trkpt lat="43.23219" lon="6.47498">
        <ele>109.58342</ele>
        <time>2008-10-05T10:30:25Z</time>
      </trkpt>
      <trkpt lat="43.23225" lon="6.47498">
        <ele>110.553192</ele>
        <time>2008-10-05T10:30:30Z</time>
      </trkpt>
      <trkpt lat="43.23232" lon="6.47498">
        <ele>111.527275</ele>
        <time>2008-10-05T10:30:35Z</time>
      </trkpt>
      <trkpt lat="43.23238" lon="6.47502">
        <ele>113.133286</ele>
        <time>2008-10-05T10:30:41Z</time>
      </trkpt>
      <trkpt lat="43.23242" lon="6.47522">
        <ele>116.52652</ele>
        <time>2008-10-05T10:30:54Z</time>
      </trkpt>
      <trkpt lat="43.23245" lon="6.4753">
        <ele>118.021179</ele>
        <time>2008-10-05T10:30:59Z</time>
      </trkpt>
      <trkpt lat="43.23253" lon="6.47532">
        <ele>119.473106</ele>
        <time>2008-10-05T10:31:05Z</time>
      </trkpt>
      <trkpt lat="43.23262" lon="6.47535">
        <ele>121.035728</ele>
        <time>2008-10-05T10:31:11Z</time>
      </trkpt>
      <trkpt lat="43.23266" lon="6.47541">
        <ele>122.528008</ele>
        <time>2008-10-05T10:31:17Z</time>
      </trkpt>
      <trkpt lat="43.23266" lon="6.4755">
        <ele>123.826057</ele>
        <time>2008-10-05T10:31:23Z</time>
      </trkpt>
      <trkpt lat="43.23264" lon="6.47554">
        <ele>124.19326</ele>
        <time>2008-10-05T10:31:29Z</time>
      </trkpt>
      <trkpt lat="43.2326" lon="6.4756">
        <ele>124.648369</ele>
        <time>2008-10-05T10:31:35Z</time>
      </trkpt>
      <trkpt lat="43.23257" lon="6.47571">
        <ele>126.089767</ele>
        <time>2008-10-05T10:31:50Z</time>
      </trkpt>
      <trkpt lat="43.23257" lon="6.47571">
        <ele>126.089767</ele>
        <time>2008-10-05T10:31:54Z</time>
      </trkpt>
      <trkpt lat="43.23262" lon="6.47578">
        <ele>127.553398</ele>
        <time>2008-10-05T10:32:00Z</time>
      </trkpt>
      <trkpt lat="43.23266" lon="6.4758">
        <ele>128.320786</ele>
        <time>2008-10-05T10:32:05Z</time>
      </trkpt>
      <trkpt lat="43.23266" lon="6.47584">
        <ele>128.956726</ele>
        <time>2008-10-05T10:32:09Z</time>
      </trkpt>
      <trkpt lat="43.23268" lon="6.47588">
        <ele>129.791748</ele>
        <time>2008-10-05T10:32:14Z</time>
      </trkpt>
      <trkpt lat="43.23268" lon="6.47593">
        <ele>130.414673</ele>
        <time>2008-10-05T10:32:16Z</time>
      </trkpt>
      <trkpt lat="43.23272" lon="6.47603">
        <ele>132.179138</ele>
        <time>2008-10-05T10:32:21Z</time>
      </trkpt>
      <trkpt lat="43.23275" lon="6.47612">
        <ele>132.453568</ele>
        <time>2008-10-05T10:32:25Z</time>
      </trkpt>
      <trkpt lat="43.23279" lon="6.47623">
        <ele>132.906326</ele>
        <time>2008-10-05T10:32:31Z</time>
      </trkpt>
      <trkpt lat="43.23292" lon="6.47653">
        <ele>134.058807</ele>
        <time>2008-10-05T10:32:43Z</time>
      </trkpt>
      <trkpt lat="43.23296" lon="6.47657">
        <ele>134.420959</ele>
        <time>2008-10-05T10:32:44Z</time>
      </trkpt>
      <trkpt lat="43.23303" lon="6.47666">
        <ele>134.803818</ele>
        <time>2008-10-05T10:32:46Z</time>
      </trkpt>
      <trkpt lat="43.23309" lon="6.47672">
        <ele>134.046997</ele>
        <time>2008-10-05T10:32:47Z</time>
      </trkpt>
      <trkpt lat="43.23322" lon="6.47685">
        <ele>131.818192</ele>
        <time>2008-10-05T10:32:49Z</time>
      </trkpt>
      <trkpt lat="43.23339" lon="6.47696">
        <ele>130.310379</ele>
        <time>2008-10-05T10:32:51Z</time>
      </trkpt>
      <trkpt lat="43.2338" lon="6.47723">
        <ele>131.540634</ele>
        <time>2008-10-05T10:32:58Z</time>
      </trkpt>
      <trkpt lat="43.23388" lon="6.47745">
        <ele>130.191299</ele>
        <time>2008-10-05T10:33:01Z</time>
      </trkpt>
      <trkpt lat="43.23399" lon="6.4776">
        <ele>131.103821</ele>
        <time>2008-10-05T10:33:04Z</time>
      </trkpt>
      <trkpt lat="43.23403" lon="6.47766">
        <ele>131.417084</ele>
        <time>2008-10-05T10:33:05Z</time>
      </trkpt>
      <trkpt lat="43.23421" lon="6.47801">
        <ele>131.655319</ele>
        <time>2008-10-05T10:33:10Z</time>
      </trkpt>
      <trkpt lat="43.23459" lon="6.47829">
        <ele>128.941116</ele>
        <time>2008-10-05T10:33:16Z</time>
      </trkpt>
      <trkpt lat="43.23524" lon="6.47895">
        <ele>123.27211</ele>
        <time>2008-10-05T10:33:27Z</time>
      </trkpt>
      <trkpt lat="43.23541" lon="6.4791">
        <ele>121.202705</ele>
        <time>2008-10-05T10:33:30Z</time>
      </trkpt>
      <trkpt lat="43.23564" lon="6.47929">
        <ele>119.800629</ele>
        <time>2008-10-05T10:33:34Z</time>
      </trkpt>
      <trkpt lat="43.23575" lon="6.4794">
        <ele>120.257141</ele>
        <time>2008-10-05T10:33:36Z</time>
      </trkpt>
      <trkpt lat="43.23564" lon="6.47947">
        <ele>118.519035</ele>
        <time>2008-10-05T10:33:38Z</time>
      </trkpt>
      <trkpt lat="43.23551" lon="6.47953">
        <ele>116.385567</ele>
        <time>2008-10-05T10:33:40Z</time>
      </trkpt>
      <trkpt lat="43.23536" lon="6.47968">
        <ele>114.198174</ele>
        <time>2008-10-05T10:33:43Z</time>
      </trkpt>
      <trkpt lat="43.23532" lon="6.47974">
        <ele>113.36541</ele>
        <time>2008-10-05T10:33:44Z</time>
      </trkpt>
      <trkpt lat="43.23526" lon="6.48007">
        <ele>110.177521</ele>
        <time>2008-10-05T10:33:47Z</time>
      </trkpt>
      <trkpt lat="43.23524" lon="6.48037">
        <ele>107.658005</ele>
        <time>2008-10-05T10:33:50Z</time>
      </trkpt>
      <trkpt lat="43.23534" lon="6.4805">
        <ele>107.423286</ele>
        <time>2008-10-05T10:33:52Z</time>
      </trkpt>
      <trkpt lat="43.23539" lon="6.48058">
        <ele>107.141022</ele>
        <time>2008-10-05T10:33:53Z</time>
      </trkpt>
      <trkpt lat="43.23549" lon="6.48073">
        <ele>107.378273</ele>
        <time>2008-10-05T10:33:55Z</time>
      </trkpt>
      <trkpt lat="43.2356" lon="6.48093">
        <ele>107.958473</ele>
        <time>2008-10-05T10:33:58Z</time>
      </trkpt>
      <trkpt lat="43.23609" lon="6.48172">
        <ele>109.428802</ele>
        <time>2008-10-05T10:34:12Z</time>
      </trkpt>
      <trkpt lat="43.23616" lon="6.48178">
        <ele>109.598068</ele>
        <time>2008-10-05T10:34:15Z</time>
      </trkpt>
      <trkpt lat="43.23622" lon="6.48183">
        <ele>109.948853</ele>
        <time>2008-10-05T10:34:17Z</time>
      </trkpt>
      <trkpt lat="43.23661" lon="6.48213">
        <ele>111.385056</ele>
        <time>2008-10-05T10:34:30Z</time>
      </trkpt>
      <trkpt lat="43.23695" lon="6.4826">
        <ele>108.955315</ele>
        <time>2008-10-05T10:34:41Z</time>
      </trkpt>
      <trkpt lat="43.2376" lon="6.48318">
        <ele>106.810387</ele>
        <time>2008-10-05T10:34:55Z</time>
      </trkpt>
      <trkpt lat="43.23783" lon="6.48331">
        <ele>106.137306</ele>
        <time>2008-10-05T10:34:59Z</time>
      </trkpt>
      <trkpt lat="43.23837" lon="6.48322">
        <ele>103.262047</ele>
        <time>2008-10-05T10:35:06Z</time>
      </trkpt>
      <trkpt lat="43.23848" lon="6.4832">
        <ele>102.263725</ele>
        <time>2008-10-05T10:35:07Z</time>
      </trkpt>
      <trkpt lat="43.23901" lon="6.48311">
        <ele>99.624771</ele>
        <time>2008-10-05T10:35:13Z</time>
      </trkpt>
      <trkpt lat="43.2394" lon="6.48307">
        <ele>97.060242</ele>
        <time>2008-10-05T10:35:17Z</time>
      </trkpt>
      <trkpt lat="43.23948" lon="6.48309">
        <ele>96.482376</ele>
        <time>2008-10-05T10:35:18Z</time>
      </trkpt>
      <trkpt lat="43.23987" lon="6.4838">
        <ele>94.341949</ele>
        <time>2008-10-05T10:35:24Z</time>
      </trkpt>
      <trkpt lat="43.23996" lon="6.48391">
        <ele>93.506271</ele>
        <time>2008-10-05T10:35:25Z</time>
      </trkpt>
      <trkpt lat="43.24023" lon="6.48434">
        <ele>91.581223</ele>
        <time>2008-10-05T10:35:29Z</time>
      </trkpt>
      <trkpt lat="43.24077" lon="6.48528">
        <ele>89.114502</ele>
        <time>2008-10-05T10:35:38Z</time>
      </trkpt>
      <trkpt lat="43.24109" lon="6.48565">
        <ele>87.104095</ele>
        <time>2008-10-05T10:35:45Z</time>
      </trkpt>
      <trkpt lat="43.24114" lon="6.48569">
        <ele>86.804283</ele>
        <time>2008-10-05T10:35:46Z</time>
      </trkpt>
      <trkpt lat="43.2415" lon="6.48612">
        <ele>83.765762</ele>
        <time>2008-10-05T10:35:54Z</time>
      </trkpt>
      <trkpt lat="43.24159" lon="6.48625">
        <ele>82.837532</ele>
        <time>2008-10-05T10:35:56Z</time>
      </trkpt>
      <trkpt lat="43.24174" lon="6.48644">
        <ele>81.350052</ele>
        <time>2008-10-05T10:35:59Z</time>
      </trkpt>
      <trkpt lat="43.2418" lon="6.48663">
        <ele>80.330772</ele>
        <time>2008-10-05T10:36:02Z</time>
      </trkpt>
      <trkpt lat="43.24172" lon="6.48687">
        <ele>80.002411</ele>
        <time>2008-10-05T10:36:08Z</time>
      </trkpt>
      <trkpt lat="43.24159" lon="6.48698">
        <ele>80.81881</ele>
        <time>2008-10-05T10:36:12Z</time>
      </trkpt>
      <trkpt lat="43.24146" lon="6.48708">
        <ele>81.538345</ele>
        <time>2008-10-05T10:36:16Z</time>
      </trkpt>
      <trkpt lat="43.24094" lon="6.48745">
        <ele>82.223053</ele>
        <time>2008-10-05T10:36:31Z</time>
      </trkpt>
      <trkpt lat="43.24073" lon="6.48764">
        <ele>82.030319</ele>
        <time>2008-10-05T10:36:37Z</time>
      </trkpt>
      <trkpt lat="43.24056" lon="6.48786">
        <ele>81.671242</ele>
        <time>2008-10-05T10:36:42Z</time>
      </trkpt>
      <trkpt lat="43.24041" lon="6.48807">
        <ele>81.821594</ele>
        <time>2008-10-05T10:36:46Z</time>
      </trkpt>
      <trkpt lat="43.24021" lon="6.48844">
        <ele>80.800362</ele>
        <time>2008-10-05T10:36:51Z</time>
      </trkpt>
      <trkpt lat="43.23998" lon="6.48899">
        <ele>78.153503</ele>
        <time>2008-10-05T10:36:59Z</time>
      </trkpt>
      <trkpt lat="43.24006" lon="6.48919">
        <ele>74.921509</ele>
        <time>2008-10-05T10:37:02Z</time>
      </trkpt>
      <trkpt lat="43.24034" lon="6.48968">
        <ele>68.755653</ele>
        <time>2008-10-05T10:37:09Z</time>
      </trkpt>
      <trkpt lat="43.24051" lon="6.48992">
        <ele>66.266266</ele>
        <time>2008-10-05T10:37:12Z</time>
      </trkpt>
      <trkpt lat="43.24071" lon="6.49019">
        <ele>64.263756</ele>
        <time>2008-10-05T10:37:15Z</time>
      </trkpt>
      <trkpt lat="43.24088" lon="6.49052">
        <ele>62.352562</ele>
        <time>2008-10-05T10:37:18Z</time>
      </trkpt>
      <trkpt lat="43.24094" lon="6.49062">
        <ele>61.583755</ele>
        <time>2008-10-05T10:37:19Z</time>
      </trkpt>
      <trkpt lat="43.24101" lon="6.49071">
        <ele>60.8871</ele>
        <time>2008-10-05T10:37:20Z</time>
      </trkpt>
      <trkpt lat="43.24107" lon="6.4908">
        <ele>60.207932</ele>
        <time>2008-10-05T10:37:21Z</time>
      </trkpt>
      <trkpt lat="43.24122" lon="6.49097">
        <ele>58.792427</ele>
        <time>2008-10-05T10:37:23Z</time>
      </trkpt>
      <trkpt lat="43.24157" lon="6.49142">
        <ele>55.543987</ele>
        <time>2008-10-05T10:37:30Z</time>
      </trkpt>
      <trkpt lat="43.24167" lon="6.49148">
        <ele>55.096649</ele>
        <time>2008-10-05T10:37:33Z</time>
      </trkpt>
      <trkpt lat="43.24176" lon="6.49142">
        <ele>55.182854</ele>
        <time>2008-10-05T10:37:36Z</time>
      </trkpt>
      <trkpt lat="43.24242" lon="6.4905">
        <ele>58.98917</ele>
        <time>2008-10-05T10:38:01Z</time>
      </trkpt>
      <trkpt lat="43.24302" lon="6.48964">
        <ele>63.637897</ele>
        <time>2008-10-05T10:38:23Z</time>
      </trkpt>
      <trkpt lat="43.24313" lon="6.48968">
        <ele>63.850712</ele>
        <time>2008-10-05T10:38:26Z</time>
      </trkpt>
      <trkpt lat="43.24317" lon="6.48987">
        <ele>63.115692</ele>
        <time>2008-10-05T10:38:29Z</time>
      </trkpt>
      <trkpt lat="43.24335" lon="6.49107">
        <ele>59.016579</ele>
        <time>2008-10-05T10:38:45Z</time>
      </trkpt>
      <trkpt lat="43.24365" lon="6.49298">
        <ele>54.443565</ele>
        <time>2008-10-05T10:39:05Z</time>
      </trkpt>
      <trkpt lat="43.2438" lon="6.49298">
        <ele>54.127365</ele>
        <time>2008-10-05T10:39:07Z</time>
      </trkpt>
      <trkpt lat="43.24399" lon="6.49313">
        <ele>53.438992</ele>
        <time>2008-10-05T10:39:10Z</time>
      </trkpt>
      <trkpt lat="43.24416" lon="6.49333">
        <ele>52.422173</ele>
        <time>2008-10-05T10:39:13Z</time>
      </trkpt>
      <trkpt lat="43.24446" lon="6.49352">
        <ele>50.866257</ele>
        <time>2008-10-05T10:39:17Z</time>
      </trkpt>
      <trkpt lat="43.2453" lon="6.49374">
        <ele>47.983902</ele>
        <time>2008-10-05T10:39:28Z</time>
      </trkpt>
      <trkpt lat="43.24616" lon="6.49397">
        <ele>45.46981</ele>
        <time>2008-10-05T10:39:39Z</time>
      </trkpt>
      <trkpt lat="43.24678" lon="6.49419">
        <ele>43.746647</ele>
        <time>2008-10-05T10:39:47Z</time>
      </trkpt>
      <trkpt lat="43.24695" lon="6.49434">
        <ele>43.174412</ele>
        <time>2008-10-05T10:39:50Z</time>
      </trkpt>
      <trkpt lat="43.24714" lon="6.49444">
        <ele>42.409317</ele>
        <time>2008-10-05T10:39:53Z</time>
      </trkpt>
      <trkpt lat="43.24734" lon="6.49455">
        <ele>41.380741</ele>
        <time>2008-10-05T10:39:57Z</time>
      </trkpt>
      <trkpt lat="43.24777" lon="6.49477">
        <ele>38.552017</ele>
        <time>2008-10-05T10:40:05Z</time>
      </trkpt>
      <trkpt lat="43.24798" lon="6.49464">
        <ele>37.412422</ele>
        <time>2008-10-05T10:40:09Z</time>
      </trkpt>
      <trkpt lat="43.24826" lon="6.49438">
        <ele>36.049484</ele>
        <time>2008-10-05T10:40:14Z</time>
      </trkpt>
      <trkpt lat="43.24875" lon="6.49389">
        <ele>32.183392</ele>
        <time>2008-10-05T10:40:23Z</time>
      </trkpt>
      <trkpt lat="43.24914" lon="6.49354">
        <ele>29.933729</ele>
        <time>2008-10-05T10:40:30Z</time>
      </trkpt>
      <trkpt lat="43.24942" lon="6.49331">
        <ele>29</ele>
        <time>2008-10-05T10:40:35Z</time>
      </trkpt>
      <trkpt lat="43.24965" lon="6.49322">
        <ele>29.029398</ele>
        <time>2008-10-05T10:40:39Z</time>
      </trkpt>
      <trkpt lat="43.24991" lon="6.49322">
        <ele>28.777521</ele>
        <time>2008-10-05T10:40:44Z</time>
      </trkpt>
      <trkpt lat="43.24998" lon="6.4932">
        <ele>28.636282</ele>
        <time>2008-10-05T10:40:45Z</time>
      </trkpt>
      <trkpt lat="43.25002" lon="6.49316">
        <ele>28.544582</ele>
        <time>2008-10-05T10:40:46Z</time>
      </trkpt>
      <trkpt lat="43.25036" lon="6.49296">
        <ele>28.092146</ele>
        <time>2008-10-05T10:40:53Z</time>
      </trkpt>
      <trkpt lat="43.25045" lon="6.49296">
        <ele>28.175238</ele>
        <time>2008-10-05T10:40:58Z</time>
      </trkpt>
      <trkpt lat="43.25043" lon="6.49305">
        <ele>28.207281</ele>
        <time>2008-10-05T10:41:00Z</time>
      </trkpt>
      <trkpt lat="43.25038" lon="6.49318">
        <ele>28.215115</ele>
        <time>2008-10-05T10:41:03Z</time>
      </trkpt>
      <trkpt lat="43.25038" lon="6.49431">
        <ele>29</ele>
        <time>2008-10-05T10:41:21Z</time>
      </trkpt>
      <trkpt lat="43.25049" lon="6.49519">
        <ele>29</ele>
        <time>2008-10-05T10:41:36Z</time>
      </trkpt>
      <trkpt lat="43.25049" lon="6.49539">
        <ele>29</ele>
        <time>2008-10-05T10:41:40Z</time>
      </trkpt>
      <trkpt lat="43.25051" lon="6.49545">
        <ele>29</ele>
        <time>2008-10-05T10:41:41Z</time>
      </trkpt>
      <trkpt lat="43.25049" lon="6.49549">
        <ele>29</ele>
        <time>2008-10-05T10:41:42Z</time>
      </trkpt>
      <trkpt lat="43.25049" lon="6.49558">
        <ele>29</ele>
        <time>2008-10-05T10:41:44Z</time>
      </trkpt>
      <trkpt lat="43.25066" lon="6.49708">
        <ele>28.910954</ele>
        <time>2008-10-05T10:42:11Z</time>
      </trkpt>
      <trkpt lat="43.25081" lon="6.49745">
        <ele>28.716757</ele>
        <time>2008-10-05T10:42:18Z</time>
      </trkpt>
      <trkpt lat="43.25129" lon="6.49794">
        <ele>29</ele>
        <time>2008-10-05T10:42:30Z</time>
      </trkpt>
      <trkpt lat="43.2515" lon="6.49807">
        <ele>29</ele>
        <time>2008-10-05T10:42:35Z</time>
      </trkpt>
      <trkpt lat="43.25165" lon="6.49801">
        <ele>29</ele>
        <time>2008-10-05T10:42:39Z</time>
      </trkpt>
      <trkpt lat="43.25171" lon="6.49798">
        <ele>29</ele>
        <time>2008-10-05T10:42:41Z</time>
      </trkpt>
      <trkpt lat="43.25191" lon="6.49786">
        <ele>28.943111</ele>
        <time>2008-10-05T10:42:46Z</time>
      </trkpt>
      <trkpt lat="43.25199" lon="6.49777">
        <ele>28.759722</ele>
        <time>2008-10-05T10:42:49Z</time>
      </trkpt>
      <trkpt lat="43.2521" lon="6.49764">
        <ele>28.453495</ele>
        <time>2008-10-05T10:42:53Z</time>
      </trkpt>
      <trkpt lat="43.25212" lon="6.49747">
        <ele>28.284903</ele>
        <time>2008-10-05T10:42:56Z</time>
      </trkpt>
      <trkpt lat="43.25214" lon="6.4973">
        <ele>28.13484</ele>
        <time>2008-10-05T10:42:59Z</time>
      </trkpt>
      <trkpt lat="43.25217" lon="6.49719">
        <ele>28.048031</ele>
        <time>2008-10-05T10:43:01Z</time>
      </trkpt>
      <trkpt lat="43.25217" lon="6.49708">
        <ele>28.062101</ele>
        <time>2008-10-05T10:43:03Z</time>
      </trkpt>
      <trkpt lat="43.25229" lon="6.49668">
        <ele>28.739647</ele>
        <time>2008-10-05T10:43:11Z</time>
      </trkpt>
      <trkpt lat="43.25232" lon="6.49633">
        <ele>29.299973</ele>
        <time>2008-10-05T10:43:17Z</time>
      </trkpt>
      <trkpt lat="43.2524" lon="6.4962">
        <ele>29.513195</ele>
        <time>2008-10-05T10:43:20Z</time>
      </trkpt>
      <trkpt lat="43.25242" lon="6.49616">
        <ele>29.558577</ele>
        <time>2008-10-05T10:43:21Z</time>
      </trkpt>
      <trkpt lat="43.25247" lon="6.49601">
        <ele>29.72448</ele>
        <time>2008-10-05T10:43:25Z</time>
      </trkpt>
      <trkpt lat="43.25247" lon="6.49599">
        <ele>29.756144</ele>
        <time>2008-10-05T10:43:26Z</time>
      </trkpt>
      <trkpt lat="43.25249" lon="6.4959">
        <ele>29.837757</ele>
        <time>2008-10-05T10:43:28Z</time>
      </trkpt>
      <trkpt lat="43.25253" lon="6.4958">
        <ele>29.882332</ele>
        <time>2008-10-05T10:43:31Z</time>
      </trkpt>
      <trkpt lat="43.25266" lon="6.49537">
        <ele>29.93169</ele>
        <time>2008-10-05T10:43:42Z</time>
      </trkpt>
      <trkpt lat="43.25274" lon="6.49444">
        <ele>31.637407</ele>
        <time>2008-10-05T10:44:00Z</time>
      </trkpt>
      <trkpt lat="43.25283" lon="6.49414">
        <ele>31.934202</ele>
        <time>2008-10-05T10:44:06Z</time>
      </trkpt>
      <trkpt lat="43.25285" lon="6.49391">
        <ele>32.055748</ele>
        <time>2008-10-05T10:44:11Z</time>
      </trkpt>
      <trkpt lat="43.25307" lon="6.49335">
        <ele>32.234207</ele>
        <time>2008-10-05T10:44:24Z</time>
      </trkpt>
      <trkpt lat="43.25341" lon="6.49283">
        <ele>33.107224</ele>
        <time>2008-10-05T10:44:37Z</time>
      </trkpt>
      <trkpt lat="43.25369" lon="6.49268">
        <ele>33.388126</ele>
        <time>2008-10-05T10:44:43Z</time>
      </trkpt>
      <trkpt lat="43.25403" lon="6.49279">
        <ele>33.597214</ele>
        <time>2008-10-05T10:44:50Z</time>
      </trkpt>
      <trkpt lat="43.25416" lon="6.49286">
        <ele>33.799477</ele>
        <time>2008-10-05T10:44:53Z</time>
      </trkpt>
      <trkpt lat="43.2544" lon="6.49288">
        <ele>34.293453</ele>
        <time>2008-10-05T10:44:59Z</time>
      </trkpt>
      <trkpt lat="43.2544" lon="6.49256">
        <ele>34.723236</ele>
        <time>2008-10-05T10:45:06Z</time>
      </trkpt>
      <trkpt lat="43.25438" lon="6.49238">
        <ele>34.960011</ele>
        <time>2008-10-05T10:45:09Z</time>
      </trkpt>
      <trkpt lat="43.25405" lon="6.49082">
        <ele>34.684998</ele>
        <time>2008-10-05T10:45:35Z</time>
      </trkpt>
      <trkpt lat="43.25399" lon="6.49047">
        <ele>35.048431</ele>
        <time>2008-10-05T10:45:41Z</time>
      </trkpt>
      <trkpt lat="43.25397" lon="6.49002">
        <ele>34.952282</ele>
        <time>2008-10-05T10:45:48Z</time>
      </trkpt>
      <trkpt lat="43.25399" lon="6.48972">
        <ele>35.21825</ele>
        <time>2008-10-05T10:45:53Z</time>
      </trkpt>
      <trkpt lat="43.25425" lon="6.48919">
        <ele>36.646309</ele>
        <time>2008-10-05T10:46:03Z</time>
      </trkpt>
      <trkpt lat="43.25472" lon="6.48768">
        <ele>40.852707</ele>
        <time>2008-10-05T10:46:29Z</time>
      </trkpt>
      <trkpt lat="43.25487" lon="6.48685">
        <ele>42.701591</ele>
        <time>2008-10-05T10:46:42Z</time>
      </trkpt>
      <trkpt lat="43.25504" lon="6.48556">
        <ele>45.084461</ele>
        <time>2008-10-05T10:47:06Z</time>
      </trkpt>
      <trkpt lat="43.25504" lon="6.48535">
        <ele>45.414654</ele>
        <time>2008-10-05T10:47:11Z</time>
      </trkpt>
      <trkpt lat="43.25521" lon="6.48421">
        <ele>47.643688</ele>
        <time>2008-10-05T10:47:35Z</time>
      </trkpt>
      <trkpt lat="43.25541" lon="6.4829">
        <ele>50.811684</ele>
        <time>2008-10-05T10:48:02Z</time>
      </trkpt>
      <trkpt lat="43.25547" lon="6.48241">
        <ele>51.589455</ele>
        <time>2008-10-05T10:48:11Z</time>
      </trkpt>
      <trkpt lat="43.25506" lon="6.48125">
        <ele>51.054195</ele>
        <time>2008-10-05T10:48:31Z</time>
      </trkpt>
      <trkpt lat="43.25442" lon="6.47942">
        <ele>50.21587</ele>
        <time>2008-10-05T10:49:01Z</time>
      </trkpt>
      <trkpt lat="43.25423" lon="6.47874">
        <ele>51.920143</ele>
        <time>2008-10-05T10:49:12Z</time>
      </trkpt>
      <trkpt lat="43.25418" lon="6.47833">
        <ele>52.843857</ele>
        <time>2008-10-05T10:49:18Z</time>
      </trkpt>
      <trkpt lat="43.25414" lon="6.47768">
        <ele>55.05254</ele>
        <time>2008-10-05T10:49:28Z</time>
      </trkpt>
      <trkpt lat="43.25412" lon="6.47728">
        <ele>56.343311</ele>
        <time>2008-10-05T10:49:35Z</time>
      </trkpt>
      <trkpt lat="43.25414" lon="6.47723">
        <ele>56.575825</ele>
        <time>2008-10-05T10:49:36Z</time>
      </trkpt>
      <trkpt lat="43.25416" lon="6.477">
        <ele>57.402771</ele>
        <time>2008-10-05T10:49:41Z</time>
      </trkpt>
      <trkpt lat="43.25435" lon="6.47655">
        <ele>59.69355</ele>
        <time>2008-10-05T10:49:54Z</time>
      </trkpt>
      <trkpt lat="43.2545" lon="6.47614">
        <ele>61.276039</ele>
        <time>2008-10-05T10:50:06Z</time>
      </trkpt>
      <trkpt lat="43.25453" lon="6.47597">
        <ele>61.634415</ele>
        <time>2008-10-05T10:50:11Z</time>
      </trkpt>
      <trkpt lat="43.25455" lon="6.47567">
        <ele>62.21067</ele>
        <time>2008-10-05T10:50:18Z</time>
      </trkpt>
      <trkpt lat="43.25457" lon="6.47417">
        <ele>64.265076</ele>
        <time>2008-10-05T10:50:47Z</time>
      </trkpt>
      <trkpt lat="43.25474" lon="6.47393">
        <ele>66.176476</ele>
        <time>2008-10-05T10:50:54Z</time>
      </trkpt>
      <trkpt lat="43.25476" lon="6.47391">
        <ele>66.385551</ele>
        <time>2008-10-05T10:50:55Z</time>
      </trkpt>
      <trkpt lat="43.25483" lon="6.47387">
        <ele>66.983116</ele>
        <time>2008-10-05T10:50:58Z</time>
      </trkpt>
      <trkpt lat="43.25485" lon="6.47387">
        <ele>67.179771</ele>
        <time>2008-10-05T10:50:59Z</time>
      </trkpt>
      <trkpt lat="43.25493" lon="6.47374">
        <ele>68.072403</ele>
        <time>2008-10-05T10:51:05Z</time>
      </trkpt>
      <trkpt lat="43.25502" lon="6.47354">
        <ele>69.111526</ele>
        <time>2008-10-05T10:51:12Z</time>
      </trkpt>
      <trkpt lat="43.25504" lon="6.47335">
        <ele>69.546227</ele>
        <time>2008-10-05T10:51:18Z</time>
      </trkpt>
      <trkpt lat="43.25517" lon="6.47254">
        <ele>70.277031</ele>
        <time>2008-10-05T10:51:36Z</time>
      </trkpt>
      <trkpt lat="43.25521" lon="6.47234">
        <ele>70.364853</ele>
        <time>2008-10-05T10:51:41Z</time>
      </trkpt>
      <trkpt lat="43.25521" lon="6.4723">
        <ele>70.29274</ele>
        <time>2008-10-05T10:51:42Z</time>
      </trkpt>
      <trkpt lat="43.25532" lon="6.47159">
        <ele>71.261177</ele>
        <time>2008-10-05T10:51:55Z</time>
      </trkpt>
      <trkpt lat="43.25534" lon="6.47125">
        <ele>71.429832</ele>
        <time>2008-10-05T10:52:03Z</time>
      </trkpt>
      <trkpt lat="43.25534" lon="6.47114">
        <ele>71.374771</ele>
        <time>2008-10-05T10:52:06Z</time>
      </trkpt>
      <trkpt lat="43.25538" lon="6.47097">
        <ele>71.859032</ele>
        <time>2008-10-05T10:52:11Z</time>
      </trkpt>
      <trkpt lat="43.25543" lon="6.47078">
        <ele>72.332283</ele>
        <time>2008-10-05T10:52:14Z</time>
      </trkpt>
      <trkpt lat="43.2556" lon="6.46996">
        <ele>73.672989</ele>
        <time>2008-10-05T10:52:29Z</time>
      </trkpt>
      <trkpt lat="43.25579" lon="6.46893">
        <ele>74.769249</ele>
        <time>2008-10-05T10:52:50Z</time>
      </trkpt>
      <trkpt lat="43.25579" lon="6.46889">
        <ele>75.14846</ele>
        <time>2008-10-05T10:52:52Z</time>
      </trkpt>
      <trkpt lat="43.25579" lon="6.46882">
        <ele>75.718224</ele>
        <time>2008-10-05T10:52:55Z</time>
      </trkpt>
      <trkpt lat="43.25581" lon="6.4688">
        <ele>76.235947</ele>
        <time>2008-10-05T10:52:56Z</time>
      </trkpt>
      <trkpt lat="43.25588" lon="6.46848">
        <ele>79.985687</ele>
        <time>2008-10-05T10:53:11Z</time>
      </trkpt>
      <trkpt lat="43.25588" lon="6.46846">
        <ele>80.189926</ele>
        <time>2008-10-05T10:53:12Z</time>
      </trkpt>
      <trkpt lat="43.25588" lon="6.46833">
        <ele>82.506454</ele>
        <time>2008-10-05T10:53:18Z</time>
      </trkpt>
      <trkpt lat="43.25586" lon="6.4682">
        <ele>84.409973</ele>
        <time>2008-10-05T10:53:24Z</time>
      </trkpt>
      <trkpt lat="43.25579" lon="6.46801">
        <ele>86.40583</ele>
        <time>2008-10-05T10:53:34Z</time>
      </trkpt>
      <trkpt lat="43.25579" lon="6.46801">
        <ele>86.40583</ele>
        <time>2008-10-05T10:53:35Z</time>
      </trkpt>
      <trkpt lat="43.25577" lon="6.46769">
        <ele>90.030937</ele>
        <time>2008-10-05T10:53:48Z</time>
      </trkpt>
      <trkpt lat="43.25579" lon="6.46732">
        <ele>93.813293</ele>
        <time>2008-10-05T10:54:00Z</time>
      </trkpt>
      <trkpt lat="43.25583" lon="6.46693">
        <ele>95.939308</ele>
        <time>2008-10-05T10:54:18Z</time>
      </trkpt>
      <trkpt lat="43.25581" lon="6.46678">
        <ele>95.515015</ele>
        <time>2008-10-05T10:54:23Z</time>
      </trkpt>
      <trkpt lat="43.25577" lon="6.46638">
        <ele>91.52449</ele>
        <time>2008-10-05T10:54:36Z</time>
      </trkpt>
      <trkpt lat="43.25592" lon="6.4661">
        <ele>92.303391</ele>
        <time>2008-10-05T10:54:42Z</time>
      </trkpt>
      <trkpt lat="43.25603" lon="6.46603">
        <ele>94.552818</ele>
        <time>2008-10-05T10:54:45Z</time>
      </trkpt>
      <trkpt lat="43.25622" lon="6.4659">
        <ele>99.557648</ele>
        <time>2008-10-05T10:54:50Z</time>
      </trkpt>
      <trkpt lat="43.25622" lon="6.46554">
        <ele>98.559959</ele>
        <time>2008-10-05T10:54:57Z</time>
      </trkpt>
      <trkpt lat="43.25613" lon="6.46528">
        <ele>98.153236</ele>
        <time>2008-10-05T10:55:03Z</time>
      </trkpt>
      <trkpt lat="43.25609" lon="6.46513">
        <ele>100.126587</ele>
        <time>2008-10-05T10:55:06Z</time>
      </trkpt>
      <trkpt lat="43.25601" lon="6.46492">
        <ele>102.722672</ele>
        <time>2008-10-05T10:55:11Z</time>
      </trkpt>
      <trkpt lat="43.25601" lon="6.4649">
        <ele>103.21476</ele>
        <time>2008-10-05T10:55:12Z</time>
      </trkpt>
      <trkpt lat="43.2559" lon="6.46477">
        <ele>103.837914</ele>
        <time>2008-10-05T10:55:17Z</time>
      </trkpt>
      <trkpt lat="43.25573" lon="6.46462">
        <ele>101.726692</ele>
        <time>2008-10-05T10:55:27Z</time>
      </trkpt>
      <trkpt lat="43.25568" lon="6.46457">
        <ele>101.124939</ele>
        <time>2008-10-05T10:55:29Z</time>
      </trkpt>
      <trkpt lat="43.25568" lon="6.46453">
        <ele>101.598343</ele>
        <time>2008-10-05T10:55:32Z</time>
      </trkpt>
      <trkpt lat="43.25568" lon="6.46451">
        <ele>101.834274</ele>
        <time>2008-10-05T10:55:35Z</time>
      </trkpt>
      <trkpt lat="43.25568" lon="6.46447">
        <ele>102.304611</ele>
        <time>2008-10-05T10:55:37Z</time>
      </trkpt>
      <trkpt lat="43.25568" lon="6.46442">
        <ele>102.772903</ele>
        <time>2008-10-05T10:55:40Z</time>
      </trkpt>
      <trkpt lat="43.25571" lon="6.46425">
        <ele>105.276512</ele>
        <time>2008-10-05T10:55:48Z</time>
      </trkpt>
      <trkpt lat="43.25577" lon="6.46397">
        <ele>109.151672</ele>
        <time>2008-10-05T10:56:00Z</time>
      </trkpt>
      <trkpt lat="43.25575" lon="6.46382">
        <ele>109.028954</ele>
        <time>2008-10-05T10:56:06Z</time>
      </trkpt>
      <trkpt lat="43.25568" lon="6.46329">
        <ele>106.68367</ele>
        <time>2008-10-05T10:56:24Z</time>
      </trkpt>
      <trkpt lat="43.25571" lon="6.46314">
        <ele>106.432297</ele>
        <time>2008-10-05T10:56:29Z</time>
      </trkpt>
      <trkpt lat="43.25573" lon="6.46307">
        <ele>106.701843</ele>
        <time>2008-10-05T10:56:32Z</time>
      </trkpt>
      <trkpt lat="43.25577" lon="6.46299">
        <ele>107.501381</ele>
        <time>2008-10-05T10:56:36Z</time>
      </trkpt>
      <trkpt lat="43.25583" lon="6.46288">
        <ele>108.955048</ele>
        <time>2008-10-05T10:56:41Z</time>
      </trkpt>
      <trkpt lat="43.25588" lon="6.46284">
        <ele>110.164513</ele>
        <time>2008-10-05T10:56:45Z</time>
      </trkpt>
      <trkpt lat="43.2559" lon="6.46281">
        <ele>110.769241</ele>
        <time>2008-10-05T10:56:47Z</time>
      </trkpt>
      <trkpt lat="43.25598" lon="6.46279">
        <ele>113.394539</ele>
        <time>2008-10-05T10:56:54Z</time>
      </trkpt>
      <trkpt lat="43.25607" lon="6.46275">
        <ele>115.999435</ele>
        <time>2008-10-05T10:57:00Z</time>
      </trkpt>
      <trkpt lat="43.25607" lon="6.46275">
        <ele>115.999435</ele>
        <time>2008-10-05T10:57:01Z</time>
      </trkpt>
      <trkpt lat="43.25613" lon="6.46273">
        <ele>117.995567</ele>
        <time>2008-10-05T10:57:05Z</time>
      </trkpt>
      <trkpt lat="43.2562" lon="6.46271">
        <ele>120.00367</ele>
        <time>2008-10-05T10:57:11Z</time>
      </trkpt>
      <trkpt lat="43.25624" lon="6.46266">
        <ele>121.298752</ele>
        <time>2008-10-05T10:57:15Z</time>
      </trkpt>
      <trkpt lat="43.25626" lon="6.46264">
        <ele>121.951439</ele>
        <time>2008-10-05T10:57:17Z</time>
      </trkpt>
      <trkpt lat="43.25629" lon="6.4626">
        <ele>122.572731</ele>
        <time>2008-10-05T10:57:20Z</time>
      </trkpt>
      <trkpt lat="43.25629" lon="6.46258">
        <ele>122.537788</ele>
        <time>2008-10-05T10:57:21Z</time>
      </trkpt>
      <trkpt lat="43.25629" lon="6.46249">
        <ele>122.396729</ele>
        <time>2008-10-05T10:57:25Z</time>
      </trkpt>
      <trkpt lat="43.25629" lon="6.46241">
        <ele>122.253632</ele>
        <time>2008-10-05T10:57:29Z</time>
      </trkpt>
      <trkpt lat="43.25626" lon="6.46221">
        <ele>121.900688</ele>
        <time>2008-10-05T10:57:35Z</time>
      </trkpt>
      <trkpt lat="43.25626" lon="6.46187">
        <ele>123.332733</ele>
        <time>2008-10-05T10:57:48Z</time>
      </trkpt>
      <trkpt lat="43.25631" lon="6.46153">
        <ele>126.608368</ele>
        <time>2008-10-05T10:58:03Z</time>
      </trkpt>
      <trkpt lat="43.25633" lon="6.46129">
        <ele>128.803436</ele>
        <time>2008-10-05T10:58:14Z</time>
      </trkpt>
      <trkpt lat="43.25637" lon="6.46086">
        <ele>133.613174</ele>
        <time>2008-10-05T10:58:33Z</time>
      </trkpt>
      <trkpt lat="43.25637" lon="6.4608">
        <ele>134.261902</ele>
        <time>2008-10-05T10:58:36Z</time>
      </trkpt>
      <trkpt lat="43.25637" lon="6.46067">
        <ele>135.555908</ele>
        <time>2008-10-05T10:58:41Z</time>
      </trkpt>
      <trkpt lat="43.25635" lon="6.46052">
        <ele>136.472504</ele>
        <time>2008-10-05T10:58:48Z</time>
      </trkpt>
      <trkpt lat="43.25633" lon="6.46007">
        <ele>137.101974</ele>
        <time>2008-10-05T10:59:07Z</time>
      </trkpt>
      <trkpt lat="43.25633" lon="6.46">
        <ele>137.245255</ele>
        <time>2008-10-05T10:59:11Z</time>
      </trkpt>
      <trkpt lat="43.25637" lon="6.45988">
        <ele>138.658997</ele>
        <time>2008-10-05T10:59:17Z</time>
      </trkpt>
      <trkpt lat="43.25644" lon="6.45988">
        <ele>140.353256</ele>
        <time>2008-10-05T10:59:21Z</time>
      </trkpt>
      <trkpt lat="43.25652" lon="6.4599">
        <ele>142.388855</ele>
        <time>2008-10-05T10:59:25Z</time>
      </trkpt>
      <trkpt lat="43.25661" lon="6.45988">
        <ele>143.611008</ele>
        <time>2008-10-05T10:59:30Z</time>
      </trkpt>
      <trkpt lat="43.25667" lon="6.45985">
        <ele>144.409378</ele>
        <time>2008-10-05T10:59:34Z</time>
      </trkpt>
      <trkpt lat="43.2568" lon="6.45981">
        <ele>145.898361</ele>
        <time>2008-10-05T10:59:42Z</time>
      </trkpt>
      <trkpt lat="43.25686" lon="6.45972">
        <ele>145.986877</ele>
        <time>2008-10-05T10:59:46Z</time>
      </trkpt>
      <trkpt lat="43.25708" lon="6.45938">
        <ele>143.746552</ele>
        <time>2008-10-05T10:59:54Z</time>
      </trkpt>
      <trkpt lat="43.25727" lon="6.45917">
        <ele>139.349152</ele>
        <time>2008-10-05T10:59:59Z</time>
      </trkpt>
      <trkpt lat="43.25736" lon="6.4593">
        <ele>142.137207</ele>
        <time>2008-10-05T11:00:02Z</time>
      </trkpt>
      <trkpt lat="43.25747" lon="6.45949">
        <ele>145.489548</ele>
        <time>2008-10-05T11:00:09Z</time>
      </trkpt>
      <trkpt lat="43.25753" lon="6.45957">
        <ele>147.193863</ele>
        <time>2008-10-05T11:00:13Z</time>
      </trkpt>
      <trkpt lat="43.25762" lon="6.45968">
        <ele>149.528214</ele>
        <time>2008-10-05T11:00:21Z</time>
      </trkpt>
      <trkpt lat="43.25766" lon="6.45975">
        <ele>150.959671</ele>
        <time>2008-10-05T11:00:25Z</time>
      </trkpt>
      <trkpt lat="43.25772" lon="6.45981">
        <ele>152.624008</ele>
        <time>2008-10-05T11:00:30Z</time>
      </trkpt>
      <trkpt lat="43.25783" lon="6.45988">
        <ele>154.743454</ele>
        <time>2008-10-05T11:00:36Z</time>
      </trkpt>
      <trkpt lat="43.25792" lon="6.4599">
        <ele>155.74086</ele>
        <time>2008-10-05T11:00:42Z</time>
      </trkpt>
      <trkpt lat="43.25807" lon="6.45998">
        <ele>158.198654</ele>
        <time>2008-10-05T11:00:53Z</time>
      </trkpt>
      <trkpt lat="43.25843" lon="6.45998">
        <ele>159.624313</ele>
        <time>2008-10-05T11:01:12Z</time>
      </trkpt>
      <trkpt lat="43.25852" lon="6.46003">
        <ele>159.965942</ele>
        <time>2008-10-05T11:01:17Z</time>
      </trkpt>
      <trkpt lat="43.25862" lon="6.46005">
        <ele>160.235962</ele>
        <time>2008-10-05T11:01:23Z</time>
      </trkpt>
      <trkpt lat="43.25871" lon="6.46007">
        <ele>160.809494</ele>
        <time>2008-10-05T11:01:28Z</time>
      </trkpt>
      <trkpt lat="43.25882" lon="6.46013">
        <ele>164.661575</ele>
        <time>2008-10-05T11:01:36Z</time>
      </trkpt>
      <trkpt lat="43.25899" lon="6.46024">
        <ele>170.848358</ele>
        <time>2008-10-05T11:01:47Z</time>
      </trkpt>
      <trkpt lat="43.25916" lon="6.46037">
        <ele>175.996979</ele>
        <time>2008-10-05T11:02:00Z</time>
      </trkpt>
      <trkpt lat="43.2592" lon="6.46041">
        <ele>177.17218</ele>
        <time>2008-10-05T11:02:03Z</time>
      </trkpt>
      <trkpt lat="43.25935" lon="6.46045">
        <ele>179.099899</ele>
        <time>2008-10-05T11:02:12Z</time>
      </trkpt>
      <trkpt lat="43.25938" lon="6.46039">
        <ele>178.331284</ele>
        <time>2008-10-05T11:02:15Z</time>
      </trkpt>
      <trkpt lat="43.25938" lon="6.46028">
        <ele>176.751236</ele>
        <time>2008-10-05T11:02:19Z</time>
      </trkpt>
      <trkpt lat="43.25938" lon="6.46022">
        <ele>175.795563</ele>
        <time>2008-10-05T11:02:22Z</time>
      </trkpt>
      <trkpt lat="43.25933" lon="6.45981">
        <ele>173.961288</ele>
        <time>2008-10-05T11:02:39Z</time>
      </trkpt>
      <trkpt lat="43.25933" lon="6.45977">
        <ele>174.062271</ele>
        <time>2008-10-05T11:02:41Z</time>
      </trkpt>
      <trkpt lat="43.25933" lon="6.45966">
        <ele>174.308014</ele>
        <time>2008-10-05T11:02:47Z</time>
      </trkpt>
      <trkpt lat="43.25933" lon="6.45964">
        <ele>174.356018</ele>
        <time>2008-10-05T11:02:48Z</time>
      </trkpt>
      <trkpt lat="43.25933" lon="6.45951">
        <ele>174.636002</ele>
        <time>2008-10-05T11:02:53Z</time>
      </trkpt>
      <trkpt lat="43.25938" lon="6.45949">
        <ele>175.639542</ele>
        <time>2008-10-05T11:02:57Z</time>
      </trkpt>
      <trkpt lat="43.2594" lon="6.45951">
        <ele>176.059479</ele>
        <time>2008-10-05T11:02:58Z</time>
      </trkpt>
      <trkpt lat="43.25944" lon="6.45953">
        <ele>176.941467</ele>
        <time>2008-10-05T11:03:01Z</time>
      </trkpt>
      <trkpt lat="43.25944" lon="6.45957">
        <ele>176.799164</ele>
        <time>2008-10-05T11:03:03Z</time>
      </trkpt>
      <trkpt lat="43.25948" lon="6.45964">
        <ele>177.478577</ele>
        <time>2008-10-05T11:03:07Z</time>
      </trkpt>
      <trkpt lat="43.2595" lon="6.4597">
        <ele>177.662994</ele>
        <time>2008-10-05T11:03:11Z</time>
      </trkpt>
      <trkpt lat="43.25959" lon="6.45985">
        <ele>178.636337</ele>
        <time>2008-10-05T11:03:20Z</time>
      </trkpt>
      <trkpt lat="43.25965" lon="6.45992">
        <ele>179.403839</ele>
        <time>2008-10-05T11:03:24Z</time>
      </trkpt>
      <trkpt lat="43.25974" lon="6.45998">
        <ele>180.119843</ele>
        <time>2008-10-05T11:03:30Z</time>
      </trkpt>
      <trkpt lat="43.25976" lon="6.46">
        <ele>180.282852</ele>
        <time>2008-10-05T11:03:31Z</time>
      </trkpt>
      <trkpt lat="43.25998" lon="6.46022">
        <ele>182.978592</ele>
        <time>2008-10-05T11:03:42Z</time>
      </trkpt>
      <trkpt lat="43.26008" lon="6.4603">
        <ele>184.528107</ele>
        <time>2008-10-05T11:03:48Z</time>
      </trkpt>
      <trkpt lat="43.26017" lon="6.46037">
        <ele>184.828232</ele>
        <time>2008-10-05T11:03:54Z</time>
      </trkpt>
      <trkpt lat="43.26023" lon="6.46048">
        <ele>185.011292</ele>
        <time>2008-10-05T11:04:00Z</time>
      </trkpt>
      <trkpt lat="43.26028" lon="6.46056">
        <ele>185.023361</ele>
        <time>2008-10-05T11:04:05Z</time>
      </trkpt>
      <trkpt lat="43.26032" lon="6.46067">
        <ele>184.913544</ele>
        <time>2008-10-05T11:04:11Z</time>
      </trkpt>
      <trkpt lat="43.2603" lon="6.4608">
        <ele>185.037781</ele>
        <time>2008-10-05T11:04:18Z</time>
      </trkpt>
      <trkpt lat="43.26028" lon="6.46084">
        <ele>185.363083</ele>
        <time>2008-10-05T11:04:24Z</time>
      </trkpt>
      <trkpt lat="43.26028" lon="6.46088">
        <ele>185.56752</ele>
        <time>2008-10-05T11:05:00Z</time>
      </trkpt>
      <trkpt lat="43.26023" lon="6.46093">
        <ele>186.166367</ele>
        <time>2008-10-05T11:06:34Z</time>
      </trkpt>
      <trkpt lat="43.26021" lon="6.46093">
        <ele>186.368469</ele>
        <time>2008-10-05T11:06:37Z</time>
      </trkpt>
      <trkpt lat="43.26019" lon="6.46093">
        <ele>186.572479</ele>
        <time>2008-10-05T11:06:39Z</time>
      </trkpt>
      <trkpt lat="43.26015" lon="6.46099">
        <ele>187.517883</ele>
        <time>2008-10-05T11:06:43Z</time>
      </trkpt>
      <trkpt lat="43.26013" lon="6.46101">
        <ele>187.955856</ele>
        <time>2008-10-05T11:06:44Z</time>
      </trkpt>
      <trkpt lat="43.2601" lon="6.46108">
        <ele>188.81955</ele>
        <time>2008-10-05T11:06:47Z</time>
      </trkpt>
      <trkpt lat="43.2601" lon="6.4611">
        <ele>189.017166</ele>
        <time>2008-10-05T11:06:48Z</time>
      </trkpt>
      <trkpt lat="43.26004" lon="6.46146">
        <ele>193.279236</ele>
        <time>2008-10-05T11:07:05Z</time>
      </trkpt>
      <trkpt lat="43.26" lon="6.46174">
        <ele>195.283264</ele>
        <time>2008-10-05T11:07:18Z</time>
      </trkpt>
      <trkpt lat="43.25998" lon="6.46176">
        <ele>195.799759</ele>
        <time>2008-10-05T11:07:19Z</time>
      </trkpt>
      <trkpt lat="43.25995" lon="6.46178">
        <ele>196.340256</ele>
        <time>2008-10-05T11:07:21Z</time>
      </trkpt>
      <trkpt lat="43.25995" lon="6.46178">
        <ele>196.340256</ele>
        <time>2008-10-05T11:07:22Z</time>
      </trkpt>
      <trkpt lat="43.25995" lon="6.46181">
        <ele>196.464691</ele>
        <time>2008-10-05T11:07:23Z</time>
      </trkpt>
      <trkpt lat="43.25991" lon="6.46189">
        <ele>197.928116</ele>
        <time>2008-10-05T11:07:29Z</time>
      </trkpt>
      <trkpt lat="43.25985" lon="6.46189">
        <ele>199.402618</ele>
        <time>2008-10-05T11:07:46Z</time>
      </trkpt>
      <trkpt lat="43.25985" lon="6.46189">
        <ele>199.402618</ele>
        <time>2008-10-05T11:07:47Z</time>
      </trkpt>
      <trkpt lat="43.25974" lon="6.46209">
        <ele>203.255539</ele>
        <time>2008-10-05T11:08:06Z</time>
      </trkpt>
      <trkpt lat="43.25972" lon="6.46213">
        <ele>204.032074</ele>
        <time>2008-10-05T11:08:11Z</time>
      </trkpt>
      <trkpt lat="43.25968" lon="6.46217">
        <ele>205.4328</ele>
        <time>2008-10-05T11:08:17Z</time>
      </trkpt>
      <trkpt lat="43.25959" lon="6.46224">
        <ele>208.259155</ele>
        <time>2008-10-05T11:08:29Z</time>
      </trkpt>
      <trkpt lat="43.25953" lon="6.46234">
        <ele>210.538315</ele>
        <time>2008-10-05T11:08:41Z</time>
      </trkpt>
      <trkpt lat="43.2595" lon="6.46239">
        <ele>211.216156</ele>
        <time>2008-10-05T11:08:47Z</time>
      </trkpt>
      <trkpt lat="43.25944" lon="6.46243">
        <ele>212.628418</ele>
        <time>2008-10-05T11:08:54Z</time>
      </trkpt>
      <trkpt lat="43.25942" lon="6.46247">
        <ele>213.38559</ele>
        <time>2008-10-05T11:09:00Z</time>
      </trkpt>
      <trkpt lat="43.25938" lon="6.46254">
        <ele>214.764648</ele>
        <time>2008-10-05T11:09:06Z</time>
      </trkpt>
      <trkpt lat="43.25935" lon="6.46258">
        <ele>215.495163</ele>
        <time>2008-10-05T11:09:11Z</time>
      </trkpt>
      <trkpt lat="43.25933" lon="6.4626">
        <ele>216.010773</ele>
        <time>2008-10-05T11:09:15Z</time>
      </trkpt>
      <trkpt lat="43.25933" lon="6.4626">
        <ele>216.010773</ele>
        <time>2008-10-05T11:09:16Z</time>
      </trkpt>
      <trkpt lat="43.25931" lon="6.4626">
        <ele>216.39502</ele>
        <time>2008-10-05T11:09:19Z</time>
      </trkpt>
      <trkpt lat="43.25925" lon="6.46264">
        <ele>217.774277</ele>
        <time>2008-10-05T11:09:29Z</time>
      </trkpt>
      <trkpt lat="43.25922" lon="6.46269">
        <ele>218.373718</ele>
        <time>2008-10-05T11:09:35Z</time>
      </trkpt>
      <trkpt lat="43.2592" lon="6.46273">
        <ele>218.960449</ele>
        <time>2008-10-05T11:09:39Z</time>
      </trkpt>
      <trkpt lat="43.2592" lon="6.46275">
        <ele>219.069885</ele>
        <time>2008-10-05T11:09:41Z</time>
      </trkpt>
      <trkpt lat="43.25918" lon="6.46277">
        <ele>219.534454</ele>
        <time>2008-10-05T11:09:44Z</time>
      </trkpt>
      <trkpt lat="43.25918" lon="6.46277">
        <ele>219.534454</ele>
        <time>2008-10-05T11:09:45Z</time>
      </trkpt>
      <trkpt lat="43.25916" lon="6.46281">
        <ele>220.095734</ele>
        <time>2008-10-05T11:09:48Z</time>
      </trkpt>
      <trkpt lat="43.25916" lon="6.46284">
        <ele>220.19957</ele>
        <time>2008-10-05T11:09:50Z</time>
      </trkpt>
      <trkpt lat="43.25916" lon="6.46286">
        <ele>220.30365</ele>
        <time>2008-10-05T11:09:52Z</time>
      </trkpt>
      <trkpt lat="43.25916" lon="6.46288">
        <ele>220.408005</ele>
        <time>2008-10-05T11:09:55Z</time>
      </trkpt>
      <trkpt lat="43.25916" lon="6.46292">
        <ele>220.617447</ele>
        <time>2008-10-05T11:09:59Z</time>
      </trkpt>
      <trkpt lat="43.25912" lon="6.46299">
        <ele>221.574554</ele>
        <time>2008-10-05T11:10:06Z</time>
      </trkpt>
      <trkpt lat="43.25901" lon="6.46316">
        <ele>222.172516</ele>
        <time>2008-10-05T11:10:23Z</time>
      </trkpt>
      <trkpt lat="43.25895" lon="6.46322">
        <ele>221.057144</ele>
        <time>2008-10-05T11:10:29Z</time>
      </trkpt>
      <trkpt lat="43.25895" lon="6.46337">
        <ele>220.524963</ele>
        <time>2008-10-05T11:10:33Z</time>
      </trkpt>
      <trkpt lat="43.25895" lon="6.46342">
        <ele>220.375214</ele>
        <time>2008-10-05T11:10:34Z</time>
      </trkpt>
      <trkpt lat="43.25892" lon="6.46359">
        <ele>219.424652</ele>
        <time>2008-10-05T11:10:37Z</time>
      </trkpt>
      <trkpt lat="43.25892" lon="6.46408">
        <ele>216.688278</ele>
        <time>2008-10-05T11:10:46Z</time>
      </trkpt>
      <trkpt lat="43.25892" lon="6.46412">
        <ele>216.409317</ele>
        <time>2008-10-05T11:10:47Z</time>
      </trkpt>
      <trkpt lat="43.25892" lon="6.46419">
        <ele>215.992798</ele>
        <time>2008-10-05T11:10:48Z</time>
      </trkpt>
      <trkpt lat="43.25897" lon="6.46438">
        <ele>215.727722</ele>
        <time>2008-10-05T11:10:52Z</time>
      </trkpt>
      <trkpt lat="43.25897" lon="6.46447">
        <ele>215.119629</ele>
        <time>2008-10-05T11:10:54Z</time>
      </trkpt>
      <trkpt lat="43.25897" lon="6.46462">
        <ele>214.050537</ele>
        <time>2008-10-05T11:10:57Z</time>
      </trkpt>
      <trkpt lat="43.25897" lon="6.4647">
        <ele>213.436829</ele>
        <time>2008-10-05T11:10:59Z</time>
      </trkpt>
      <trkpt lat="43.25907" lon="6.4653">
        <ele>210.102692</ele>
        <time>2008-10-05T11:11:10Z</time>
      </trkpt>
      <trkpt lat="43.25912" lon="6.46565">
        <ele>208.485413</ele>
        <time>2008-10-05T11:11:17Z</time>
      </trkpt>
      <trkpt lat="43.25925" lon="6.46597">
        <ele>208.096207</ele>
        <time>2008-10-05T11:11:22Z</time>
      </trkpt>
      <trkpt lat="43.25933" lon="6.46629">
        <ele>208.148773</ele>
        <time>2008-10-05T11:11:28Z</time>
      </trkpt>
      <trkpt lat="43.25935" lon="6.46642">
        <ele>208.17923</ele>
        <time>2008-10-05T11:11:32Z</time>
      </trkpt>
      <trkpt lat="43.2594" lon="6.46655">
        <ele>208.515945</ele>
        <time>2008-10-05T11:11:37Z</time>
      </trkpt>
      <trkpt lat="43.25944" lon="6.46666">
        <ele>208.422302</ele>
        <time>2008-10-05T11:11:41Z</time>
      </trkpt>
      <trkpt lat="43.2595" lon="6.46683">
        <ele>208.550888</ele>
        <time>2008-10-05T11:11:47Z</time>
      </trkpt>
      <trkpt lat="43.25955" lon="6.46702">
        <ele>208.592529</ele>
        <time>2008-10-05T11:11:53Z</time>
      </trkpt>
      <trkpt lat="43.2597" lon="6.4676">
        <ele>209.701523</ele>
        <time>2008-10-05T11:12:04Z</time>
      </trkpt>
      <trkpt lat="43.25978" lon="6.46784">
        <ele>210.894943</ele>
        <time>2008-10-05T11:12:12Z</time>
      </trkpt>
      <trkpt lat="43.25989" lon="6.46833">
        <ele>212.607498</ele>
        <time>2008-10-05T11:12:21Z</time>
      </trkpt>
      <trkpt lat="43.25993" lon="6.46867">
        <ele>214.599503</ele>
        <time>2008-10-05T11:12:27Z</time>
      </trkpt>
      <trkpt lat="43.26002" lon="6.46908">
        <ele>217.25592</ele>
        <time>2008-10-05T11:12:35Z</time>
      </trkpt>
      <trkpt lat="43.26008" lon="6.46938">
        <ele>219.512253</ele>
        <time>2008-10-05T11:12:41Z</time>
      </trkpt>
      <trkpt lat="43.26008" lon="6.4694">
        <ele>219.614899</ele>
        <time>2008-10-05T11:12:42Z</time>
      </trkpt>
      <trkpt lat="43.26008" lon="6.46945">
        <ele>219.820953</ele>
        <time>2008-10-05T11:12:44Z</time>
      </trkpt>
      <trkpt lat="43.2601" lon="6.46949">
        <ele>220.372147</ele>
        <time>2008-10-05T11:12:46Z</time>
      </trkpt>
      <trkpt lat="43.26017" lon="6.46964">
        <ele>222.227295</ele>
        <time>2008-10-05T11:12:53Z</time>
      </trkpt>
      <trkpt lat="43.26023" lon="6.46979">
        <ele>223.000214</ele>
        <time>2008-10-05T11:12:59Z</time>
      </trkpt>
      <trkpt lat="43.26028" lon="6.47071">
        <ele>220.955643</ele>
        <time>2008-10-05T11:13:25Z</time>
      </trkpt>
      <trkpt lat="43.26028" lon="6.47084">
        <ele>219.418915</ele>
        <time>2008-10-05T11:13:29Z</time>
      </trkpt>
      <trkpt lat="43.2603" lon="6.47093">
        <ele>218.387009</ele>
        <time>2008-10-05T11:13:31Z</time>
      </trkpt>
      <trkpt lat="43.2603" lon="6.47099">
        <ele>217.610397</ele>
        <time>2008-10-05T11:13:32Z</time>
      </trkpt>
      <trkpt lat="43.26043" lon="6.47133">
        <ele>212.984512</ele>
        <time>2008-10-05T11:13:38Z</time>
      </trkpt>
      <trkpt lat="43.26049" lon="6.47155">
        <ele>209.713989</ele>
        <time>2008-10-05T11:13:42Z</time>
      </trkpt>
      <trkpt lat="43.2606" lon="6.47176">
        <ele>207.121094</ele>
        <time>2008-10-05T11:13:47Z</time>
      </trkpt>
      <trkpt lat="43.26066" lon="6.47191">
        <ele>205.704437</ele>
        <time>2008-10-05T11:13:50Z</time>
      </trkpt>
      <trkpt lat="43.26073" lon="6.47208">
        <ele>204.127106</ele>
        <time>2008-10-05T11:13:53Z</time>
      </trkpt>
      <trkpt lat="43.26079" lon="6.47217">
        <ele>204.041046</ele>
        <time>2008-10-05T11:13:55Z</time>
      </trkpt>
      <trkpt lat="43.26094" lon="6.47234">
        <ele>204.992355</ele>
        <time>2008-10-05T11:14:00Z</time>
      </trkpt>
      <trkpt lat="43.26094" lon="6.47238">
        <ele>204.65358</ele>
        <time>2008-10-05T11:14:01Z</time>
      </trkpt>
      <trkpt lat="43.26105" lon="6.47251">
        <ele>204.475845</ele>
        <time>2008-10-05T11:14:08Z</time>
      </trkpt>
      <trkpt lat="43.26109" lon="6.4726">
        <ele>204.241379</ele>
        <time>2008-10-05T11:14:12Z</time>
      </trkpt>
      <trkpt lat="43.26113" lon="6.47275">
        <ele>203.926987</ele>
        <time>2008-10-05T11:14:18Z</time>
      </trkpt>
      <trkpt lat="43.26135" lon="6.47378">
        <ele>203.754913</ele>
        <time>2008-10-05T11:14:45Z</time>
      </trkpt>
      <trkpt lat="43.26137" lon="6.47389">
        <ele>203.138947</ele>
        <time>2008-10-05T11:14:47Z</time>
      </trkpt>
      <trkpt lat="43.26146" lon="6.47432">
        <ele>199.922012</ele>
        <time>2008-10-05T11:14:55Z</time>
      </trkpt>
      <trkpt lat="43.26148" lon="6.47447">
        <ele>198.738586</ele>
        <time>2008-10-05T11:14:58Z</time>
      </trkpt>
      <trkpt lat="43.26148" lon="6.47453">
        <ele>198.151001</ele>
        <time>2008-10-05T11:14:59Z</time>
      </trkpt>
      <trkpt lat="43.2615" lon="6.4746">
        <ele>197.688858</ele>
        <time>2008-10-05T11:15:00Z</time>
      </trkpt>
      <trkpt lat="43.26161" lon="6.47483">
        <ele>196.618134</ele>
        <time>2008-10-05T11:15:03Z</time>
      </trkpt>
      <trkpt lat="43.26163" lon="6.47492">
        <ele>196.244263</ele>
        <time>2008-10-05T11:15:04Z</time>
      </trkpt>
      <trkpt lat="43.26176" lon="6.47522">
        <ele>196.128204</ele>
        <time>2008-10-05T11:15:08Z</time>
      </trkpt>
      <trkpt lat="43.26197" lon="6.47599">
        <ele>191.923996</ele>
        <time>2008-10-05T11:15:18Z</time>
      </trkpt>
      <trkpt lat="43.26208" lon="6.47635">
        <ele>189.306992</ele>
        <time>2008-10-05T11:15:23Z</time>
      </trkpt>
      <trkpt lat="43.2621" lon="6.47644">
        <ele>188.348587</ele>
        <time>2008-10-05T11:15:24Z</time>
      </trkpt>
      <trkpt lat="43.26219" lon="6.47687">
        <ele>183.523483</ele>
        <time>2008-10-05T11:15:30Z</time>
      </trkpt>
      <trkpt lat="43.26227" lon="6.47719">
        <ele>179.35614</ele>
        <time>2008-10-05T11:15:35Z</time>
      </trkpt>
      <trkpt lat="43.26236" lon="6.47743">
        <ele>176.575699</ele>
        <time>2008-10-05T11:15:40Z</time>
      </trkpt>
      <trkpt lat="43.26238" lon="6.47747">
        <ele>176.132217</ele>
        <time>2008-10-05T11:15:41Z</time>
      </trkpt>
      <trkpt lat="43.26242" lon="6.4776">
        <ele>174.676987</ele>
        <time>2008-10-05T11:15:44Z</time>
      </trkpt>
      <trkpt lat="43.26247" lon="6.47768">
        <ele>173.692734</ele>
        <time>2008-10-05T11:15:46Z</time>
      </trkpt>
      <trkpt lat="43.26247" lon="6.47773">
        <ele>173.086212</ele>
        <time>2008-10-05T11:15:47Z</time>
      </trkpt>
      <trkpt lat="43.26251" lon="6.47796">
        <ele>169.91301</ele>
        <time>2008-10-05T11:15:52Z</time>
      </trkpt>
      <trkpt lat="43.26251" lon="6.47801">
        <ele>169.296524</ele>
        <time>2008-10-05T11:15:53Z</time>
      </trkpt>
      <trkpt lat="43.26259" lon="6.47826">
        <ele>165.319962</ele>
        <time>2008-10-05T11:15:59Z</time>
      </trkpt>
      <trkpt lat="43.26259" lon="6.47831">
        <ele>164.605865</ele>
        <time>2008-10-05T11:16:00Z</time>
      </trkpt>
      <trkpt lat="43.26264" lon="6.47848">
        <ele>161.558456</ele>
        <time>2008-10-05T11:16:04Z</time>
      </trkpt>
      <trkpt lat="43.26264" lon="6.47852">
        <ele>160.835175</ele>
        <time>2008-10-05T11:16:05Z</time>
      </trkpt>
      <trkpt lat="43.26268" lon="6.47871">
        <ele>157.352615</ele>
        <time>2008-10-05T11:16:10Z</time>
      </trkpt>
      <trkpt lat="43.26268" lon="6.47876">
        <ele>156.619888</ele>
        <time>2008-10-05T11:16:11Z</time>
      </trkpt>
      <trkpt lat="43.26266" lon="6.47889">
        <ele>154.542496</ele>
        <time>2008-10-05T11:16:15Z</time>
      </trkpt>
      <trkpt lat="43.26264" lon="6.47895">
        <ele>153.574203</ele>
        <time>2008-10-05T11:16:17Z</time>
      </trkpt>
      <trkpt lat="43.26259" lon="6.47906">
        <ele>152.026413</ele>
        <time>2008-10-05T11:16:20Z</time>
      </trkpt>
      <trkpt lat="43.26253" lon="6.47919">
        <ele>150.299011</ele>
        <time>2008-10-05T11:16:24Z</time>
      </trkpt>
      <trkpt lat="43.26253" lon="6.47923">
        <ele>149.583862</ele>
        <time>2008-10-05T11:16:25Z</time>
      </trkpt>
      <trkpt lat="43.26249" lon="6.47936">
        <ele>147.654526</ele>
        <time>2008-10-05T11:16:29Z</time>
      </trkpt>
      <trkpt lat="43.26257" lon="6.47947">
        <ele>145.735001</ele>
        <time>2008-10-05T11:16:32Z</time>
      </trkpt>
      <trkpt lat="43.26268" lon="6.47964">
        <ele>143.404587</ele>
        <time>2008-10-05T11:16:36Z</time>
      </trkpt>
      <trkpt lat="43.26272" lon="6.47983">
        <ele>141.523422</ele>
        <time>2008-10-05T11:16:39Z</time>
      </trkpt>
      <trkpt lat="43.26272" lon="6.47996">
        <ele>140.472641</ele>
        <time>2008-10-05T11:16:41Z</time>
      </trkpt>
      <trkpt lat="43.26257" lon="6.48005">
        <ele>140.641174</ele>
        <time>2008-10-05T11:16:45Z</time>
      </trkpt>
      <trkpt lat="43.26251" lon="6.48005">
        <ele>140.898422</ele>
        <time>2008-10-05T11:16:46Z</time>
      </trkpt>
      <trkpt lat="43.26225" lon="6.48">
        <ele>137.085892</ele>
        <time>2008-10-05T11:16:50Z</time>
      </trkpt>
      <trkpt lat="43.2621" lon="6.48007">
        <ele>133.771774</ele>
        <time>2008-10-05T11:16:53Z</time>
      </trkpt>
      <trkpt lat="43.26206" lon="6.48009">
        <ele>132.678162</ele>
        <time>2008-10-05T11:16:54Z</time>
      </trkpt>
      <trkpt lat="43.26204" lon="6.48009">
        <ele>132.216278</ele>
        <time>2008-10-05T11:16:55Z</time>
      </trkpt>
      <trkpt lat="43.26186" lon="6.48009">
        <ele>127.353439</ele>
        <time>2008-10-05T11:17:01Z</time>
      </trkpt>
      <trkpt lat="43.26184" lon="6.48009">
        <ele>126.723488</ele>
        <time>2008-10-05T11:17:02Z</time>
      </trkpt>
      <trkpt lat="43.26176" lon="6.48011">
        <ele>123.893402</ele>
        <time>2008-10-05T11:17:05Z</time>
      </trkpt>
      <trkpt lat="43.26174" lon="6.48011">
        <ele>123.252014</ele>
        <time>2008-10-05T11:17:06Z</time>
      </trkpt>
      <trkpt lat="43.26165" lon="6.48013">
        <ele>120.343559</ele>
        <time>2008-10-05T11:17:09Z</time>
      </trkpt>
      <trkpt lat="43.26161" lon="6.48013">
        <ele>119.036964</ele>
        <time>2008-10-05T11:17:11Z</time>
      </trkpt>
      <trkpt lat="43.26152" lon="6.48009">
        <ele>117.331032</ele>
        <time>2008-10-05T11:17:14Z</time>
      </trkpt>
      <trkpt lat="43.26148" lon="6.48005">
        <ele>116.943039</ele>
        <time>2008-10-05T11:17:15Z</time>
      </trkpt>
      <trkpt lat="43.26139" lon="6.47996">
        <ele>116.205513</ele>
        <time>2008-10-05T11:17:17Z</time>
      </trkpt>
      <trkpt lat="43.26133" lon="6.47994">
        <ele>114.921463</ele>
        <time>2008-10-05T11:17:20Z</time>
      </trkpt>
      <trkpt lat="43.26128" lon="6.47994">
        <ele>113.81282</ele>
        <time>2008-10-05T11:17:22Z</time>
      </trkpt>
      <trkpt lat="43.26124" lon="6.47996">
        <ele>112.314491</ele>
        <time>2008-10-05T11:17:24Z</time>
      </trkpt>
      <trkpt lat="43.26113" lon="6.48002">
        <ele>108.337738</ele>
        <time>2008-10-05T11:17:28Z</time>
      </trkpt>
      <trkpt lat="43.26105" lon="6.48009">
        <ele>105.198769</ele>
        <time>2008-10-05T11:17:31Z</time>
      </trkpt>
      <trkpt lat="43.26094" lon="6.48022">
        <ele>100.709877</ele>
        <time>2008-10-05T11:17:36Z</time>
      </trkpt>
      <trkpt lat="43.26086" lon="6.48035">
        <ele>96.922272</ele>
        <time>2008-10-05T11:17:41Z</time>
      </trkpt>
      <trkpt lat="43.26081" lon="6.48039">
        <ele>95.453651</ele>
        <time>2008-10-05T11:17:42Z</time>
      </trkpt>
      <trkpt lat="43.26075" lon="6.48043">
        <ele>93.650223</ele>
        <time>2008-10-05T11:17:45Z</time>
      </trkpt>
      <trkpt lat="43.26068" lon="6.48054">
        <ele>91.132378</ele>
        <time>2008-10-05T11:17:48Z</time>
      </trkpt>
      <trkpt lat="43.26066" lon="6.48056">
        <ele>90.545013</ele>
        <time>2008-10-05T11:17:49Z</time>
      </trkpt>
      <trkpt lat="43.26062" lon="6.48069">
        <ele>88.499893</ele>
        <time>2008-10-05T11:17:52Z</time>
      </trkpt>
      <trkpt lat="43.2606" lon="6.48073">
        <ele>87.730171</ele>
        <time>2008-10-05T11:17:53Z</time>
      </trkpt>
      <trkpt lat="43.26056" lon="6.48088">
        <ele>85.491814</ele>
        <time>2008-10-05T11:17:57Z</time>
      </trkpt>
      <trkpt lat="43.26049" lon="6.48101">
        <ele>83.182648</ele>
        <time>2008-10-05T11:18:00Z</time>
      </trkpt>
      <trkpt lat="43.26045" lon="6.48118">
        <ele>81.324524</ele>
        <time>2008-10-05T11:18:04Z</time>
      </trkpt>
      <trkpt lat="43.26041" lon="6.48129">
        <ele>80.351349</ele>
        <time>2008-10-05T11:18:06Z</time>
      </trkpt>
      <trkpt lat="43.26032" lon="6.48148">
        <ele>78.392487</ele>
        <time>2008-10-05T11:18:10Z</time>
      </trkpt>
      <trkpt lat="43.26032" lon="6.48153">
        <ele>78.232185</ele>
        <time>2008-10-05T11:18:11Z</time>
      </trkpt>
      <trkpt lat="43.26021" lon="6.48155">
        <ele>76.508392</ele>
        <time>2008-10-05T11:18:14Z</time>
      </trkpt>
      <trkpt lat="43.26017" lon="6.48155">
        <ele>75.849174</ele>
        <time>2008-10-05T11:18:15Z</time>
      </trkpt>
      <trkpt lat="43.26013" lon="6.48159">
        <ele>75.292854</ele>
        <time>2008-10-05T11:18:17Z</time>
      </trkpt>
      <trkpt lat="43.26004" lon="6.48157">
        <ele>74.828094</ele>
        <time>2008-10-05T11:18:19Z</time>
      </trkpt>
      <trkpt lat="43.25995" lon="6.48174">
        <ele>73.588028</ele>
        <time>2008-10-05T11:18:25Z</time>
      </trkpt>
      <trkpt lat="43.25998" lon="6.48185">
        <ele>73.637482</ele>
        <time>2008-10-05T11:18:28Z</time>
      </trkpt>
      <trkpt lat="43.26002" lon="6.48206">
        <ele>73.853676</ele>
        <time>2008-10-05T11:18:33Z</time>
      </trkpt>
      <trkpt lat="43.2603" lon="6.48283">
        <ele>79.359016</ele>
        <time>2008-10-05T11:18:53Z</time>
      </trkpt>
      <trkpt lat="43.26025" lon="6.48303">
        <ele>78.902756</ele>
        <time>2008-10-05T11:18:58Z</time>
      </trkpt>
      <trkpt lat="43.26023" lon="6.48307">
        <ele>78.505173</ele>
        <time>2008-10-05T11:19:00Z</time>
      </trkpt>
      <trkpt lat="43.26021" lon="6.48316">
        <ele>78.230095</ele>
        <time>2008-10-05T11:19:03Z</time>
      </trkpt>
      <trkpt lat="43.26021" lon="6.48339">
        <ele>78.947983</ele>
        <time>2008-10-05T11:19:11Z</time>
      </trkpt>
      <trkpt lat="43.26015" lon="6.48376">
        <ele>78.1054</ele>
        <time>2008-10-05T11:19:22Z</time>
      </trkpt>
      <trkpt lat="43.26013" lon="6.48397">
        <ele>77.997978</ele>
        <time>2008-10-05T11:19:29Z</time>
      </trkpt>
      <trkpt lat="43.26021" lon="6.48408">
        <ele>79.977554</ele>
        <time>2008-10-05T11:19:33Z</time>
      </trkpt>
      <trkpt lat="43.26038" lon="6.48427">
        <ele>83.488274</ele>
        <time>2008-10-05T11:19:41Z</time>
      </trkpt>
      <trkpt lat="43.26047" lon="6.48447">
        <ele>85.022942</ele>
        <time>2008-10-05T11:19:47Z</time>
      </trkpt>
      <trkpt lat="43.26049" lon="6.48453">
        <ele>85.3526</ele>
        <time>2008-10-05T11:19:49Z</time>
      </trkpt>
      <trkpt lat="43.26051" lon="6.48464">
        <ele>85.428688</ele>
        <time>2008-10-05T11:19:53Z</time>
      </trkpt>
      <trkpt lat="43.26056" lon="6.48479">
        <ele>85.354752</ele>
        <time>2008-10-05T11:19:59Z</time>
      </trkpt>
      <trkpt lat="43.26062" lon="6.48479">
        <ele>85.682068</ele>
        <time>2008-10-05T11:20:02Z</time>
      </trkpt>
      <trkpt lat="43.26064" lon="6.48481">
        <ele>85.68647</ele>
        <time>2008-10-05T11:20:03Z</time>
      </trkpt>
      <trkpt lat="43.26083" lon="6.48487">
        <ele>85.952522</ele>
        <time>2008-10-05T11:20:12Z</time>
      </trkpt>
      <trkpt lat="43.26086" lon="6.48515">
        <ele>82.670441</ele>
        <time>2008-10-05T11:20:18Z</time>
      </trkpt>
      <trkpt lat="43.26083" lon="6.4852">
        <ele>82.116249</ele>
        <time>2008-10-05T11:20:19Z</time>
      </trkpt>
      <trkpt lat="43.26077" lon="6.48535">
        <ele>80.321899</ele>
        <time>2008-10-05T11:20:21Z</time>
      </trkpt>
      <trkpt lat="43.26071" lon="6.48545">
        <ele>79.23484</ele>
        <time>2008-10-05T11:20:23Z</time>
      </trkpt>
      <trkpt lat="43.26058" lon="6.48558">
        <ele>78.338837</ele>
        <time>2008-10-05T11:20:27Z</time>
      </trkpt>
      <trkpt lat="43.26023" lon="6.48595">
        <ele>75.007584</ele>
        <time>2008-10-05T11:20:36Z</time>
      </trkpt>
      <trkpt lat="43.26006" lon="6.4862">
        <ele>72.718422</ele>
        <time>2008-10-05T11:20:41Z</time>
      </trkpt>
      <trkpt lat="43.26" lon="6.48642">
        <ele>71.213799</ele>
        <time>2008-10-05T11:20:44Z</time>
      </trkpt>
      <trkpt lat="43.25993" lon="6.48659">
        <ele>69.792809</ele>
        <time>2008-10-05T11:20:46Z</time>
      </trkpt>
      <trkpt lat="43.25987" lon="6.48672">
        <ele>68.130562</ele>
        <time>2008-10-05T11:20:48Z</time>
      </trkpt>
      <trkpt lat="43.25965" lon="6.48717">
        <ele>63.552647</ele>
        <time>2008-10-05T11:20:54Z</time>
      </trkpt>
      <trkpt lat="43.2595" lon="6.48745">
        <ele>61.356232</ele>
        <time>2008-10-05T11:20:58Z</time>
      </trkpt>
      <trkpt lat="43.25948" lon="6.48751">
        <ele>60.885681</ele>
        <time>2008-10-05T11:20:59Z</time>
      </trkpt>
      <trkpt lat="43.25942" lon="6.48779">
        <ele>58.806274</ele>
        <time>2008-10-05T11:21:03Z</time>
      </trkpt>
      <trkpt lat="43.25935" lon="6.48805">
        <ele>57.279266</ele>
        <time>2008-10-05T11:21:06Z</time>
      </trkpt>
      <trkpt lat="43.25935" lon="6.48826">
        <ele>56.270367</ele>
        <time>2008-10-05T11:21:09Z</time>
      </trkpt>
      <trkpt lat="43.25944" lon="6.48837">
        <ele>56.177734</ele>
        <time>2008-10-05T11:21:12Z</time>
      </trkpt>
      <trkpt lat="43.2597" lon="6.48841">
        <ele>56.653091</ele>
        <time>2008-10-05T11:21:18Z</time>
      </trkpt>
      <trkpt lat="43.26062" lon="6.48852">
        <ele>57.60532</ele>
        <time>2008-10-05T11:21:38Z</time>
      </trkpt>
      <trkpt lat="43.26098" lon="6.48863">
        <ele>59.24263</ele>
        <time>2008-10-05T11:21:47Z</time>
      </trkpt>
      <trkpt lat="43.26105" lon="6.48869">
        <ele>59.606895</ele>
        <time>2008-10-05T11:21:49Z</time>
      </trkpt>
      <trkpt lat="43.26128" lon="6.48923">
        <ele>60.720631</ele>
        <time>2008-10-05T11:22:02Z</time>
      </trkpt>
      <trkpt lat="43.26148" lon="6.49004">
        <ele>63.647671</ele>
        <time>2008-10-05T11:22:20Z</time>
      </trkpt>
      <trkpt lat="43.2615" lon="6.49015">
        <ele>64.136032</ele>
        <time>2008-10-05T11:22:23Z</time>
      </trkpt>
      <trkpt lat="43.26152" lon="6.49039">
        <ele>65.058128</ele>
        <time>2008-10-05T11:22:30Z</time>
      </trkpt>
      <trkpt lat="43.26154" lon="6.49058">
        <ele>66.159416</ele>
        <time>2008-10-05T11:22:36Z</time>
      </trkpt>
      <trkpt lat="43.26156" lon="6.49097">
        <ele>68.334106</ele>
        <time>2008-10-05T11:22:48Z</time>
      </trkpt>
      <trkpt lat="43.26154" lon="6.49131">
        <ele>69.874695</ele>
        <time>2008-10-05T11:22:59Z</time>
      </trkpt>
      <trkpt lat="43.26146" lon="6.49168">
        <ele>70.676666</ele>
        <time>2008-10-05T11:23:11Z</time>
      </trkpt>
      <trkpt lat="43.26148" lon="6.49198">
        <ele>72.574173</ele>
        <time>2008-10-05T11:23:24Z</time>
      </trkpt>
      <trkpt lat="43.2615" lon="6.49208">
        <ele>73.430954</ele>
        <time>2008-10-05T11:23:29Z</time>
      </trkpt>
      <trkpt lat="43.26154" lon="6.49221">
        <ele>74.681969</ele>
        <time>2008-10-05T11:23:35Z</time>
      </trkpt>
      <trkpt lat="43.26165" lon="6.49223">
        <ele>76.216202</ele>
        <time>2008-10-05T11:23:40Z</time>
      </trkpt>
      <trkpt lat="43.26167" lon="6.49225">
        <ele>76.598175</ele>
        <time>2008-10-05T11:23:42Z</time>
      </trkpt>
      <trkpt lat="43.26174" lon="6.4924">
        <ele>77.622093</ele>
        <time>2008-10-05T11:23:49Z</time>
      </trkpt>
      <trkpt lat="43.26174" lon="6.49253">
        <ele>77.70752</ele>
        <time>2008-10-05T11:23:53Z</time>
      </trkpt>
      <trkpt lat="43.26165" lon="6.49268">
        <ele>76.909431</ele>
        <time>2008-10-05T11:23:56Z</time>
      </trkpt>
      <trkpt lat="43.26116" lon="6.49352">
        <ele>74.551399</ele>
        <time>2008-10-05T11:24:11Z</time>
      </trkpt>
      <trkpt lat="43.26113" lon="6.49354">
        <ele>74.494072</ele>
        <time>2008-10-05T11:24:12Z</time>
      </trkpt>
      <trkpt lat="43.26101" lon="6.49369">
        <ele>74.280128</ele>
        <time>2008-10-05T11:24:17Z</time>
      </trkpt>
      <trkpt lat="43.26075" lon="6.49412">
        <ele>73.816833</ele>
        <time>2008-10-05T11:24:28Z</time>
      </trkpt>
      <trkpt lat="43.26068" lon="6.49423">
        <ele>73.5793</ele>
        <time>2008-10-05T11:24:30Z</time>
      </trkpt>
      <trkpt lat="43.26064" lon="6.49446">
        <ele>73.47541</ele>
        <time>2008-10-05T11:24:33Z</time>
      </trkpt>
      <trkpt lat="43.26053" lon="6.49556">
        <ele>75.558319</ele>
        <time>2008-10-05T11:24:50Z</time>
      </trkpt>
      <trkpt lat="43.26056" lon="6.49558">
        <ele>75.716049</ele>
        <time>2008-10-05T11:24:51Z</time>
      </trkpt>
      <trkpt lat="43.26053" lon="6.49567">
        <ele>75.762764</ele>
        <time>2008-10-05T11:24:53Z</time>
      </trkpt>
      <trkpt lat="43.26051" lon="6.4958">
        <ele>75.878418</ele>
        <time>2008-10-05T11:24:57Z</time>
      </trkpt>
      <trkpt lat="43.26062" lon="6.49592">
        <ele>76.779488</ele>
        <time>2008-10-05T11:25:03Z</time>
      </trkpt>
      <trkpt lat="43.26062" lon="6.49595">
        <ele>76.794083</ele>
        <time>2008-10-05T11:25:04Z</time>
      </trkpt>
      <trkpt lat="43.26064" lon="6.49603">
        <ele>77.007217</ele>
        <time>2008-10-05T11:25:11Z</time>
      </trkpt>
      <trkpt lat="43.26064" lon="6.49605">
        <ele>77.024109</ele>
        <time>2008-10-05T11:25:13Z</time>
      </trkpt>
      <trkpt lat="43.26064" lon="6.49605">
        <ele>77.024109</ele>
        <time>2008-10-05T11:25:29Z</time>
      </trkpt>
      <trkpt lat="43.26064" lon="6.49597">
        <ele>76.957306</ele>
        <time>2008-10-05T11:25:35Z</time>
      </trkpt>
      <trkpt lat="43.26053" lon="6.4959">
        <ele>76.188499</ele>
        <time>2008-10-05T11:25:52Z</time>
      </trkpt>
      <trkpt lat="43.26053" lon="6.4959">
        <ele>76.188499</ele>
        <time>2008-10-05T11:25:54Z</time>
      </trkpt>
      <trkpt lat="43.26056" lon="6.4959">
        <ele>76.332993</ele>
        <time>2008-10-05T11:26:04Z</time>
      </trkpt>
      <trkpt lat="43.26058" lon="6.49592">
        <ele>76.488396</ele>
        <time>2008-10-05T11:26:10Z</time>
      </trkpt>
      <trkpt lat="43.2606" lon="6.49595">
        <ele>76.646996</ele>
        <time>2008-10-05T11:26:13Z</time>
      </trkpt>
      <trkpt lat="43.26062" lon="6.49597">
        <ele>76.808807</ele>
        <time>2008-10-05T11:26:18Z</time>
      </trkpt>
      <trkpt lat="43.26066" lon="6.49601">
        <ele>77.142029</ele>
        <time>2008-10-05T11:26:22Z</time>
      </trkpt>
      <trkpt lat="43.26073" lon="6.4961">
        <ele>77.689674</ele>
        <time>2008-10-05T11:26:29Z</time>
      </trkpt>
      <trkpt lat="43.26086" lon="6.49618">
        <ele>78.765732</ele>
        <time>2008-10-05T11:26:37Z</time>
      </trkpt>
      <trkpt lat="43.26092" lon="6.4962">
        <ele>79.291641</ele>
        <time>2008-10-05T11:26:42Z</time>
      </trkpt>
      <trkpt lat="43.26096" lon="6.49618">
        <ele>79.552994</ele>
        <time>2008-10-05T11:26:44Z</time>
      </trkpt>
      <trkpt lat="43.26103" lon="6.49616">
        <ele>79.901367</ele>
        <time>2008-10-05T11:26:48Z</time>
      </trkpt>
      <trkpt lat="43.26109" lon="6.49622">
        <ele>80.477165</ele>
        <time>2008-10-05T11:26:54Z</time>
      </trkpt>
      <trkpt lat="43.26109" lon="6.49629">
        <ele>80.668411</ele>
        <time>2008-10-05T11:26:57Z</time>
      </trkpt>
      <trkpt lat="43.2612" lon="6.49661">
        <ele>82.470795</ele>
        <time>2008-10-05T11:27:12Z</time>
      </trkpt>
      <trkpt lat="43.26124" lon="6.49672">
        <ele>83.020012</ele>
        <time>2008-10-05T11:27:17Z</time>
      </trkpt>
      <trkpt lat="43.26126" lon="6.49674">
        <ele>83.25631</ele>
        <time>2008-10-05T11:27:19Z</time>
      </trkpt>
      <trkpt lat="43.26169" lon="6.49691">
        <ele>86.039894</ele>
        <time>2008-10-05T11:27:44Z</time>
      </trkpt>
      <trkpt lat="43.26178" lon="6.49693">
        <ele>86.509628</ele>
        <time>2008-10-05T11:27:46Z</time>
      </trkpt>
      <trkpt lat="43.26186" lon="6.49702">
        <ele>87.233093</ele>
        <time>2008-10-05T11:27:49Z</time>
      </trkpt>
      <trkpt lat="43.26197" lon="6.49715">
        <ele>88.310982</ele>
        <time>2008-10-05T11:27:53Z</time>
      </trkpt>
      <trkpt lat="43.2624" lon="6.49822">
        <ele>92.069252</ele>
        <time>2008-10-05T11:28:23Z</time>
      </trkpt>
      <trkpt lat="43.26253" lon="6.4985">
        <ele>92.422119</ele>
        <time>2008-10-05T11:28:32Z</time>
      </trkpt>
      <trkpt lat="43.26257" lon="6.49854">
        <ele>92.58094</ele>
        <time>2008-10-05T11:28:34Z</time>
      </trkpt>
      <trkpt lat="43.26259" lon="6.49858">
        <ele>92.666206</ele>
        <time>2008-10-05T11:28:36Z</time>
      </trkpt>
      <trkpt lat="43.2627" lon="6.49865">
        <ele>93.430695</ele>
        <time>2008-10-05T11:28:42Z</time>
      </trkpt>
      <trkpt lat="43.26315" lon="6.49886">
        <ele>97.966217</ele>
        <time>2008-10-05T11:29:08Z</time>
      </trkpt>
      <trkpt lat="43.26322" lon="6.49891">
        <ele>98.588608</ele>
        <time>2008-10-05T11:29:12Z</time>
      </trkpt>
      <trkpt lat="43.26448" lon="6.4982">
        <ele>88.475548</ele>
        <time>2008-10-05T11:29:33Z</time>
      </trkpt>
      <trkpt lat="43.26435" lon="6.49826">
        <ele>89.550034</ele>
        <time>2008-10-05T11:29:34Z</time>
      </trkpt>
      <trkpt lat="43.26433" lon="6.49828">
        <ele>89.84304</ele>
        <time>2008-10-05T11:29:35Z</time>
      </trkpt>
      <trkpt lat="43.26433" lon="6.49837">
        <ele>90.605087</ele>
        <time>2008-10-05T11:29:38Z</time>
      </trkpt>
      <trkpt lat="43.26442" lon="6.49846">
        <ele>90.839127</ele>
        <time>2008-10-05T11:29:44Z</time>
      </trkpt>
      <trkpt lat="43.26444" lon="6.4985">
        <ele>91.053627</ele>
        <time>2008-10-05T11:29:48Z</time>
      </trkpt>
      <trkpt lat="43.26446" lon="6.49852">
        <ele>91.12442</ele>
        <time>2008-10-05T11:29:51Z</time>
      </trkpt>
      <trkpt lat="43.2645" lon="6.49856">
        <ele>91.437805</ele>
        <time>2008-10-05T11:29:55Z</time>
      </trkpt>
      <trkpt lat="43.26455" lon="6.49858">
        <ele>91.582428</ele>
        <time>2008-10-05T11:29:58Z</time>
      </trkpt>
      <trkpt lat="43.26457" lon="6.49858">
        <ele>91.565315</ele>
        <time>2008-10-05T11:29:59Z</time>
      </trkpt>
      <trkpt lat="43.26465" lon="6.49863">
        <ele>91.87429</ele>
        <time>2008-10-05T11:30:05Z</time>
      </trkpt>
      <trkpt lat="43.2647" lon="6.49865">
        <ele>92.06517</ele>
        <time>2008-10-05T11:30:09Z</time>
      </trkpt>
      <trkpt lat="43.26476" lon="6.49878">
        <ele>94.10714</ele>
        <time>2008-10-05T11:30:19Z</time>
      </trkpt>
      <trkpt lat="43.26483" lon="6.49884">
        <ele>95.224319</ele>
        <time>2008-10-05T11:30:24Z</time>
      </trkpt>
      <trkpt lat="43.26487" lon="6.49889">
        <ele>96.017159</ele>
        <time>2008-10-05T11:30:27Z</time>
      </trkpt>
      <trkpt lat="43.26504" lon="6.49906">
        <ele>99.612793</ele>
        <time>2008-10-05T11:30:37Z</time>
      </trkpt>
      <trkpt lat="43.26513" lon="6.4991">
        <ele>100.657318</ele>
        <time>2008-10-05T11:30:42Z</time>
      </trkpt>
      <trkpt lat="43.26519" lon="6.49912">
        <ele>101.247154</ele>
        <time>2008-10-05T11:30:45Z</time>
      </trkpt>
      <trkpt lat="43.2654" lon="6.49914">
        <ele>102.356155</ele>
        <time>2008-10-05T11:30:58Z</time>
      </trkpt>
      <trkpt lat="43.26564" lon="6.49914">
        <ele>103.263084</ele>
        <time>2008-10-05T11:31:12Z</time>
      </trkpt>
      <trkpt lat="43.26592" lon="6.49916">
        <ele>104.619949</ele>
        <time>2008-10-05T11:31:30Z</time>
      </trkpt>
      <trkpt lat="43.26596" lon="6.49919">
        <ele>105.112404</ele>
        <time>2008-10-05T11:31:34Z</time>
      </trkpt>
      <trkpt lat="43.26596" lon="6.49919">
        <ele>105.112404</ele>
        <time>2008-10-05T11:31:37Z</time>
      </trkpt>
      <trkpt lat="43.26598" lon="6.49923">
        <ele>105.886986</ele>
        <time>2008-10-05T11:31:41Z</time>
      </trkpt>
      <trkpt lat="43.26601" lon="6.49929">
        <ele>107.013794</ele>
        <time>2008-10-05T11:31:46Z</time>
      </trkpt>
      <trkpt lat="43.26601" lon="6.49931">
        <ele>107.366035</ele>
        <time>2008-10-05T11:31:47Z</time>
      </trkpt>
      <trkpt lat="43.26603" lon="6.49934">
        <ele>107.788376</ele>
        <time>2008-10-05T11:31:49Z</time>
      </trkpt>
      <trkpt lat="43.26603" lon="6.4994">
        <ele>108.415291</ele>
        <time>2008-10-05T11:31:52Z</time>
      </trkpt>
      <trkpt lat="43.26601" lon="6.49955">
        <ele>109.317863</ele>
        <time>2008-10-05T11:31:59Z</time>
      </trkpt>
      <trkpt lat="43.26598" lon="6.49964">
        <ele>109.831161</ele>
        <time>2008-10-05T11:32:03Z</time>
      </trkpt>
      <trkpt lat="43.26596" lon="6.4997">
        <ele>110.223358</ele>
        <time>2008-10-05T11:32:05Z</time>
      </trkpt>
      <trkpt lat="43.26603" lon="6.50058">
        <ele>108.718048</ele>
        <time>2008-10-05T11:32:31Z</time>
      </trkpt>
      <trkpt lat="43.26605" lon="6.50086">
        <ele>106.663239</ele>
        <time>2008-10-05T11:32:36Z</time>
      </trkpt>
      <trkpt lat="43.26605" lon="6.50092">
        <ele>106.179947</ele>
        <time>2008-10-05T11:32:37Z</time>
      </trkpt>
      <trkpt lat="43.26605" lon="6.50097">
        <ele>105.85968</ele>
        <time>2008-10-05T11:32:38Z</time>
      </trkpt>
      <trkpt lat="43.26603" lon="6.50127">
        <ele>103.293938</ele>
        <time>2008-10-05T11:32:44Z</time>
      </trkpt>
      <trkpt lat="43.26611" lon="6.50202">
        <ele>96.449539</ele>
        <time>2008-10-05T11:33:01Z</time>
      </trkpt>
      <trkpt lat="43.26616" lon="6.50228">
        <ele>93.547852</ele>
        <time>2008-10-05T11:33:07Z</time>
      </trkpt>
      <trkpt lat="43.26618" lon="6.5024">
        <ele>92.053429</ele>
        <time>2008-10-05T11:33:10Z</time>
      </trkpt>
      <trkpt lat="43.2662" lon="6.50264">
        <ele>88.574043</ele>
        <time>2008-10-05T11:33:15Z</time>
      </trkpt>
      <trkpt lat="43.26624" lon="6.50266">
        <ele>88.567818</ele>
        <time>2008-10-05T11:33:16Z</time>
      </trkpt>
      <trkpt lat="43.26628" lon="6.5029">
        <ele>85.131683</ele>
        <time>2008-10-05T11:33:22Z</time>
      </trkpt>
      <trkpt lat="43.26633" lon="6.50305">
        <ele>83.067513</ele>
        <time>2008-10-05T11:33:26Z</time>
      </trkpt>
      <trkpt lat="43.26633" lon="6.50309">
        <ele>82.306328</ele>
        <time>2008-10-05T11:33:27Z</time>
      </trkpt>
      <trkpt lat="43.26637" lon="6.50322">
        <ele>80.038208</ele>
        <time>2008-10-05T11:33:30Z</time>
      </trkpt>
      <trkpt lat="43.26641" lon="6.50335">
        <ele>77.726631</ele>
        <time>2008-10-05T11:33:34Z</time>
      </trkpt>
      <trkpt lat="43.2665" lon="6.50352">
        <ele>74.76638</ele>
        <time>2008-10-05T11:33:39Z</time>
      </trkpt>
      <trkpt lat="43.26654" lon="6.50361">
        <ele>72.967216</ele>
        <time>2008-10-05T11:33:42Z</time>
      </trkpt>
      <trkpt lat="43.26656" lon="6.50363">
        <ele>72.490044</ele>
        <time>2008-10-05T11:33:43Z</time>
      </trkpt>
      <trkpt lat="43.26669" lon="6.50382">
        <ele>68.561859</ele>
        <time>2008-10-05T11:33:49Z</time>
      </trkpt>
      <trkpt lat="43.2668" lon="6.50401">
        <ele>65.145233</ele>
        <time>2008-10-05T11:33:55Z</time>
      </trkpt>
      <trkpt lat="43.26684" lon="6.50408">
        <ele>64.12915</ele>
        <time>2008-10-05T11:33:57Z</time>
      </trkpt>
      <trkpt lat="43.26699" lon="6.50431">
        <ele>60.730904</ele>
        <time>2008-10-05T11:34:03Z</time>
      </trkpt>
      <trkpt lat="43.26708" lon="6.5044">
        <ele>59.65041</ele>
        <time>2008-10-05T11:34:06Z</time>
      </trkpt>
      <trkpt lat="43.26716" lon="6.50455">
        <ele>57.563629</ele>
        <time>2008-10-05T11:34:12Z</time>
      </trkpt>
      <trkpt lat="43.26725" lon="6.50468">
        <ele>55.994961</ele>
        <time>2008-10-05T11:34:16Z</time>
      </trkpt>
      <trkpt lat="43.26727" lon="6.50474">
        <ele>55.142239</ele>
        <time>2008-10-05T11:34:18Z</time>
      </trkpt>
      <trkpt lat="43.26734" lon="6.50487">
        <ele>53.649559</ele>
        <time>2008-10-05T11:34:22Z</time>
      </trkpt>
      <trkpt lat="43.26749" lon="6.50509">
        <ele>49.946308</ele>
        <time>2008-10-05T11:34:27Z</time>
      </trkpt>
      <trkpt lat="43.26757" lon="6.50517">
        <ele>48.517685</ele>
        <time>2008-10-05T11:34:29Z</time>
      </trkpt>
      <trkpt lat="43.26768" lon="6.5053">
        <ele>46.873409</ele>
        <time>2008-10-05T11:34:32Z</time>
      </trkpt>
      <trkpt lat="43.26777" lon="6.50543">
        <ele>45.692795</ele>
        <time>2008-10-05T11:34:34Z</time>
      </trkpt>
      <trkpt lat="43.26789" lon="6.50564">
        <ele>42.992035</ele>
        <time>2008-10-05T11:34:38Z</time>
      </trkpt>
      <trkpt lat="43.26824" lon="6.50609">
        <ele>39.587353</ele>
        <time>2008-10-05T11:34:41Z</time>
      </trkpt>
      <trkpt lat="43.26828" lon="6.50609">
        <ele>38.95306</ele>
        <time>2008-10-05T11:34:42Z</time>
      </trkpt>
      <trkpt lat="43.26834" lon="6.50607">
        <ele>37.989491</ele>
        <time>2008-10-05T11:34:44Z</time>
      </trkpt>
      <trkpt lat="43.26839" lon="6.50603">
        <ele>37.314232</ele>
        <time>2008-10-05T11:34:46Z</time>
      </trkpt>
      <trkpt lat="43.26845" lon="6.50603">
        <ele>36.322086</ele>
        <time>2008-10-05T11:34:47Z</time>
      </trkpt>
      <trkpt lat="43.26852" lon="6.50605">
        <ele>35.360115</ele>
        <time>2008-10-05T11:34:49Z</time>
      </trkpt>
      <trkpt lat="43.26854" lon="6.50603">
        <ele>34.99247</ele>
        <time>2008-10-05T11:34:50Z</time>
      </trkpt>
      <trkpt lat="43.26871" lon="6.50599">
        <ele>32.145233</ele>
        <time>2008-10-05T11:34:55Z</time>
      </trkpt>
      <trkpt lat="43.26875" lon="6.50599">
        <ele>31.425125</ele>
        <time>2008-10-05T11:34:57Z</time>
      </trkpt>
      <trkpt lat="43.26897" lon="6.50599">
        <ele>27.839075</ele>
        <time>2008-10-05T11:35:03Z</time>
      </trkpt>
      <trkpt lat="43.26899" lon="6.50601">
        <ele>27.512535</ele>
        <time>2008-10-05T11:35:04Z</time>
      </trkpt>
      <trkpt lat="43.26903" lon="6.50609">
        <ele>26.903791</ele>
        <time>2008-10-05T11:35:07Z</time>
      </trkpt>
      <trkpt lat="43.2691" lon="6.50622">
        <ele>25.938889</ele>
        <time>2008-10-05T11:35:12Z</time>
      </trkpt>
      <trkpt lat="43.26912" lon="6.50633">
        <ele>25.589981</ele>
        <time>2008-10-05T11:35:17Z</time>
      </trkpt>
      <trkpt lat="43.26912" lon="6.50635">
        <ele>25.599724</ele>
        <time>2008-10-05T11:35:20Z</time>
      </trkpt>
      <trkpt lat="43.26912" lon="6.50635">
        <ele>25.599724</ele>
        <time>2008-10-05T11:35:36Z</time>
      </trkpt>
      <trkpt lat="43.26912" lon="6.50635">
        <ele>25.599724</ele>
        <time>2008-10-05T11:35:41Z</time>
      </trkpt>
      <trkpt lat="43.26912" lon="6.50635">
        <ele>25.599724</ele>
        <time>2008-10-05T11:35:48Z</time>
      </trkpt>
      <trkpt lat="43.26867" lon="6.50715">
        <ele>26.816528</ele>
        <time>2008-10-05T11:35:51Z</time>
      </trkpt>
      <trkpt lat="43.26854" lon="6.50732">
        <ele>25.251293</ele>
        <time>2008-10-05T11:35:57Z</time>
      </trkpt>
      <trkpt lat="43.26852" lon="6.50734">
        <ele>25.051935</ele>
        <time>2008-10-05T11:35:59Z</time>
      </trkpt>
      <trkpt lat="43.26841" lon="6.50743">
        <ele>24.446829</ele>
        <time>2008-10-05T11:36:02Z</time>
      </trkpt>
      <trkpt lat="43.26839" lon="6.50749">
        <ele>23.588875</ele>
        <time>2008-10-05T11:36:04Z</time>
      </trkpt>
      <trkpt lat="43.26837" lon="6.50758">
        <ele>23.172405</ele>
        <time>2008-10-05T11:36:06Z</time>
      </trkpt>
      <trkpt lat="43.26822" lon="6.50764">
        <ele>24.742111</ele>
        <time>2008-10-05T11:36:11Z</time>
      </trkpt>
      <trkpt lat="43.26813" lon="6.50777">
        <ele>25.962492</ele>
        <time>2008-10-05T11:36:16Z</time>
      </trkpt>
      <trkpt lat="43.26815" lon="6.50775">
        <ele>25.688387</ele>
        <time>2008-10-05T11:36:18Z</time>
      </trkpt>
      <trkpt lat="43.26792" lon="6.50781">
        <ele>28.03021</ele>
        <time>2008-10-05T11:36:31Z</time>
      </trkpt>
      <trkpt lat="43.2677" lon="6.50788">
        <ele>29.912649</ele>
        <time>2008-10-05T11:36:43Z</time>
      </trkpt>
      <trkpt lat="43.26742" lon="6.5079">
        <ele>33.596687</ele>
        <time>2008-10-05T11:36:56Z</time>
      </trkpt>
      <trkpt lat="43.26701" lon="6.50798">
        <ele>37.955135</ele>
        <time>2008-10-05T11:37:15Z</time>
      </trkpt>
      <trkpt lat="43.26684" lon="6.50807">
        <ele>39.650166</ele>
        <time>2008-10-05T11:37:25Z</time>
      </trkpt>
      <trkpt lat="43.26682" lon="6.50809">
        <ele>40.225044</ele>
        <time>2008-10-05T11:37:28Z</time>
      </trkpt>
      <trkpt lat="43.2668" lon="6.50811">
        <ele>40.796497</ele>
        <time>2008-10-05T11:37:29Z</time>
      </trkpt>
      <trkpt lat="43.26682" lon="6.50815">
        <ele>41.038342</ele>
        <time>2008-10-05T11:37:32Z</time>
      </trkpt>
      <trkpt lat="43.26682" lon="6.50818">
        <ele>41.3097</ele>
        <time>2008-10-05T11:37:34Z</time>
      </trkpt>
      <trkpt lat="43.26684" lon="6.5082">
        <ele>41.287094</ele>
        <time>2008-10-05T11:37:35Z</time>
      </trkpt>
      <trkpt lat="43.26686" lon="6.50822">
        <ele>41.267689</ele>
        <time>2008-10-05T11:37:37Z</time>
      </trkpt>
      <trkpt lat="43.26699" lon="6.50833">
        <ele>40.932865</ele>
        <time>2008-10-05T11:37:49Z</time>
      </trkpt>
      <trkpt lat="43.2671" lon="6.50839">
        <ele>40.382244</ele>
        <time>2008-10-05T11:37:55Z</time>
      </trkpt>
      <trkpt lat="43.26712" lon="6.50843">
        <ele>40.692017</ele>
        <time>2008-10-05T11:37:57Z</time>
      </trkpt>
      <trkpt lat="43.26714" lon="6.5085">
        <ele>41.30685</ele>
        <time>2008-10-05T11:38:00Z</time>
      </trkpt>
      <trkpt lat="43.26712" lon="6.50858">
        <ele>42.768402</ele>
        <time>2008-10-05T11:38:05Z</time>
      </trkpt>
      <trkpt lat="43.26708" lon="6.50893">
        <ele>47.549294</ele>
        <time>2008-10-05T11:38:22Z</time>
      </trkpt>
      <trkpt lat="43.26708" lon="6.50906">
        <ele>49.043888</ele>
        <time>2008-10-05T11:38:28Z</time>
      </trkpt>
      <trkpt lat="43.26706" lon="6.50908">
        <ele>49.738831</ele>
        <time>2008-10-05T11:38:30Z</time>
      </trkpt>
      <trkpt lat="43.26706" lon="6.50908">
        <ele>49.738831</ele>
        <time>2008-10-05T11:38:30Z</time>
      </trkpt>
      <trkpt lat="43.26701" lon="6.51019">
        <ele>53.005451</ele>
        <time>2008-10-05T11:38:48Z</time>
      </trkpt>
      <trkpt lat="43.26723" lon="6.51015">
        <ele>47.053967</ele>
        <time>2008-10-05T11:38:50Z</time>
      </trkpt>
      <trkpt lat="43.26729" lon="6.5103">
        <ele>43.923843</ele>
        <time>2008-10-05T11:38:53Z</time>
      </trkpt>
      <trkpt lat="43.26727" lon="6.51045">
        <ele>43.424011</ele>
        <time>2008-10-05T11:38:55Z</time>
      </trkpt>
      <trkpt lat="43.26725" lon="6.51086">
        <ele>37.86562</ele>
        <time>2008-10-05T11:39:03Z</time>
      </trkpt>
      <trkpt lat="43.26727" lon="6.51112">
        <ele>32.912426</ele>
        <time>2008-10-05T11:39:09Z</time>
      </trkpt>
      <trkpt lat="43.26684" lon="6.51163">
        <ele>30.938728</ele>
        <time>2008-10-05T11:39:23Z</time>
      </trkpt>
      <trkpt lat="43.26674" lon="6.5118">
        <ele>30.568747</ele>
        <time>2008-10-05T11:39:28Z</time>
      </trkpt>
      <trkpt lat="43.26667" lon="6.51193">
        <ele>30.637796</ele>
        <time>2008-10-05T11:39:32Z</time>
      </trkpt>
      <trkpt lat="43.26665" lon="6.51206">
        <ele>29.58712</ele>
        <time>2008-10-05T11:39:36Z</time>
      </trkpt>
      <trkpt lat="43.26663" lon="6.51208">
        <ele>29.798649</ele>
        <time>2008-10-05T11:39:37Z</time>
      </trkpt>
      <trkpt lat="43.26658" lon="6.51227">
        <ele>28.790598</ele>
        <time>2008-10-05T11:39:43Z</time>
      </trkpt>
      <trkpt lat="43.26658" lon="6.5124">
        <ele>27.51792</ele>
        <time>2008-10-05T11:39:47Z</time>
      </trkpt>
      <trkpt lat="43.26637" lon="6.51292">
        <ele>29.055212</ele>
        <time>2008-10-05T11:40:02Z</time>
      </trkpt>
      <trkpt lat="43.2662" lon="6.51335">
        <ele>25.211067</ele>
        <time>2008-10-05T11:40:12Z</time>
      </trkpt>
      <trkpt lat="43.26618" lon="6.51339">
        <ele>24.757925</ele>
        <time>2008-10-05T11:40:13Z</time>
      </trkpt>
      <trkpt lat="43.26607" lon="6.51358">
        <ele>23.718529</ele>
        <time>2008-10-05T11:40:18Z</time>
      </trkpt>
      <trkpt lat="43.26579" lon="6.51406">
        <ele>23.011503</ele>
        <time>2008-10-05T11:40:29Z</time>
      </trkpt>
      <trkpt lat="43.26504" lon="6.51418">
        <ele>27.008827</ele>
        <time>2008-10-05T11:40:34Z</time>
      </trkpt>
      <trkpt lat="43.26504" lon="6.51418">
        <ele>27.008827</ele>
        <time>2008-10-05T11:40:35Z</time>
      </trkpt>
      <trkpt lat="43.26489" lon="6.51425">
        <ele>26.629301</ele>
        <time>2008-10-05T11:40:41Z</time>
      </trkpt>
      <trkpt lat="43.26483" lon="6.51425">
        <ele>26.771578</ele>
        <time>2008-10-05T11:40:42Z</time>
      </trkpt>
      <trkpt lat="43.26463" lon="6.51425">
        <ele>26.805639</ele>
        <time>2008-10-05T11:40:46Z</time>
      </trkpt>
      <trkpt lat="43.26427" lon="6.51425">
        <ele>26.378092</ele>
        <time>2008-10-05T11:40:55Z</time>
      </trkpt>
      <trkpt lat="43.2642" lon="6.5141">
        <ele>27.179018</ele>
        <time>2008-10-05T11:40:58Z</time>
      </trkpt>
      <trkpt lat="43.26418" lon="6.51406">
        <ele>27.386768</ele>
        <time>2008-10-05T11:40:59Z</time>
      </trkpt>
      <trkpt lat="43.26416" lon="6.51378">
        <ele>28.615042</ele>
        <time>2008-10-05T11:41:07Z</time>
      </trkpt>
      <trkpt lat="43.2642" lon="6.51365">
        <ele>29.317976</ele>
        <time>2008-10-05T11:41:11Z</time>
      </trkpt>
      <trkpt lat="43.2642" lon="6.51363">
        <ele>29.410769</ele>
        <time>2008-10-05T11:41:12Z</time>
      </trkpt>
      <trkpt lat="43.26425" lon="6.51345">
        <ele>30.342619</ele>
        <time>2008-10-05T11:41:18Z</time>
      </trkpt>
      <trkpt lat="43.26425" lon="6.51335">
        <ele>30.89238</ele>
        <time>2008-10-05T11:41:23Z</time>
      </trkpt>
      <trkpt lat="43.26427" lon="6.5132">
        <ele>31.947897</ele>
        <time>2008-10-05T11:41:30Z</time>
      </trkpt>
      <trkpt lat="43.26429" lon="6.51309">
        <ele>32.731991</ele>
        <time>2008-10-05T11:41:35Z</time>
      </trkpt>
      <trkpt lat="43.26437" lon="6.513">
        <ele>33.938126</ele>
        <time>2008-10-05T11:41:41Z</time>
      </trkpt>
      <trkpt lat="43.2644" lon="6.51326">
        <ele>32.524776</ele>
        <time>2008-10-05T11:41:48Z</time>
      </trkpt>
      <trkpt lat="43.26448" lon="6.51333">
        <ele>32.955315</ele>
        <time>2008-10-05T11:41:53Z</time>
      </trkpt>
      <trkpt lat="43.26452" lon="6.51335">
        <ele>33.223869</ele>
        <time>2008-10-05T11:41:55Z</time>
      </trkpt>
      <trkpt lat="43.26459" lon="6.51337">
        <ele>33.691177</ele>
        <time>2008-10-05T11:41:59Z</time>
      </trkpt>
      <trkpt lat="43.26483" lon="6.51343">
        <ele>35.29554</ele>
        <time>2008-10-05T11:42:12Z</time>
      </trkpt>
      <trkpt lat="43.26502" lon="6.51348">
        <ele>36.199783</ele>
        <time>2008-10-05T11:42:21Z</time>
      </trkpt>
      <trkpt lat="43.2651" lon="6.51333">
        <ele>38.955009</ele>
        <time>2008-10-05T11:42:30Z</time>
      </trkpt>
      <trkpt lat="43.2651" lon="6.5132">
        <ele>40.762978</ele>
        <time>2008-10-05T11:42:35Z</time>
      </trkpt>
      <trkpt lat="43.26517" lon="6.51309">
        <ele>43.090416</ele>
        <time>2008-10-05T11:42:42Z</time>
      </trkpt>
      <trkpt lat="43.26519" lon="6.51298">
        <ele>44.982807</ele>
        <time>2008-10-05T11:42:47Z</time>
      </trkpt>
      <trkpt lat="43.26532" lon="6.51277">
        <ele>49.112068</ele>
        <time>2008-10-05T11:43:00Z</time>
      </trkpt>
      <trkpt lat="43.26571" lon="6.51234">
        <ele>53.223156</ele>
        <time>2008-10-05T11:43:27Z</time>
      </trkpt>
      <trkpt lat="43.26573" lon="6.5123">
        <ele>53.441727</ele>
        <time>2008-10-05T11:43:29Z</time>
      </trkpt>
      <trkpt lat="43.26579" lon="6.51217">
        <ele>52.712051</ele>
        <time>2008-10-05T11:43:34Z</time>
      </trkpt>
      <trkpt lat="43.26579" lon="6.51215">
        <ele>52.806973</ele>
        <time>2008-10-05T11:43:35Z</time>
      </trkpt>
      <trkpt lat="43.26583" lon="6.51195">
        <ele>52.666374</ele>
        <time>2008-10-05T11:43:43Z</time>
      </trkpt>
      <trkpt lat="43.26583" lon="6.51189">
        <ele>52.956818</ele>
        <time>2008-10-05T11:43:47Z</time>
      </trkpt>
      <trkpt lat="43.26583" lon="6.51187">
        <ele>53.053375</ele>
        <time>2008-10-05T11:43:48Z</time>
      </trkpt>
      <trkpt lat="43.26581" lon="6.51178">
        <ele>53.919464</ele>
        <time>2008-10-05T11:43:53Z</time>
      </trkpt>
      <trkpt lat="43.26577" lon="6.51161">
        <ele>56.016685</ele>
        <time>2008-10-05T11:44:02Z</time>
      </trkpt>
      <trkpt lat="43.26568" lon="6.51133">
        <ele>61.051956</ele>
        <time>2008-10-05T11:44:18Z</time>
      </trkpt>
      <trkpt lat="43.26568" lon="6.51133">
        <ele>61.051956</ele>
        <time>2008-10-05T11:44:18Z</time>
      </trkpt>
      <trkpt lat="43.26521" lon="6.51142">
        <ele>64.132896</ele>
        <time>2008-10-05T11:44:25Z</time>
      </trkpt>
      <trkpt lat="43.26528" lon="6.51144">
        <ele>64.504768</ele>
        <time>2008-10-05T11:44:26Z</time>
      </trkpt>
      <trkpt lat="43.26521" lon="6.51139">
        <ele>64.363716</ele>
        <time>2008-10-05T11:44:29Z</time>
      </trkpt>
      <trkpt lat="43.26528" lon="6.51124">
        <ele>66.417076</ele>
        <time>2008-10-05T11:44:35Z</time>
      </trkpt>
      <trkpt lat="43.26528" lon="6.51122">
        <ele>66.632141</ele>
        <time>2008-10-05T11:44:36Z</time>
      </trkpt>
      <trkpt lat="43.26525" lon="6.51107">
        <ele>68.065002</ele>
        <time>2008-10-05T11:44:43Z</time>
      </trkpt>
      <trkpt lat="43.26523" lon="6.51103">
        <ele>68.442421</ele>
        <time>2008-10-05T11:44:45Z</time>
      </trkpt>
      <trkpt lat="43.26521" lon="6.51094">
        <ele>69.641472</ele>
        <time>2008-10-05T11:44:50Z</time>
      </trkpt>
      <trkpt lat="43.26513" lon="6.5109">
        <ele>70.060097</ele>
        <time>2008-10-05T11:44:55Z</time>
      </trkpt>
      <trkpt lat="43.26489" lon="6.51079">
        <ele>70.918327</ele>
        <time>2008-10-05T11:45:06Z</time>
      </trkpt>
      <trkpt lat="43.26463" lon="6.51075">
        <ele>69.620628</ele>
        <time>2008-10-05T11:45:13Z</time>
      </trkpt>
      <trkpt lat="43.26431" lon="6.51073">
        <ele>68.044952</ele>
        <time>2008-10-05T11:45:20Z</time>
      </trkpt>
      <trkpt lat="43.26377" lon="6.51069">
        <ele>65.950592</ele>
        <time>2008-10-05T11:45:35Z</time>
      </trkpt>
      <trkpt lat="43.26373" lon="6.51069">
        <ele>65.560425</ele>
        <time>2008-10-05T11:45:36Z</time>
      </trkpt>
      <trkpt lat="43.26373" lon="6.51064">
        <ele>66.118256</ele>
        <time>2008-10-05T11:45:37Z</time>
      </trkpt>
      <trkpt lat="43.26375" lon="6.51049">
        <ele>68.319397</ele>
        <time>2008-10-05T11:45:41Z</time>
      </trkpt>
      <trkpt lat="43.26373" lon="6.51045">
        <ele>68.596535</ele>
        <time>2008-10-05T11:45:42Z</time>
      </trkpt>
      <trkpt lat="43.26371" lon="6.5103">
        <ele>70.14547</ele>
        <time>2008-10-05T11:45:48Z</time>
      </trkpt>
      <trkpt lat="43.26371" lon="6.51026">
        <ele>70.601219</ele>
        <time>2008-10-05T11:45:50Z</time>
      </trkpt>
      <trkpt lat="43.26352" lon="6.50989">
        <ele>69.271523</ele>
        <time>2008-10-05T11:46:02Z</time>
      </trkpt>
      <trkpt lat="43.26354" lon="6.50966">
        <ele>71.075493</ele>
        <time>2008-10-05T11:46:08Z</time>
      </trkpt>
      <trkpt lat="43.26354" lon="6.50961">
        <ele>70.953903</ele>
        <time>2008-10-05T11:46:09Z</time>
      </trkpt>
      <trkpt lat="43.2636" lon="6.50938">
        <ele>70.683372</ele>
        <time>2008-10-05T11:46:14Z</time>
      </trkpt>
      <trkpt lat="43.26367" lon="6.50923">
        <ele>71.049103</ele>
        <time>2008-10-05T11:46:19Z</time>
      </trkpt>
      <trkpt lat="43.26382" lon="6.50897">
        <ele>73.278046</ele>
        <time>2008-10-05T11:46:29Z</time>
      </trkpt>
      <trkpt lat="43.26392" lon="6.50891">
        <ele>75.726967</ele>
        <time>2008-10-05T11:46:35Z</time>
      </trkpt>
      <trkpt lat="43.26403" lon="6.50888">
        <ele>78.227257</ele>
        <time>2008-10-05T11:46:44Z</time>
      </trkpt>
      <trkpt lat="43.26405" lon="6.50888">
        <ele>78.721863</ele>
        <time>2008-10-05T11:46:45Z</time>
      </trkpt>
      <trkpt lat="43.26422" lon="6.5088">
        <ele>80.602119</ele>
        <time>2008-10-05T11:47:00Z</time>
      </trkpt>
      <trkpt lat="43.26435" lon="6.50858">
        <ele>81.931747</ele>
        <time>2008-10-05T11:47:12Z</time>
      </trkpt>
      <trkpt lat="43.2644" lon="6.5085">
        <ele>82.404678</ele>
        <time>2008-10-05T11:47:15Z</time>
      </trkpt>
      <trkpt lat="43.2644" lon="6.50833">
        <ele>83.460091</ele>
        <time>2008-10-05T11:47:19Z</time>
      </trkpt>
      <trkpt lat="43.26437" lon="6.50826">
        <ele>83.689568</ele>
        <time>2008-10-05T11:47:21Z</time>
      </trkpt>
      <trkpt lat="43.26435" lon="6.50818">
        <ele>84.123276</ele>
        <time>2008-10-05T11:47:26Z</time>
      </trkpt>
      <trkpt lat="43.26435" lon="6.50815">
        <ele>84.295303</ele>
        <time>2008-10-05T11:47:27Z</time>
      </trkpt>
      <trkpt lat="43.26433" lon="6.50811">
        <ele>84.42408</ele>
        <time>2008-10-05T11:47:31Z</time>
      </trkpt>
      <trkpt lat="43.26433" lon="6.50807">
        <ele>84.780785</ele>
        <time>2008-10-05T11:47:35Z</time>
      </trkpt>
      <trkpt lat="43.26431" lon="6.50796">
        <ele>85.496986</ele>
        <time>2008-10-05T11:47:42Z</time>
      </trkpt>
      <trkpt lat="43.26431" lon="6.50792">
        <ele>85.869057</ele>
        <time>2008-10-05T11:47:47Z</time>
      </trkpt>
      <trkpt lat="43.26433" lon="6.50785">
        <ele>86.587547</ele>
        <time>2008-10-05T11:47:55Z</time>
      </trkpt>
      <trkpt lat="43.26431" lon="6.50781">
        <ele>86.995468</ele>
        <time>2008-10-05T11:47:58Z</time>
      </trkpt>
      <trkpt lat="43.26431" lon="6.50781">
        <ele>86.995468</ele>
        <time>2008-10-05T11:47:59Z</time>
      </trkpt>
      <trkpt lat="43.26429" lon="6.50777">
        <ele>87.404312</ele>
        <time>2008-10-05T11:48:05Z</time>
      </trkpt>
      <trkpt lat="43.26425" lon="6.50773">
        <ele>87.632568</ele>
        <time>2008-10-05T11:48:11Z</time>
      </trkpt>
      <trkpt lat="43.2641" lon="6.50768">
        <ele>86.948936</ele>
        <time>2008-10-05T11:48:15Z</time>
      </trkpt>
      <trkpt lat="43.26399" lon="6.50762">
        <ele>85.969231</ele>
        <time>2008-10-05T11:48:18Z</time>
      </trkpt>
      <trkpt lat="43.26386" lon="6.50762">
        <ele>83.862885</ele>
        <time>2008-10-05T11:48:21Z</time>
      </trkpt>
      <trkpt lat="43.26369" lon="6.50751">
        <ele>81.940697</ele>
        <time>2008-10-05T11:48:26Z</time>
      </trkpt>
      <trkpt lat="43.26356" lon="6.5074">
        <ele>80.352486</ele>
        <time>2008-10-05T11:48:29Z</time>
      </trkpt>
      <trkpt lat="43.2633" lon="6.50725">
        <ele>76.231377</ele>
        <time>2008-10-05T11:48:37Z</time>
      </trkpt>
      <trkpt lat="43.26319" lon="6.50732">
        <ele>73.832245</ele>
        <time>2008-10-05T11:48:40Z</time>
      </trkpt>
      <trkpt lat="43.26315" lon="6.50734">
        <ele>72.867615</ele>
        <time>2008-10-05T11:48:41Z</time>
      </trkpt>
      <trkpt lat="43.26311" lon="6.50736">
        <ele>71.925385</ele>
        <time>2008-10-05T11:48:42Z</time>
      </trkpt>
      <trkpt lat="43.26302" lon="6.50738">
        <ele>70.153023</ele>
        <time>2008-10-05T11:48:44Z</time>
      </trkpt>
      <trkpt lat="43.26294" lon="6.50743">
        <ele>68.406288</ele>
        <time>2008-10-05T11:48:46Z</time>
      </trkpt>
      <trkpt lat="43.26287" lon="6.50749">
        <ele>67.137772</ele>
        <time>2008-10-05T11:48:48Z</time>
      </trkpt>
      <trkpt lat="43.26283" lon="6.50751">
        <ele>66.345963</ele>
        <time>2008-10-05T11:48:49Z</time>
      </trkpt>
      <trkpt lat="43.2627" lon="6.50755">
        <ele>63.995609</ele>
        <time>2008-10-05T11:48:52Z</time>
      </trkpt>
      <trkpt lat="43.26266" lon="6.5076">
        <ele>63.239609</ele>
        <time>2008-10-05T11:48:53Z</time>
      </trkpt>
      <trkpt lat="43.26262" lon="6.50766">
        <ele>62.547184</ele>
        <time>2008-10-05T11:48:55Z</time>
      </trkpt>
      <trkpt lat="43.26255" lon="6.50773">
        <ele>61.492756</ele>
        <time>2008-10-05T11:48:57Z</time>
      </trkpt>
      <trkpt lat="43.26253" lon="6.50777">
        <ele>60.77446</ele>
        <time>2008-10-05T11:48:58Z</time>
      </trkpt>
      <trkpt lat="43.26249" lon="6.50783">
        <ele>59.56551</ele>
        <time>2008-10-05T11:49:00Z</time>
      </trkpt>
      <trkpt lat="43.26244" lon="6.50783">
        <ele>58.8512</ele>
        <time>2008-10-05T11:49:01Z</time>
      </trkpt>
      <trkpt lat="43.26242" lon="6.50785">
        <ele>58.364025</ele>
        <time>2008-10-05T11:49:02Z</time>
      </trkpt>
      <trkpt lat="43.26238" lon="6.50768">
        <ele>58.354439</ele>
        <time>2008-10-05T11:49:08Z</time>
      </trkpt>
      <trkpt lat="43.26238" lon="6.50751">
        <ele>57.768318</ele>
        <time>2008-10-05T11:49:12Z</time>
      </trkpt>
      <trkpt lat="43.2624" lon="6.50712">
        <ele>56.857384</ele>
        <time>2008-10-05T11:49:20Z</time>
      </trkpt>
      <trkpt lat="43.26242" lon="6.50697">
        <ele>56.95879</ele>
        <time>2008-10-05T11:49:23Z</time>
      </trkpt>
      <trkpt lat="43.2624" lon="6.50661">
        <ele>55.914978</ele>
        <time>2008-10-05T11:49:30Z</time>
      </trkpt>
      <trkpt lat="43.2624" lon="6.5065">
        <ele>55.764862</ele>
        <time>2008-10-05T11:49:32Z</time>
      </trkpt>
      <trkpt lat="43.2624" lon="6.50609">
        <ele>58.506794</ele>
        <time>2008-10-05T11:49:41Z</time>
      </trkpt>
      <trkpt lat="43.26238" lon="6.50618">
        <ele>57.652069</ele>
        <time>2008-10-05T11:49:44Z</time>
      </trkpt>
      <trkpt lat="43.26236" lon="6.50622">
        <ele>57.092117</ele>
        <time>2008-10-05T11:49:45Z</time>
      </trkpt>
      <trkpt lat="43.26223" lon="6.50642">
        <ele>54.365669</ele>
        <time>2008-10-05T11:49:49Z</time>
      </trkpt>
      <trkpt lat="43.26216" lon="6.50646">
        <ele>53.421597</ele>
        <time>2008-10-05T11:49:50Z</time>
      </trkpt>
      <trkpt lat="43.26184" lon="6.50693">
        <ele>47.512096</ele>
        <time>2008-10-05T11:49:58Z</time>
      </trkpt>
      <trkpt lat="43.2618" lon="6.50697">
        <ele>46.852081</ele>
        <time>2008-10-05T11:49:59Z</time>
      </trkpt>
      <trkpt lat="43.26163" lon="6.50719">
        <ele>44.59428</ele>
        <time>2008-10-05T11:50:03Z</time>
      </trkpt>
      <trkpt lat="43.26159" lon="6.50723">
        <ele>44.026985</ele>
        <time>2008-10-05T11:50:04Z</time>
      </trkpt>
      <trkpt lat="43.2615" lon="6.50725">
        <ele>42.931103</ele>
        <time>2008-10-05T11:50:06Z</time>
      </trkpt>
      <trkpt lat="43.26137" lon="6.50743">
        <ele>40.867924</ele>
        <time>2008-10-05T11:50:11Z</time>
      </trkpt>
      <trkpt lat="43.26133" lon="6.5076">
        <ele>39.716705</ele>
        <time>2008-10-05T11:50:14Z</time>
      </trkpt>
      <trkpt lat="43.26086" lon="6.50837">
        <ele>36.406719</ele>
        <time>2008-10-05T11:50:33Z</time>
      </trkpt>
      <trkpt lat="43.26056" lon="6.50882">
        <ele>33.870716</ele>
        <time>2008-10-05T11:50:45Z</time>
      </trkpt>
      <trkpt lat="43.26032" lon="6.50916">
        <ele>31.745005</ele>
        <time>2008-10-05T11:50:54Z</time>
      </trkpt>
      <trkpt lat="43.26032" lon="6.50916">
        <ele>31.745005</ele>
        <time>2008-10-05T11:51:05Z</time>
      </trkpt>
      <trkpt lat="43.2603" lon="6.50974">
        <ele>29.969168</ele>
        <time>2008-10-05T11:51:08Z</time>
      </trkpt>
      <trkpt lat="43.26023" lon="6.50979">
        <ele>29.566225</ele>
        <time>2008-10-05T11:51:09Z</time>
      </trkpt>
      <trkpt lat="43.26004" lon="6.50987">
        <ele>28.633675</ele>
        <time>2008-10-05T11:51:13Z</time>
      </trkpt>
      <trkpt lat="43.25987" lon="6.50996">
        <ele>27.493513</ele>
        <time>2008-10-05T11:51:16Z</time>
      </trkpt>
      <trkpt lat="43.25976" lon="6.51009">
        <ele>26.272902</ele>
        <time>2008-10-05T11:51:19Z</time>
      </trkpt>
      <trkpt lat="43.25963" lon="6.51026">
        <ele>24.829041</ele>
        <time>2008-10-05T11:51:23Z</time>
      </trkpt>
      <trkpt lat="43.2595" lon="6.51039">
        <ele>23.677349</ele>
        <time>2008-10-05T11:51:26Z</time>
      </trkpt>
      <trkpt lat="43.25944" lon="6.51054">
        <ele>22.90729</ele>
        <time>2008-10-05T11:51:29Z</time>
      </trkpt>
      <trkpt lat="43.25931" lon="6.51079">
        <ele>21.650723</ele>
        <time>2008-10-05T11:51:34Z</time>
      </trkpt>
      <trkpt lat="43.25922" lon="6.51088">
        <ele>21.136055</ele>
        <time>2008-10-05T11:51:37Z</time>
      </trkpt>
      <trkpt lat="43.2589" lon="6.51105">
        <ele>19.905792</ele>
        <time>2008-10-05T11:51:46Z</time>
      </trkpt>
      <trkpt lat="43.25858" lon="6.51009">
        <ele>19.944262</ele>
        <time>2008-10-05T11:51:52Z</time>
      </trkpt>
      <trkpt lat="43.25828" lon="6.50949">
        <ele>20.001005</ele>
        <time>2008-10-05T11:52:04Z</time>
      </trkpt>
      <trkpt lat="43.25768" lon="6.5088">
        <ele>19.678429</ele>
        <time>2008-10-05T11:52:19Z</time>
      </trkpt>
      <trkpt lat="43.25729" lon="6.5085">
        <ele>20.241699</ele>
        <time>2008-10-05T11:52:29Z</time>
      </trkpt>
      <trkpt lat="43.25732" lon="6.50826">
        <ele>21.013666</ele>
        <time>2008-10-05T11:52:35Z</time>
      </trkpt>
      <trkpt lat="43.25766" lon="6.50758">
        <ele>23.111433</ele>
        <time>2008-10-05T11:52:52Z</time>
      </trkpt>
      <trkpt lat="43.25768" lon="6.50753">
        <ele>23.264917</ele>
        <time>2008-10-05T11:52:53Z</time>
      </trkpt>
      <trkpt lat="43.25789" lon="6.50725">
        <ele>24.600805</ele>
        <time>2008-10-05T11:53:02Z</time>
      </trkpt>
      <trkpt lat="43.258" lon="6.50712">
        <ele>25.271801</ele>
        <time>2008-10-05T11:53:06Z</time>
      </trkpt>
      <trkpt lat="43.25824" lon="6.50642">
        <ele>28.008617</ele>
        <time>2008-10-05T11:53:29Z</time>
      </trkpt>
      <trkpt lat="43.25843" lon="6.50586">
        <ele>29.921703</ele>
        <time>2008-10-05T11:53:42Z</time>
      </trkpt>
      <trkpt lat="43.25884" lon="6.50506">
        <ele>33.047359</ele>
        <time>2008-10-05T11:54:04Z</time>
      </trkpt>
      <trkpt lat="43.25935" lon="6.5044">
        <ele>36.534039</ele>
        <time>2008-10-05T11:54:28Z</time>
      </trkpt>
      <trkpt lat="43.25961" lon="6.50406">
        <ele>38.75034</ele>
        <time>2008-10-05T11:54:40Z</time>
      </trkpt>
      <trkpt lat="43.25974" lon="6.50382">
        <ele>39.946598</ele>
        <time>2008-10-05T11:54:48Z</time>
      </trkpt>
      <trkpt lat="43.25987" lon="6.50305">
        <ele>43.53933</ele>
        <time>2008-10-05T11:55:11Z</time>
      </trkpt>
      <trkpt lat="43.2598" lon="6.50285">
        <ele>43.583664</ele>
        <time>2008-10-05T11:55:17Z</time>
      </trkpt>
      <trkpt lat="43.25972" lon="6.50273">
        <ele>43.554798</ele>
        <time>2008-10-05T11:55:23Z</time>
      </trkpt>
      <trkpt lat="43.25957" lon="6.5023">
        <ele>43.792244</ele>
        <time>2008-10-05T11:55:36Z</time>
      </trkpt>
      <trkpt lat="43.25953" lon="6.50191">
        <ele>44.522339</ele>
        <time>2008-10-05T11:55:47Z</time>
      </trkpt>
      <trkpt lat="43.25957" lon="6.50082">
        <ele>48.372337</ele>
        <time>2008-10-05T11:56:13Z</time>
      </trkpt>
      <trkpt lat="43.25955" lon="6.50013">
        <ele>50.426899</ele>
        <time>2008-10-05T11:56:30Z</time>
      </trkpt>
      <trkpt lat="43.25968" lon="6.49934">
        <ele>53.601124</ele>
        <time>2008-10-05T11:56:50Z</time>
      </trkpt>
      <trkpt lat="43.2597" lon="6.49919">
        <ele>54.293129</ele>
        <time>2008-10-05T11:56:54Z</time>
      </trkpt>
      <trkpt lat="43.25972" lon="6.49899">
        <ele>55.167389</ele>
        <time>2008-10-05T11:56:59Z</time>
      </trkpt>
      <trkpt lat="43.25963" lon="6.49893">
        <ele>54.827137</ele>
        <time>2008-10-05T11:57:02Z</time>
      </trkpt>
      <trkpt lat="43.25959" lon="6.49889">
        <ele>54.691902</ele>
        <time>2008-10-05T11:57:04Z</time>
      </trkpt>
      <trkpt lat="43.25942" lon="6.49882">
        <ele>54.401306</ele>
        <time>2008-10-05T11:57:11Z</time>
      </trkpt>
      <trkpt lat="43.25895" lon="6.49867">
        <ele>56.208508</ele>
        <time>2008-10-05T11:57:28Z</time>
      </trkpt>
      <trkpt lat="43.25888" lon="6.49865">
        <ele>56.712948</ele>
        <time>2008-10-05T11:57:30Z</time>
      </trkpt>
      <trkpt lat="43.25839" lon="6.49867">
        <ele>59.38348</ele>
        <time>2008-10-05T11:57:48Z</time>
      </trkpt>
      <trkpt lat="43.25811" lon="6.49865">
        <ele>62.047218</ele>
        <time>2008-10-05T11:57:59Z</time>
      </trkpt>
      <trkpt lat="43.25804" lon="6.49876">
        <ele>61.58897</ele>
        <time>2008-10-05T11:58:03Z</time>
      </trkpt>
      <trkpt lat="43.25802" lon="6.49882">
        <ele>61.133526</ele>
        <time>2008-10-05T11:58:05Z</time>
      </trkpt>
      <trkpt lat="43.25792" lon="6.49876">
        <ele>63.19743</ele>
        <time>2008-10-05T11:58:11Z</time>
      </trkpt>
      <trkpt lat="43.25787" lon="6.49865">
        <ele>64.903557</ele>
        <time>2008-10-05T11:58:17Z</time>
      </trkpt>
      <trkpt lat="43.25789" lon="6.49856">
        <ele>65.581429</ele>
        <time>2008-10-05T11:58:21Z</time>
      </trkpt>
      <trkpt lat="43.25792" lon="6.49852">
        <ele>65.799339</ele>
        <time>2008-10-05T11:58:23Z</time>
      </trkpt>
      <trkpt lat="43.258" lon="6.49835">
        <ele>66.734573</ele>
        <time>2008-10-05T11:58:29Z</time>
      </trkpt>
      <trkpt lat="43.25809" lon="6.49816">
        <ele>68.006523</ele>
        <time>2008-10-05T11:58:35Z</time>
      </trkpt>
      <trkpt lat="43.25843" lon="6.49805">
        <ele>66.460327</ele>
        <time>2008-10-05T11:58:48Z</time>
      </trkpt>
      <trkpt lat="43.25871" lon="6.49796">
        <ele>65.672211</ele>
        <time>2008-10-05T11:59:00Z</time>
      </trkpt>
      <trkpt lat="43.25922" lon="6.49766">
        <ele>66.71965</ele>
        <time>2008-10-05T11:59:18Z</time>
      </trkpt>
      <trkpt lat="43.25935" lon="6.49758">
        <ele>67.043274</ele>
        <time>2008-10-05T11:59:23Z</time>
      </trkpt>
      <trkpt lat="43.2595" lon="6.49743">
        <ele>67.903221</ele>
        <time>2008-10-05T11:59:30Z</time>
      </trkpt>
      <trkpt lat="43.26002" lon="6.49685">
        <ele>71.483803</ele>
        <time>2008-10-05T11:59:54Z</time>
      </trkpt>
      <trkpt lat="43.26043" lon="6.49629">
        <ele>75.760185</ele>
        <time>2008-10-05T12:00:18Z</time>
      </trkpt>
      <trkpt lat="43.2606" lon="6.49605">
        <ele>76.7136</ele>
        <time>2008-10-05T12:00:30Z</time>
      </trkpt>
      <trkpt lat="43.26068" lon="6.49588">
        <ele>77.158394</ele>
        <time>2008-10-05T12:00:46Z</time>
      </trkpt>
      <trkpt lat="43.26053" lon="6.49592">
        <ele>76.196335</ele>
        <time>2008-10-05T12:00:52Z</time>
      </trkpt>
      <trkpt lat="43.26036" lon="6.49597">
        <ele>75.635818</ele>
        <time>2008-10-05T12:01:14Z</time>
      </trkpt>
      <trkpt lat="43.26036" lon="6.49597">
        <ele>75.635818</ele>
        <time>2008-10-05T12:01:37Z</time>
      </trkpt>
      <trkpt lat="43.26034" lon="6.49595">
        <ele>75.590096</ele>
        <time>2008-10-05T12:01:39Z</time>
      </trkpt>
      <trkpt lat="43.26032" lon="6.49597">
        <ele>75.523087</ele>
        <time>2008-10-05T12:01:43Z</time>
      </trkpt>
      <trkpt lat="43.26023" lon="6.49605">
        <ele>75.220772</ele>
        <time>2008-10-05T12:01:49Z</time>
      </trkpt>
      <trkpt lat="43.25998" lon="6.49627">
        <ele>74.50972</ele>
        <time>2008-10-05T12:02:00Z</time>
      </trkpt>
      <trkpt lat="43.2598" lon="6.49631">
        <ele>75.038292</ele>
        <time>2008-10-05T12:02:04Z</time>
      </trkpt>
      <trkpt lat="43.25953" lon="6.49644">
        <ele>76.301476</ele>
        <time>2008-10-05T12:02:10Z</time>
      </trkpt>
      <trkpt lat="43.25888" lon="6.49685">
        <ele>76.737968</ele>
        <time>2008-10-05T12:02:30Z</time>
      </trkpt>
      <trkpt lat="43.25824" lon="6.49717">
        <ele>75.244987</ele>
        <time>2008-10-05T12:02:48Z</time>
      </trkpt>
      <trkpt lat="43.25747" lon="6.49775">
        <ele>72.485138</ele>
        <time>2008-10-05T12:03:12Z</time>
      </trkpt>
      <trkpt lat="43.25727" lon="6.49801">
        <ele>71.971832</ele>
        <time>2008-10-05T12:03:18Z</time>
      </trkpt>
      <trkpt lat="43.25723" lon="6.49816">
        <ele>71.567085</ele>
        <time>2008-10-05T12:03:21Z</time>
      </trkpt>
      <trkpt lat="43.25716" lon="6.49833">
        <ele>70.840492</ele>
        <time>2008-10-05T12:03:25Z</time>
      </trkpt>
      <trkpt lat="43.25712" lon="6.49846">
        <ele>70.384941</ele>
        <time>2008-10-05T12:03:28Z</time>
      </trkpt>
      <trkpt lat="43.25706" lon="6.49871">
        <ele>69.673332</ele>
        <time>2008-10-05T12:03:34Z</time>
      </trkpt>
      <trkpt lat="43.25704" lon="6.49876">
        <ele>69.172379</ele>
        <time>2008-10-05T12:03:36Z</time>
      </trkpt>
      <trkpt lat="43.25699" lon="6.49893">
        <ele>67.591278</ele>
        <time>2008-10-05T12:03:42Z</time>
      </trkpt>
      <trkpt lat="43.25693" lon="6.49901">
        <ele>66.755959</ele>
        <time>2008-10-05T12:03:45Z</time>
      </trkpt>
      <trkpt lat="43.25689" lon="6.4991">
        <ele>66.107056</ele>
        <time>2008-10-05T12:03:47Z</time>
      </trkpt>
      <trkpt lat="43.2568" lon="6.49914">
        <ele>65.785896</ele>
        <time>2008-10-05T12:03:52Z</time>
      </trkpt>
      <trkpt lat="43.25678" lon="6.49914">
        <ele>65.751236</ele>
        <time>2008-10-05T12:03:53Z</time>
      </trkpt>
      <trkpt lat="43.25678" lon="6.49914">
        <ele>65.751236</ele>
        <time>2008-10-05T12:03:54Z</time>
      </trkpt>
      <trkpt lat="43.25669" lon="6.49906">
        <ele>65.191269</ele>
        <time>2008-10-05T12:03:58Z</time>
      </trkpt>
      <trkpt lat="43.25667" lon="6.49904">
        <ele>65.035263</ele>
        <time>2008-10-05T12:04:00Z</time>
      </trkpt>
      <trkpt lat="43.25659" lon="6.49895">
        <ele>64.347153</ele>
        <time>2008-10-05T12:04:06Z</time>
      </trkpt>
      <trkpt lat="43.25656" lon="6.49893">
        <ele>64.159111</ele>
        <time>2008-10-05T12:04:07Z</time>
      </trkpt>
      <trkpt lat="43.25629" lon="6.49878">
        <ele>60.77702</ele>
        <time>2008-10-05T12:04:18Z</time>
      </trkpt>
      <trkpt lat="43.2562" lon="6.49871">
        <ele>59.319687</ele>
        <time>2008-10-05T12:04:20Z</time>
      </trkpt>
      <trkpt lat="43.25601" lon="6.49856">
        <ele>55.602283</ele>
        <time>2008-10-05T12:04:24Z</time>
      </trkpt>
      <trkpt lat="43.25594" lon="6.4985">
        <ele>54.219276</ele>
        <time>2008-10-05T12:04:26Z</time>
      </trkpt>
      <trkpt lat="43.25579" lon="6.49846">
        <ele>51.673409</ele>
        <time>2008-10-05T12:04:30Z</time>
      </trkpt>
      <trkpt lat="43.25573" lon="6.49848">
        <ele>50.769638</ele>
        <time>2008-10-05T12:04:31Z</time>
      </trkpt>
      <trkpt lat="43.25553" lon="6.49846">
        <ele>47.727718</ele>
        <time>2008-10-05T12:04:36Z</time>
      </trkpt>
      <trkpt lat="43.25534" lon="6.49871">
        <ele>46.049137</ele>
        <time>2008-10-05T12:04:41Z</time>
      </trkpt>
      <trkpt lat="43.2553" lon="6.49876">
        <ele>45.692745</ele>
        <time>2008-10-05T12:04:42Z</time>
      </trkpt>
      <trkpt lat="43.25523" lon="6.49886">
        <ele>45.376328</ele>
        <time>2008-10-05T12:04:44Z</time>
      </trkpt>
      <trkpt lat="43.25506" lon="6.49906">
        <ele>44.302917</ele>
        <time>2008-10-05T12:04:48Z</time>
      </trkpt>
      <trkpt lat="43.25474" lon="6.49914">
        <ele>41.271252</ele>
        <time>2008-10-05T12:04:54Z</time>
      </trkpt>
      <trkpt lat="43.25455" lon="6.49916">
        <ele>39.178772</ele>
        <time>2008-10-05T12:04:57Z</time>
      </trkpt>
      <trkpt lat="43.25438" lon="6.49919">
        <ele>37.625301</ele>
        <time>2008-10-05T12:05:00Z</time>
      </trkpt>
      <trkpt lat="43.25431" lon="6.49889">
        <ele>36.374737</ele>
        <time>2008-10-05T12:05:06Z</time>
      </trkpt>
      <trkpt lat="43.25446" lon="6.49858">
        <ele>36.5797</ele>
        <time>2008-10-05T12:05:13Z</time>
      </trkpt>
      <trkpt lat="43.25453" lon="6.49846">
        <ele>36.681103</ele>
        <time>2008-10-05T12:05:16Z</time>
      </trkpt>
      <trkpt lat="43.25457" lon="6.49828">
        <ele>36.635925</ele>
        <time>2008-10-05T12:05:19Z</time>
      </trkpt>
      <trkpt lat="43.25461" lon="6.49788">
        <ele>36.204826</ele>
        <time>2008-10-05T12:05:25Z</time>
      </trkpt>
      <trkpt lat="43.25463" lon="6.49766">
        <ele>36.292496</ele>
        <time>2008-10-05T12:05:28Z</time>
      </trkpt>
      <trkpt lat="43.25461" lon="6.49728">
        <ele>36.049679</ele>
        <time>2008-10-05T12:05:34Z</time>
      </trkpt>
      <trkpt lat="43.25446" lon="6.49706">
        <ele>34.992683</ele>
        <time>2008-10-05T12:05:39Z</time>
      </trkpt>
      <trkpt lat="43.25427" lon="6.49691">
        <ele>33.666145</ele>
        <time>2008-10-05T12:05:43Z</time>
      </trkpt>
      <trkpt lat="43.25405" lon="6.49693">
        <ele>32.493893</ele>
        <time>2008-10-05T12:05:47Z</time>
      </trkpt>
      <trkpt lat="43.25392" lon="6.49698">
        <ele>31.928944</ele>
        <time>2008-10-05T12:05:50Z</time>
      </trkpt>
      <trkpt lat="43.25386" lon="6.49713">
        <ele>31.668631</ele>
        <time>2008-10-05T12:05:53Z</time>
      </trkpt>
      <trkpt lat="43.25382" lon="6.49738">
        <ele>31.753584</ele>
        <time>2008-10-05T12:05:57Z</time>
      </trkpt>
      <trkpt lat="43.2538" lon="6.49884">
        <ele>32.88295</ele>
        <time>2008-10-05T12:06:16Z</time>
      </trkpt>
      <trkpt lat="43.25377" lon="6.49942">
        <ele>33.023602</ele>
        <time>2008-10-05T12:06:23Z</time>
      </trkpt>
      <trkpt lat="43.25362" lon="6.49964">
        <ele>32.07745</ele>
        <time>2008-10-05T12:06:26Z</time>
      </trkpt>
      <trkpt lat="43.25317" lon="6.50077">
        <ele>28.329357</ele>
        <time>2008-10-05T12:06:38Z</time>
      </trkpt>
      <trkpt lat="43.25307" lon="6.5012">
        <ele>27.958336</ele>
        <time>2008-10-05T12:06:42Z</time>
      </trkpt>
      <trkpt lat="43.25305" lon="6.50133">
        <ele>27.91457</ele>
        <time>2008-10-05T12:06:43Z</time>
      </trkpt>
      <trkpt lat="43.25272" lon="6.50326">
        <ele>26</ele>
        <time>2008-10-05T12:06:59Z</time>
      </trkpt>
      <trkpt lat="43.25249" lon="6.50459">
        <ele>24.898228</ele>
        <time>2008-10-05T12:07:11Z</time>
      </trkpt>
      <trkpt lat="43.25244" lon="6.5047">
        <ele>24.718855</ele>
        <time>2008-10-05T12:07:14Z</time>
      </trkpt>
      <trkpt lat="43.25212" lon="6.50594">
        <ele>22.921232</ele>
        <time>2008-10-05T12:07:33Z</time>
      </trkpt>
      <trkpt lat="43.25161" lon="6.50764">
        <ele>25.847132</ele>
        <time>2008-10-05T12:08:00Z</time>
      </trkpt>
      <trkpt lat="43.25144" lon="6.50796">
        <ele>27.5198</ele>
        <time>2008-10-05T12:08:06Z</time>
      </trkpt>
      <trkpt lat="43.25152" lon="6.50807">
        <ele>27.569391</ele>
        <time>2008-10-05T12:08:09Z</time>
      </trkpt>
      <trkpt lat="43.25219" lon="6.50888">
        <ele>25.482025</ele>
        <time>2008-10-05T12:08:26Z</time>
      </trkpt>
      <trkpt lat="43.25234" lon="6.50914">
        <ele>25.526546</ele>
        <time>2008-10-05T12:08:30Z</time>
      </trkpt>
      <trkpt lat="43.2532" lon="6.51139">
        <ele>25.271524</ele>
        <time>2008-10-05T12:09:01Z</time>
      </trkpt>
      <trkpt lat="43.25337" lon="6.51212">
        <ele>28.938162</ele>
        <time>2008-10-05T12:09:12Z</time>
      </trkpt>
      <trkpt lat="43.25332" lon="6.51223">
        <ele>29.383041</ele>
        <time>2008-10-05T12:09:15Z</time>
      </trkpt>
      <trkpt lat="43.2533" lon="6.51225">
        <ele>29.503675</ele>
        <time>2008-10-05T12:09:16Z</time>
      </trkpt>
      <trkpt lat="43.25322" lon="6.51292">
        <ele>31.674883</ele>
        <time>2008-10-05T12:09:36Z</time>
      </trkpt>
      <trkpt lat="43.25322" lon="6.51311">
        <ele>32.188183</ele>
        <time>2008-10-05T12:09:42Z</time>
      </trkpt>
      <trkpt lat="43.25324" lon="6.51313">
        <ele>32.150166</ele>
        <time>2008-10-05T12:09:43Z</time>
      </trkpt>
      <trkpt lat="43.25326" lon="6.51324">
        <ele>32.425781</ele>
        <time>2008-10-05T12:09:47Z</time>
      </trkpt>
      <trkpt lat="43.25326" lon="6.51333">
        <ele>32.884941</ele>
        <time>2008-10-05T12:09:50Z</time>
      </trkpt>
      <trkpt lat="43.25326" lon="6.51335">
        <ele>33.000053</ele>
        <time>2008-10-05T12:09:51Z</time>
      </trkpt>
      <trkpt lat="43.25326" lon="6.51341">
        <ele>33.346169</ele>
        <time>2008-10-05T12:09:53Z</time>
      </trkpt>
      <trkpt lat="43.25326" lon="6.51378">
        <ele>35.329464</ele>
        <time>2008-10-05T12:10:05Z</time>
      </trkpt>
      <trkpt lat="43.2532" lon="6.51479">
        <ele>41.668606</ele>
        <time>2008-10-05T12:10:30Z</time>
      </trkpt>
      <trkpt lat="43.25324" lon="6.51541">
        <ele>45.189247</ele>
        <time>2008-10-05T12:10:45Z</time>
      </trkpt>
      <trkpt lat="43.25322" lon="6.51579">
        <ele>46.348869</ele>
        <time>2008-10-05T12:10:54Z</time>
      </trkpt>
      <trkpt lat="43.2532" lon="6.51605">
        <ele>46.225044</ele>
        <time>2008-10-05T12:11:00Z</time>
      </trkpt>
      <trkpt lat="43.25302" lon="6.51685">
        <ele>47.132317</ele>
        <time>2008-10-05T12:11:20Z</time>
      </trkpt>
      <trkpt lat="43.25298" lon="6.51702">
        <ele>46.839897</ele>
        <time>2008-10-05T12:11:24Z</time>
      </trkpt>
      <trkpt lat="43.25268" lon="6.51779">
        <ele>46.222294</ele>
        <time>2008-10-05T12:11:42Z</time>
      </trkpt>
      <trkpt lat="43.25251" lon="6.51811">
        <ele>46.97295</ele>
        <time>2008-10-05T12:11:48Z</time>
      </trkpt>
      <trkpt lat="43.25227" lon="6.51895">
        <ele>47.935745</ele>
        <time>2008-10-05T12:11:58Z</time>
      </trkpt>
      <trkpt lat="43.25221" lon="6.51916">
        <ele>48.309296</ele>
        <time>2008-10-05T12:12:01Z</time>
      </trkpt>
      <trkpt lat="43.2521" lon="6.5194">
        <ele>48.496475</ele>
        <time>2008-10-05T12:12:05Z</time>
      </trkpt>
      <trkpt lat="43.25111" lon="6.51839">
        <ele>55.827553</ele>
        <time>2008-10-05T12:12:26Z</time>
      </trkpt>
      <trkpt lat="43.25077" lon="6.51809">
        <ele>58.005348</ele>
        <time>2008-10-05T12:12:39Z</time>
      </trkpt>
      <trkpt lat="43.25056" lon="6.5179">
        <ele>59.580898</ele>
        <time>2008-10-05T12:12:48Z</time>
      </trkpt>
      <trkpt lat="43.25036" lon="6.51777">
        <ele>60.97068</ele>
        <time>2008-10-05T12:12:57Z</time>
      </trkpt>
      <trkpt lat="43.25013" lon="6.51764">
        <ele>63.507984</ele>
        <time>2008-10-05T12:13:08Z</time>
      </trkpt>
      <trkpt lat="43.25008" lon="6.5176">
        <ele>64.106346</ele>
        <time>2008-10-05T12:13:11Z</time>
      </trkpt>
      <trkpt lat="43.24996" lon="6.51755">
        <ele>65.72699</ele>
        <time>2008-10-05T12:13:18Z</time>
      </trkpt>
      <trkpt lat="43.24985" lon="6.51757">
        <ele>67.009888</ele>
        <time>2008-10-05T12:13:24Z</time>
      </trkpt>
      <trkpt lat="43.24974" lon="6.51762">
        <ele>68.24231</ele>
        <time>2008-10-05T12:13:30Z</time>
      </trkpt>
      <trkpt lat="43.24963" lon="6.51764">
        <ele>69.272392</ele>
        <time>2008-10-05T12:13:36Z</time>
      </trkpt>
      <trkpt lat="43.24961" lon="6.51764">
        <ele>69.479691</ele>
        <time>2008-10-05T12:13:37Z</time>
      </trkpt>
      <trkpt lat="43.24953" lon="6.51768">
        <ele>70.253609</ele>
        <time>2008-10-05T12:13:42Z</time>
      </trkpt>
      <trkpt lat="43.24948" lon="6.51768">
        <ele>70.658913</ele>
        <time>2008-10-05T12:13:44Z</time>
      </trkpt>
      <trkpt lat="43.24942" lon="6.51768">
        <ele>71.265045</ele>
        <time>2008-10-05T12:13:48Z</time>
      </trkpt>
      <trkpt lat="43.24933" lon="6.51764">
        <ele>72.152527</ele>
        <time>2008-10-05T12:13:53Z</time>
      </trkpt>
      <trkpt lat="43.24912" lon="6.51755">
        <ele>73.083099</ele>
        <time>2008-10-05T12:14:05Z</time>
      </trkpt>
      <trkpt lat="43.24901" lon="6.51747">
        <ele>73.652077</ele>
        <time>2008-10-05T12:14:12Z</time>
      </trkpt>
      <trkpt lat="43.24882" lon="6.51723">
        <ele>75.129433</ele>
        <time>2008-10-05T12:14:25Z</time>
      </trkpt>
      <trkpt lat="43.2485" lon="6.5168">
        <ele>77.8349</ele>
        <time>2008-10-05T12:14:44Z</time>
      </trkpt>
      <trkpt lat="43.2483" lon="6.51661">
        <ele>79.4767</ele>
        <time>2008-10-05T12:14:51Z</time>
      </trkpt>
      <trkpt lat="43.24805" lon="6.51637">
        <ele>81.279175</ele>
        <time>2008-10-05T12:15:00Z</time>
      </trkpt>
      <trkpt lat="43.24729" lon="6.51594">
        <ele>83.942627</ele>
        <time>2008-10-05T12:15:24Z</time>
      </trkpt>
      <trkpt lat="43.24626" lon="6.51532">
        <ele>83.254051</ele>
        <time>2008-10-05T12:15:54Z</time>
      </trkpt>
      <trkpt lat="43.24534" lon="6.51453">
        <ele>90.400772</ele>
        <time>2008-10-05T12:16:22Z</time>
      </trkpt>
      <trkpt lat="43.24498" lon="6.51423">
        <ele>94.369492</ele>
        <time>2008-10-05T12:16:39Z</time>
      </trkpt>
      <trkpt lat="43.24485" lon="6.51414">
        <ele>95.216507</ele>
        <time>2008-10-05T12:16:47Z</time>
      </trkpt>
      <trkpt lat="43.24476" lon="6.51412">
        <ele>95.755951</ele>
        <time>2008-10-05T12:16:54Z</time>
      </trkpt>
      <trkpt lat="43.2447" lon="6.5141">
        <ele>96.130791</ele>
        <time>2008-10-05T12:16:59Z</time>
      </trkpt>
      <trkpt lat="43.24461" lon="6.51412">
        <ele>96.798035</ele>
        <time>2008-10-05T12:17:05Z</time>
      </trkpt>
      <trkpt lat="43.2445" lon="6.5141">
        <ele>97.458183</ele>
        <time>2008-10-05T12:17:12Z</time>
      </trkpt>
      <trkpt lat="43.24433" lon="6.51412">
        <ele>98.386368</ele>
        <time>2008-10-05T12:17:21Z</time>
      </trkpt>
      <trkpt lat="43.24393" lon="6.51408">
        <ele>99.991875</ele>
        <time>2008-10-05T12:17:36Z</time>
      </trkpt>
      <trkpt lat="43.24302" lon="6.51416">
        <ele>105.615067</ele>
        <time>2008-10-05T12:18:05Z</time>
      </trkpt>
      <trkpt lat="43.24298" lon="6.51416">
        <ele>105.906311</ele>
        <time>2008-10-05T12:18:06Z</time>
      </trkpt>
      <trkpt lat="43.24275" lon="6.51412">
        <ele>107.449532</ele>
        <time>2008-10-05T12:18:15Z</time>
      </trkpt>
      <trkpt lat="43.24268" lon="6.51412">
        <ele>107.848297</ele>
        <time>2008-10-05T12:18:18Z</time>
      </trkpt>
      <trkpt lat="43.24255" lon="6.51412">
        <ele>108.514038</ele>
        <time>2008-10-05T12:18:24Z</time>
      </trkpt>
      <trkpt lat="43.24221" lon="6.51408">
        <ele>110.431183</ele>
        <time>2008-10-05T12:18:43Z</time>
      </trkpt>
      <trkpt lat="43.24178" lon="6.51399">
        <ele>114.718887</ele>
        <time>2008-10-05T12:19:07Z</time>
      </trkpt>
      <trkpt lat="43.24176" lon="6.51399">
        <ele>114.930794</ele>
        <time>2008-10-05T12:19:08Z</time>
      </trkpt>
      <trkpt lat="43.24126" lon="6.51371">
        <ele>117.09774</ele>
        <time>2008-10-05T12:19:38Z</time>
      </trkpt>
      <trkpt lat="43.2412" lon="6.51367">
        <ele>116.971199</ele>
        <time>2008-10-05T12:19:41Z</time>
      </trkpt>
      <trkpt lat="43.24105" lon="6.51363">
        <ele>117.051949</ele>
        <time>2008-10-05T12:19:47Z</time>
      </trkpt>
      <trkpt lat="43.24096" lon="6.51365">
        <ele>117.290039</ele>
        <time>2008-10-05T12:19:50Z</time>
      </trkpt>
      <trkpt lat="43.24094" lon="6.51391">
        <ele>118.206856</ele>
        <time>2008-10-05T12:19:57Z</time>
      </trkpt>
      <trkpt lat="43.24101" lon="6.51397">
        <ele>118.471893</ele>
        <time>2008-10-05T12:20:01Z</time>
      </trkpt>
      <trkpt lat="43.24101" lon="6.51399">
        <ele>118.557678</ele>
        <time>2008-10-05T12:20:02Z</time>
      </trkpt>
      <trkpt lat="43.24101" lon="6.51406">
        <ele>118.816597</ele>
        <time>2008-10-05T12:20:05Z</time>
      </trkpt>
      <trkpt lat="43.24099" lon="6.51408">
        <ele>118.874298</ele>
        <time>2008-10-05T12:20:06Z</time>
      </trkpt>
      <trkpt lat="43.24096" lon="6.51414">
        <ele>119.086807</ele>
        <time>2008-10-05T12:20:09Z</time>
      </trkpt>
      <trkpt lat="43.24092" lon="6.51433">
        <ele>118.430626</ele>
        <time>2008-10-05T12:20:17Z</time>
      </trkpt>
      <trkpt lat="43.24092" lon="6.51433">
        <ele>118.430626</ele>
        <time>2008-10-05T12:20:18Z</time>
      </trkpt>
      <trkpt lat="43.24086" lon="6.51446">
        <ele>117.571457</ele>
        <time>2008-10-05T12:20:23Z</time>
      </trkpt>
      <trkpt lat="43.24075" lon="6.51457">
        <ele>115.996437</ele>
        <time>2008-10-05T12:20:28Z</time>
      </trkpt>
      <trkpt lat="43.24049" lon="6.51504">
        <ele>110.091927</ele>
        <time>2008-10-05T12:20:42Z</time>
      </trkpt>
      <trkpt lat="43.24034" lon="6.515">
        <ele>108.722084</ele>
        <time>2008-10-05T12:20:46Z</time>
      </trkpt>
      <trkpt lat="43.2403" lon="6.515">
        <ele>108.116798</ele>
        <time>2008-10-05T12:20:47Z</time>
      </trkpt>
      <trkpt lat="43.24026" lon="6.515">
        <ele>107.513443</ele>
        <time>2008-10-05T12:20:48Z</time>
      </trkpt>
      <trkpt lat="43.24019" lon="6.51504">
        <ele>106.35585</ele>
        <time>2008-10-05T12:20:50Z</time>
      </trkpt>
      <trkpt lat="43.24013" lon="6.51509">
        <ele>105.241386</ele>
        <time>2008-10-05T12:20:52Z</time>
      </trkpt>
      <trkpt lat="43.24011" lon="6.51511">
        <ele>104.840866</ele>
        <time>2008-10-05T12:20:53Z</time>
      </trkpt>
      <trkpt lat="43.24006" lon="6.51521">
        <ele>103.730003</ele>
        <time>2008-10-05T12:20:56Z</time>
      </trkpt>
      <trkpt lat="43.24002" lon="6.51536">
        <ele>102.250404</ele>
        <time>2008-10-05T12:21:01Z</time>
      </trkpt>
      <trkpt lat="43.24002" lon="6.51543">
        <ele>101.634445</ele>
        <time>2008-10-05T12:21:03Z</time>
      </trkpt>
      <trkpt lat="43.24002" lon="6.5156">
        <ele>99.986198</ele>
        <time>2008-10-05T12:21:08Z</time>
      </trkpt>
      <trkpt lat="43.24008" lon="6.51564">
        <ele>100.260452</ele>
        <time>2008-10-05T12:21:10Z</time>
      </trkpt>
      <trkpt lat="43.24023" lon="6.51569">
        <ele>101.426315</ele>
        <time>2008-10-05T12:21:14Z</time>
      </trkpt>
      <trkpt lat="43.2403" lon="6.51571">
        <ele>101.882545</ele>
        <time>2008-10-05T12:21:16Z</time>
      </trkpt>
      <trkpt lat="43.24043" lon="6.51571">
        <ele>102.960243</ele>
        <time>2008-10-05T12:21:19Z</time>
      </trkpt>
      <trkpt lat="43.24079" lon="6.51575">
        <ele>103.39991</ele>
        <time>2008-10-05T12:21:29Z</time>
      </trkpt>
      <trkpt lat="43.24088" lon="6.51577">
        <ele>103.171005</ele>
        <time>2008-10-05T12:21:32Z</time>
      </trkpt>
      <trkpt lat="43.24099" lon="6.51582">
        <ele>102.41539</ele>
        <time>2008-10-05T12:21:35Z</time>
      </trkpt>
      <trkpt lat="43.24118" lon="6.51622">
        <ele>96.86319</ele>
        <time>2008-10-05T12:21:42Z</time>
      </trkpt>
      <trkpt lat="43.2412" lon="6.51627">
        <ele>96.341385</ele>
        <time>2008-10-05T12:21:43Z</time>
      </trkpt>
      <trkpt lat="43.24131" lon="6.51642">
        <ele>94.603081</ele>
        <time>2008-10-05T12:21:46Z</time>
      </trkpt>
      <trkpt lat="43.24135" lon="6.51646">
        <ele>94.174118</ele>
        <time>2008-10-05T12:21:47Z</time>
      </trkpt>
      <trkpt lat="43.24159" lon="6.5168">
        <ele>91.031754</ele>
        <time>2008-10-05T12:21:54Z</time>
      </trkpt>
      <trkpt lat="43.24163" lon="6.51689">
        <ele>90.497902</ele>
        <time>2008-10-05T12:21:56Z</time>
      </trkpt>
      <trkpt lat="43.24169" lon="6.5171">
        <ele>89.206314</ele>
        <time>2008-10-05T12:22:00Z</time>
      </trkpt>
      <trkpt lat="43.24169" lon="6.51721">
        <ele>88.516724</ele>
        <time>2008-10-05T12:22:02Z</time>
      </trkpt>
      <trkpt lat="43.24172" lon="6.51734">
        <ele>87.816185</ele>
        <time>2008-10-05T12:22:04Z</time>
      </trkpt>
      <trkpt lat="43.24184" lon="6.51757">
        <ele>86.678955</ele>
        <time>2008-10-05T12:22:10Z</time>
      </trkpt>
      <trkpt lat="43.24184" lon="6.51764">
        <ele>86.282951</ele>
        <time>2008-10-05T12:22:11Z</time>
      </trkpt>
      <trkpt lat="43.24184" lon="6.51783">
        <ele>85.080956</ele>
        <time>2008-10-05T12:22:14Z</time>
      </trkpt>
      <trkpt lat="43.24182" lon="6.51807">
        <ele>84.0019</ele>
        <time>2008-10-05T12:22:19Z</time>
      </trkpt>
      <trkpt lat="43.24178" lon="6.5182">
        <ele>83.61483</ele>
        <time>2008-10-05T12:22:22Z</time>
      </trkpt>
      <trkpt lat="43.2415" lon="6.51916">
        <ele>82.831413</ele>
        <time>2008-10-05T12:22:42Z</time>
      </trkpt>
      <trkpt lat="43.24146" lon="6.5194">
        <ele>82.044495</ele>
        <time>2008-10-05T12:22:47Z</time>
      </trkpt>
      <trkpt lat="43.24167" lon="6.51951">
        <ele>80.640564</ele>
        <time>2008-10-05T12:22:50Z</time>
      </trkpt>
      <trkpt lat="43.24176" lon="6.51953">
        <ele>79.988541</ele>
        <time>2008-10-05T12:22:51Z</time>
      </trkpt>
      <trkpt lat="43.24191" lon="6.51959">
        <ele>78.70977</ele>
        <time>2008-10-05T12:22:53Z</time>
      </trkpt>
      <trkpt lat="43.2424" lon="6.51978">
        <ele>74.584511</ele>
        <time>2008-10-05T12:23:00Z</time>
      </trkpt>
      <trkpt lat="43.24275" lon="6.51985">
        <ele>72.238136</ele>
        <time>2008-10-05T12:23:06Z</time>
      </trkpt>
      <trkpt lat="43.24279" lon="6.51994">
        <ele>71.990089</ele>
        <time>2008-10-05T12:23:07Z</time>
      </trkpt>
      <trkpt lat="43.24302" lon="6.52039">
        <ele>71.142441</ele>
        <time>2008-10-05T12:23:12Z</time>
      </trkpt>
      <trkpt lat="43.24313" lon="6.52069">
        <ele>70.808632</ele>
        <time>2008-10-05T12:23:15Z</time>
      </trkpt>
      <trkpt lat="43.2435" lon="6.5215">
        <ele>70.452217</ele>
        <time>2008-10-05T12:23:24Z</time>
      </trkpt>
      <trkpt lat="43.24373" lon="6.5218">
        <ele>69.94455</ele>
        <time>2008-10-05T12:23:29Z</time>
      </trkpt>
      <trkpt lat="43.24378" lon="6.52217">
        <ele>69.209473</ele>
        <time>2008-10-05T12:23:32Z</time>
      </trkpt>
      <trkpt lat="43.2438" lon="6.52245">
        <ele>68.596237</ele>
        <time>2008-10-05T12:23:34Z</time>
      </trkpt>
      <trkpt lat="43.24384" lon="6.52283">
        <ele>67.414528</ele>
        <time>2008-10-05T12:23:37Z</time>
      </trkpt>
      <trkpt lat="43.24399" lon="6.52401">
        <ele>62.269955</ele>
        <time>2008-10-05T12:23:47Z</time>
      </trkpt>
      <trkpt lat="43.24403" lon="6.52427">
        <ele>61.202312</ele>
        <time>2008-10-05T12:23:50Z</time>
      </trkpt>
      <trkpt lat="43.24414" lon="6.52455">
        <ele>60.095867</ele>
        <time>2008-10-05T12:23:53Z</time>
      </trkpt>
      <trkpt lat="43.24433" lon="6.52498">
        <ele>58.378193</ele>
        <time>2008-10-05T12:23:58Z</time>
      </trkpt>
      <trkpt lat="43.24442" lon="6.52515">
        <ele>57.714466</ele>
        <time>2008-10-05T12:24:00Z</time>
      </trkpt>
      <trkpt lat="43.2445" lon="6.52543">
        <ele>56.372013</ele>
        <time>2008-10-05T12:24:03Z</time>
      </trkpt>
      <trkpt lat="43.24453" lon="6.52554">
        <ele>55.684261</ele>
        <time>2008-10-05T12:24:04Z</time>
      </trkpt>
      <trkpt lat="43.24459" lon="6.52573">
        <ele>54.240479</ele>
        <time>2008-10-05T12:24:06Z</time>
      </trkpt>
      <trkpt lat="43.24474" lon="6.52622">
        <ele>50.101826</ele>
        <time>2008-10-05T12:24:11Z</time>
      </trkpt>
      <trkpt lat="43.24491" lon="6.52678">
        <ele>44.717117</ele>
        <time>2008-10-05T12:24:16Z</time>
      </trkpt>
      <trkpt lat="43.24502" lon="6.52721">
        <ele>40.816269</ele>
        <time>2008-10-05T12:24:19Z</time>
      </trkpt>
      <trkpt lat="43.24521" lon="6.52766">
        <ele>37.655575</ele>
        <time>2008-10-05T12:24:22Z</time>
      </trkpt>
      <trkpt lat="43.24541" lon="6.52809">
        <ele>34.973549</ele>
        <time>2008-10-05T12:24:25Z</time>
      </trkpt>
      <trkpt lat="43.24588" lon="6.52893">
        <ele>32.618702</ele>
        <time>2008-10-05T12:24:33Z</time>
      </trkpt>
      <trkpt lat="43.24592" lon="6.52899">
        <ele>32.536934</ele>
        <time>2008-10-05T12:24:34Z</time>
      </trkpt>
      <trkpt lat="43.24599" lon="6.52901">
        <ele>32.798946</ele>
        <time>2008-10-05T12:24:35Z</time>
      </trkpt>
      <trkpt lat="43.2462" lon="6.52893">
        <ele>34.619858</ele>
        <time>2008-10-05T12:24:39Z</time>
      </trkpt>
      <trkpt lat="43.24626" lon="6.5288">
        <ele>35.873192</ele>
        <time>2008-10-05T12:24:42Z</time>
      </trkpt>
      <trkpt lat="43.24633" lon="6.52869">
        <ele>37.033081</ele>
        <time>2008-10-05T12:24:45Z</time>
      </trkpt>
      <trkpt lat="43.24641" lon="6.5285">
        <ele>38.851044</ele>
        <time>2008-10-05T12:24:51Z</time>
      </trkpt>
      <trkpt lat="43.24656" lon="6.52811">
        <ele>42.333702</ele>
        <time>2008-10-05T12:25:03Z</time>
      </trkpt>
      <trkpt lat="43.24659" lon="6.52807">
        <ele>42.754723</ele>
        <time>2008-10-05T12:25:04Z</time>
      </trkpt>
      <trkpt lat="43.24659" lon="6.52805">
        <ele>42.888599</ele>
        <time>2008-10-05T12:25:05Z</time>
      </trkpt>
      <trkpt lat="43.24665" lon="6.52813">
        <ele>42.812881</ele>
        <time>2008-10-05T12:25:08Z</time>
      </trkpt>
      <trkpt lat="43.24674" lon="6.52824">
        <ele>42.830704</ele>
        <time>2008-10-05T12:25:13Z</time>
      </trkpt>
      <trkpt lat="43.24687" lon="6.5283">
        <ele>43.335331</ele>
        <time>2008-10-05T12:25:19Z</time>
      </trkpt>
      <trkpt lat="43.24697" lon="6.52828">
        <ele>44.367798</ele>
        <time>2008-10-05T12:25:23Z</time>
      </trkpt>
      <trkpt lat="43.24697" lon="6.52817">
        <ele>45.404354</ele>
        <time>2008-10-05T12:25:27Z</time>
      </trkpt>
      <trkpt lat="43.24699" lon="6.52807">
        <ele>46.492298</ele>
        <time>2008-10-05T12:25:31Z</time>
      </trkpt>
      <trkpt lat="43.24702" lon="6.52781">
        <ele>48.604565</ele>
        <time>2008-10-05T12:25:41Z</time>
      </trkpt>
      <trkpt lat="43.24702" lon="6.52742">
        <ele>50.924068</ele>
        <time>2008-10-05T12:25:54Z</time>
      </trkpt>
      <trkpt lat="43.24702" lon="6.52727">
        <ele>51.241737</ele>
        <time>2008-10-05T12:25:59Z</time>
      </trkpt>
      <trkpt lat="43.24723" lon="6.52689">
        <ele>53.635822</ele>
        <time>2008-10-05T12:26:17Z</time>
      </trkpt>
      <trkpt lat="43.24723" lon="6.52687">
        <ele>53.7178</ele>
        <time>2008-10-05T12:26:18Z</time>
      </trkpt>
      <trkpt lat="43.24727" lon="6.52674">
        <ele>54.430367</ele>
        <time>2008-10-05T12:26:24Z</time>
      </trkpt>
      <trkpt lat="43.24732" lon="6.52663">
        <ele>54.967896</ele>
        <time>2008-10-05T12:26:29Z</time>
      </trkpt>
      <trkpt lat="43.24742" lon="6.52667">
        <ele>55.272232</ele>
        <time>2008-10-05T12:26:35Z</time>
      </trkpt>
      <trkpt lat="43.24744" lon="6.52667">
        <ele>55.357384</ele>
        <time>2008-10-05T12:26:37Z</time>
      </trkpt>
      <trkpt lat="43.24749" lon="6.52665">
        <ele>55.551678</ele>
        <time>2008-10-05T12:26:40Z</time>
      </trkpt>
      <trkpt lat="43.24753" lon="6.52665">
        <ele>55.706932</ele>
        <time>2008-10-05T12:26:42Z</time>
      </trkpt>
      <trkpt lat="43.24764" lon="6.52663">
        <ele>55.948559</ele>
        <time>2008-10-05T12:26:48Z</time>
      </trkpt>
      <trkpt lat="43.24787" lon="6.52659">
        <ele>55.427647</ele>
        <time>2008-10-05T12:27:00Z</time>
      </trkpt>
      <trkpt lat="43.24805" lon="6.52646">
        <ele>55.057255</ele>
        <time>2008-10-05T12:27:07Z</time>
      </trkpt>
      <trkpt lat="43.24815" lon="6.52635">
        <ele>54.111992</ele>
        <time>2008-10-05T12:27:10Z</time>
      </trkpt>
      <trkpt lat="43.24824" lon="6.52629">
        <ele>53.11858</ele>
        <time>2008-10-05T12:27:12Z</time>
      </trkpt>
      <trkpt lat="43.24817" lon="6.52605">
        <ele>53.608788</ele>
        <time>2008-10-05T12:27:17Z</time>
      </trkpt>
      <trkpt lat="43.24824" lon="6.52609">
        <ele>52.992805</ele>
        <time>2008-10-05T12:27:20Z</time>
      </trkpt>
      <trkpt lat="43.24826" lon="6.52616">
        <ele>52.812973</ele>
        <time>2008-10-05T12:27:23Z</time>
      </trkpt>
      <trkpt lat="43.24826" lon="6.52629">
        <ele>52.885708</ele>
        <time>2008-10-05T12:27:26Z</time>
      </trkpt>
      <trkpt lat="43.24835" lon="6.52657">
        <ele>51.901184</ele>
        <time>2008-10-05T12:27:30Z</time>
      </trkpt>
      <trkpt lat="43.24837" lon="6.52661">
        <ele>51.644112</ele>
        <time>2008-10-05T12:27:31Z</time>
      </trkpt>
      <trkpt lat="43.24847" lon="6.52689">
        <ele>50.330853</ele>
        <time>2008-10-05T12:27:35Z</time>
      </trkpt>
      <trkpt lat="43.24858" lon="6.52738">
        <ele>47.102798</ele>
        <time>2008-10-05T12:27:43Z</time>
      </trkpt>
      <trkpt lat="43.24858" lon="6.52745">
        <ele>46.848965</ele>
        <time>2008-10-05T12:27:44Z</time>
      </trkpt>
      <trkpt lat="43.24862" lon="6.52766">
        <ele>45.152916</ele>
        <time>2008-10-05T12:27:48Z</time>
      </trkpt>
      <trkpt lat="43.24871" lon="6.52757">
        <ele>44.082527</ele>
        <time>2008-10-05T12:27:51Z</time>
      </trkpt>
      <trkpt lat="43.24886" lon="6.52755">
        <ele>41.531906</ele>
        <time>2008-10-05T12:27:54Z</time>
      </trkpt>
      <trkpt lat="43.24893" lon="6.52757">
        <ele>40.317909</ele>
        <time>2008-10-05T12:27:55Z</time>
      </trkpt>
      <trkpt lat="43.24914" lon="6.52764">
        <ele>36.720051</ele>
        <time>2008-10-05T12:27:58Z</time>
      </trkpt>
      <trkpt lat="43.2492" lon="6.52766">
        <ele>35.667629</ele>
        <time>2008-10-05T12:27:59Z</time>
      </trkpt>
      <trkpt lat="43.24935" lon="6.52772">
        <ele>33.101715</ele>
        <time>2008-10-05T12:28:01Z</time>
      </trkpt>
      <trkpt lat="43.2495" lon="6.52779">
        <ele>30.81122</ele>
        <time>2008-10-05T12:28:03Z</time>
      </trkpt>
      <trkpt lat="43.24965" lon="6.52783">
        <ele>28.710855</ele>
        <time>2008-10-05T12:28:05Z</time>
      </trkpt>
      <trkpt lat="43.2497" lon="6.52787">
        <ele>27.989134</ele>
        <time>2008-10-05T12:28:06Z</time>
      </trkpt>
      <trkpt lat="43.2497" lon="6.52817">
        <ele>26.748199</ele>
        <time>2008-10-05T12:28:11Z</time>
      </trkpt>
      <trkpt lat="43.24968" lon="6.5282">
        <ele>26.903654</ele>
        <time>2008-10-05T12:28:12Z</time>
      </trkpt>
      <trkpt lat="43.24968" lon="6.52824">
        <ele>26.725397</ele>
        <time>2008-10-05T12:28:13Z</time>
      </trkpt>
      <trkpt lat="43.24972" lon="6.52824">
        <ele>26.245546</ele>
        <time>2008-10-05T12:28:19Z</time>
      </trkpt>
      <trkpt lat="43.24974" lon="6.52817">
        <ele>26.257915</ele>
        <time>2008-10-05T12:28:21Z</time>
      </trkpt>
      <trkpt lat="43.24976" lon="6.52815">
        <ele>26.09523</ele>
        <time>2008-10-05T12:28:22Z</time>
      </trkpt>
      <trkpt lat="43.25002" lon="6.52753">
        <ele>26.067406</ele>
        <time>2008-10-05T12:28:36Z</time>
      </trkpt>
      <trkpt lat="43.25017" lon="6.52721">
        <ele>25.69031</ele>
        <time>2008-10-05T12:28:42Z</time>
      </trkpt>
      <trkpt lat="43.25096" lon="6.52798">
        <ele>24.279303</ele>
        <time>2008-10-05T12:28:58Z</time>
      </trkpt>
      <trkpt lat="43.25101" lon="6.52802">
        <ele>24.313776</ele>
        <time>2008-10-05T12:28:59Z</time>
      </trkpt>
      <trkpt lat="43.25107" lon="6.52833">
        <ele>24.00247</ele>
        <time>2008-10-05T12:29:04Z</time>
      </trkpt>
      <trkpt lat="43.25114" lon="6.52854">
        <ele>23.991138</ele>
        <time>2008-10-05T12:29:15Z</time>
      </trkpt>
      <trkpt lat="43.25116" lon="6.52858">
        <ele>24.085106</ele>
        <time>2008-10-05T12:29:48Z</time>
      </trkpt>
      <trkpt lat="43.25118" lon="6.52867">
        <ele>24.195381</ele>
        <time>2008-10-05T12:29:53Z</time>
      </trkpt>
      <trkpt lat="43.25118" lon="6.52869">
        <ele>24.199102</ele>
        <time>2008-10-05T12:29:54Z</time>
      </trkpt>
      <trkpt lat="43.25118" lon="6.52878">
        <ele>24.213989</ele>
        <time>2008-10-05T12:30:24Z</time>
      </trkpt>
      <trkpt lat="43.25118" lon="6.52882">
        <ele>24.221434</ele>
        <time>2008-10-05T12:30:42Z</time>
      </trkpt>
      <trkpt lat="43.25118" lon="6.52884">
        <ele>24.225155</ele>
        <time>2008-10-05T12:31:35Z</time>
      </trkpt>
      <trkpt lat="43.25118" lon="6.52884">
        <ele>24.225155</ele>
        <time>2008-10-05T12:31:59Z</time>
      </trkpt>
      <trkpt lat="43.25118" lon="6.52884">
        <ele>24.225155</ele>
        <time>2008-10-05T12:32:00Z</time>
      </trkpt>
      <trkpt lat="43.25118" lon="6.52884">
        <ele>24.225155</ele>
        <time>2008-10-05T12:32:01Z</time>
      </trkpt>
      <trkpt lat="43.25118" lon="6.52882">
        <ele>24.221434</ele>
        <time>2008-10-05T12:32:16Z</time>
      </trkpt>
      <trkpt lat="43.25118" lon="6.52884">
        <ele>24.225155</ele>
        <time>2008-10-05T12:32:19Z</time>
      </trkpt>
      <trkpt lat="43.25122" lon="6.52878">
        <ele>24.404766</ele>
        <time>2008-10-05T12:32:28Z</time>
      </trkpt>
      <trkpt lat="43.25124" lon="6.52875">
        <ele>24.496431</ele>
        <time>2008-10-05T12:33:03Z</time>
      </trkpt>
      <trkpt lat="43.25124" lon="6.52878">
        <ele>24.500153</ele>
        <time>2008-10-05T12:35:24Z</time>
      </trkpt>
      <trkpt lat="43.25124" lon="6.52888">
        <ele>24.518763</ele>
        <time>2008-10-05T12:35:29Z</time>
      </trkpt>
      <trkpt lat="43.2512" lon="6.5289">
        <ele>24.331709</ele>
        <time>2008-10-05T12:35:36Z</time>
      </trkpt>
      <trkpt lat="43.25118" lon="6.5289">
        <ele>24.236322</ele>
        <time>2008-10-05T12:35:41Z</time>
      </trkpt>
      <trkpt lat="43.25118" lon="6.52886">
        <ele>24.228878</ele>
        <time>2008-10-05T12:35:48Z</time>
      </trkpt>
      <trkpt lat="43.25114" lon="6.52884">
        <ele>24.03438</ele>
        <time>2008-10-05T12:35:53Z</time>
      </trkpt>
      <trkpt lat="43.25111" lon="6.5288">
        <ele>23.965775</ele>
        <time>2008-10-05T12:36:18Z</time>
      </trkpt>
      <trkpt lat="43.25116" lon="6.52878">
        <ele>24.118603</ele>
        <time>2008-10-05T12:36:24Z</time>
      </trkpt>
      <trkpt lat="43.25116" lon="6.52882">
        <ele>24.126047</ele>
        <time>2008-10-05T12:36:27Z</time>
      </trkpt>
      <trkpt lat="43.25118" lon="6.52886">
        <ele>24.228878</ele>
        <time>2008-10-05T12:36:30Z</time>
      </trkpt>
      <trkpt lat="43.25118" lon="6.52893">
        <ele>24.240044</ele>
        <time>2008-10-05T12:36:33Z</time>
      </trkpt>
      <trkpt lat="43.25122" lon="6.52899">
        <ele>24.441986</ele>
        <time>2008-10-05T12:36:36Z</time>
      </trkpt>
      <trkpt lat="43.25124" lon="6.52901">
        <ele>24.541096</ele>
        <time>2008-10-05T12:36:37Z</time>
      </trkpt>
      <trkpt lat="43.25126" lon="6.52905">
        <ele>24.643927</ele>
        <time>2008-10-05T12:36:39Z</time>
      </trkpt>
      <trkpt lat="43.25129" lon="6.5291">
        <ele>24.767879</ele>
        <time>2008-10-05T12:36:42Z</time>
      </trkpt>
      <trkpt lat="43.25126" lon="6.52914">
        <ele>24.701254</ele>
        <time>2008-10-05T12:36:47Z</time>
      </trkpt>
      <trkpt lat="43.25124" lon="6.52918">
        <ele>24.628275</ele>
        <time>2008-10-05T12:36:50Z</time>
      </trkpt>
      <trkpt lat="43.2512" lon="6.52925">
        <ele>24.452063</ele>
        <time>2008-10-05T12:36:53Z</time>
      </trkpt>
      <trkpt lat="43.25118" lon="6.52944">
        <ele>24.432652</ele>
        <time>2008-10-05T12:37:00Z</time>
      </trkpt>
      <trkpt lat="43.25116" lon="6.52946">
        <ele>24.316692</ele>
        <time>2008-10-05T12:37:03Z</time>
      </trkpt>
      <trkpt lat="43.25118" lon="6.52951">
        <ele>24.46513</ele>
        <time>2008-10-05T12:37:07Z</time>
      </trkpt>
      <trkpt lat="43.25116" lon="6.52953">
        <ele>24.344585</ele>
        <time>2008-10-05T12:37:13Z</time>
      </trkpt>
      <trkpt lat="43.25107" lon="6.52955">
        <ele>23.883036</ele>
        <time>2008-10-05T12:37:37Z</time>
      </trkpt>
      <trkpt lat="43.25103" lon="6.52957">
        <ele>23.707052</ele>
        <time>2008-10-05T12:37:47Z</time>
      </trkpt>
      <trkpt lat="43.25096" lon="6.52963">
        <ele>23.418957</ele>
        <time>2008-10-05T12:37:53Z</time>
      </trkpt>
      <trkpt lat="43.25099" lon="6.52978">
        <ele>23.640682</ele>
        <time>2008-10-05T12:37:56Z</time>
      </trkpt>
      <trkpt lat="43.25099" lon="6.52981">
        <ele>23.663801</ele>
        <time>2008-10-05T12:37:59Z</time>
      </trkpt>
      <trkpt lat="43.25103" lon="6.52985">
        <ele>23.95746</ele>
        <time>2008-10-05T12:38:06Z</time>
      </trkpt>
      <trkpt lat="43.25105" lon="6.52987">
        <ele>24.113899</ele>
        <time>2008-10-05T12:38:09Z</time>
      </trkpt>
      <trkpt lat="43.25107" lon="6.52991">
        <ele>24.314423</ele>
        <time>2008-10-05T12:38:13Z</time>
      </trkpt>
      <trkpt lat="43.25107" lon="6.52993">
        <ele>24.352364</ele>
        <time>2008-10-05T12:38:42Z</time>
      </trkpt>
      <trkpt lat="43.25107" lon="6.52993">
        <ele>24.352364</ele>
        <time>2008-10-05T12:39:47Z</time>
      </trkpt>
      <trkpt lat="43.25107" lon="6.52987">
        <ele>24.239321</ele>
        <time>2008-10-05T12:39:50Z</time>
      </trkpt>
      <trkpt lat="43.25107" lon="6.52985">
        <ele>24.20216</ele>
        <time>2008-10-05T12:39:51Z</time>
      </trkpt>
      <trkpt lat="43.25107" lon="6.52985">
        <ele>24.20216</ele>
        <time>2008-10-05T12:39:53Z</time>
      </trkpt>
      <trkpt lat="43.25101" lon="6.52981">
        <ele>23.780733</ele>
        <time>2008-10-05T12:39:59Z</time>
      </trkpt>
      <trkpt lat="43.25099" lon="6.52976">
        <ele>23.617823</ele>
        <time>2008-10-05T12:40:05Z</time>
      </trkpt>
      <trkpt lat="43.25099" lon="6.52974">
        <ele>23.595222</ele>
        <time>2008-10-05T12:40:08Z</time>
      </trkpt>
      <trkpt lat="43.25099" lon="6.52974">
        <ele>23.595222</ele>
        <time>2008-10-05T13:01:30Z</time>
      </trkpt>
      <trkpt lat="43.25099" lon="6.52974">
        <ele>23.595222</ele>
        <time>2008-10-05T13:01:31Z</time>
      </trkpt>
      <trkpt lat="43.25099" lon="6.52974">
        <ele>23.595222</ele>
        <time>2008-10-05T13:02:06Z</time>
      </trkpt>
    </trkseg>
  </trk>
</gpx>